<?xml version="1.0" encoding="UTF-8" standalone="no" ?>
<gpx xmlns="http://www.topografix.com/GPX/1/1" xmlns:xsi="http://www.w3.org/2001/XMLSchema-instance" xsi:schemaLocation="http://www.topografix.com/GPX/1/1 http://www.topografix.com/GPX/1/1/gpx.xsd" version="1.1" creator="VisuGPX - https://www.visugpx.com">
  <metadata>
    <name>La brèche du diable.</name>
    <desc><![CDATA[Parcours accessible à tous, très varié entre pleine et vallonnement. Le site de Marie-jolie vaut le détour.]]></desc>
  </metadata>
  <trk>
    <name><![CDATA[La breche du diable]]></name>
    <trkseg>
      <trkpt lat="48.96976" lon="-0.24096">
        <ele>152.5063477</ele>
        <time>2010-11-07T07:33:11Z</time>
      </trkpt>
      <trkpt lat="48.96976" lon="-0.24097">
        <ele>211.1467285</ele>
        <time>2010-11-07T07:33:12Z</time>
      </trkpt>
      <trkpt lat="48.96976" lon="-0.24097">
        <ele>211.1467285</ele>
        <time>2010-11-07T07:33:13Z</time>
      </trkpt>
      <trkpt lat="48.96971" lon="-0.24092">
        <ele>152.0257568</ele>
        <time>2010-11-07T07:37:25Z</time>
      </trkpt>
      <trkpt lat="48.96967" lon="-0.24112">
        <ele>152.5063477</ele>
        <time>2010-11-07T07:37:32Z</time>
      </trkpt>
      <trkpt lat="48.96965" lon="-0.24125">
        <ele>152.9869385</ele>
        <time>2010-11-07T07:37:36Z</time>
      </trkpt>
      <trkpt lat="48.96964" lon="-0.24128">
        <ele>153.4676514</ele>
        <time>2010-11-07T07:37:37Z</time>
      </trkpt>
      <trkpt lat="48.96958" lon="-0.24157">
        <ele>153.9483643</ele>
        <time>2010-11-07T07:37:46Z</time>
      </trkpt>
      <trkpt lat="48.96956" lon="-0.24177">
        <ele>154.4289551</ele>
        <time>2010-11-07T07:37:54Z</time>
      </trkpt>
      <trkpt lat="48.96958" lon="-0.2418">
        <ele>154.4289551</ele>
        <time>2010-11-07T07:37:57Z</time>
      </trkpt>
      <trkpt lat="48.96958" lon="-0.2418">
        <ele>154.4289551</ele>
        <time>2010-11-07T07:37:58Z</time>
      </trkpt>
      <trkpt lat="48.96958" lon="-0.24183">
        <ele>154.9095459</ele>
        <time>2010-11-07T07:38:09Z</time>
      </trkpt>
      <trkpt lat="48.96953" lon="-0.24188">
        <ele>154.9095459</ele>
        <time>2010-11-07T07:38:12Z</time>
      </trkpt>
      <trkpt lat="48.9694" lon="-0.24197">
        <ele>154.9095459</ele>
        <time>2010-11-07T07:38:17Z</time>
      </trkpt>
      <trkpt lat="48.96931" lon="-0.24224">
        <ele>155.8709717</ele>
        <time>2010-11-07T07:38:24Z</time>
      </trkpt>
      <trkpt lat="48.96924" lon="-0.24248">
        <ele>156.3515625</ele>
        <time>2010-11-07T07:38:31Z</time>
      </trkpt>
      <trkpt lat="48.96912" lon="-0.24284">
        <ele>157.7935791</ele>
        <time>2010-11-07T07:38:39Z</time>
      </trkpt>
      <trkpt lat="48.96896" lon="-0.24325">
        <ele>159.2354736</ele>
        <time>2010-11-07T07:38:48Z</time>
      </trkpt>
      <trkpt lat="48.96878" lon="-0.24371">
        <ele>159.2354736</ele>
        <time>2010-11-07T07:38:57Z</time>
      </trkpt>
      <trkpt lat="48.96863" lon="-0.24411">
        <ele>160.1968994</ele>
        <time>2010-11-07T07:39:05Z</time>
      </trkpt>
      <trkpt lat="48.96844" lon="-0.24461">
        <ele>161.1582031</ele>
        <time>2010-11-07T07:39:15Z</time>
      </trkpt>
      <trkpt lat="48.96829" lon="-0.2452">
        <ele>162.1195068</ele>
        <time>2010-11-07T07:39:26Z</time>
      </trkpt>
      <trkpt lat="48.96817" lon="-0.24589">
        <ele>162.6000977</ele>
        <time>2010-11-07T07:39:38Z</time>
      </trkpt>
      <trkpt lat="48.96809" lon="-0.24649">
        <ele>163.0808105</ele>
        <time>2010-11-07T07:39:49Z</time>
      </trkpt>
      <trkpt lat="48.96801" lon="-0.24713">
        <ele>165.003418</ele>
        <time>2010-11-07T07:40:01Z</time>
      </trkpt>
      <trkpt lat="48.96795" lon="-0.2477">
        <ele>166.4453125</ele>
        <time>2010-11-07T07:40:12Z</time>
      </trkpt>
      <trkpt lat="48.9679" lon="-0.24815">
        <ele>167.8873291</ele>
        <time>2010-11-07T07:40:21Z</time>
      </trkpt>
      <trkpt lat="48.96781" lon="-0.24859">
        <ele>168.8487549</ele>
        <time>2010-11-07T07:40:30Z</time>
      </trkpt>
      <trkpt lat="48.96765" lon="-0.249">
        <ele>169.8100586</ele>
        <time>2010-11-07T07:40:39Z</time>
      </trkpt>
      <trkpt lat="48.9674" lon="-0.24952">
        <ele>170.7713623</ele>
        <time>2010-11-07T07:40:50Z</time>
      </trkpt>
      <trkpt lat="48.96709" lon="-0.25013">
        <ele>172.6939697</ele>
        <time>2010-11-07T07:41:04Z</time>
      </trkpt>
      <trkpt lat="48.96688" lon="-0.25062">
        <ele>174.6165771</ele>
        <time>2010-11-07T07:41:15Z</time>
      </trkpt>
      <trkpt lat="48.96672" lon="-0.25116">
        <ele>176.0585938</ele>
        <time>2010-11-07T07:41:26Z</time>
      </trkpt>
      <trkpt lat="48.96661" lon="-0.25172">
        <ele>177.5006104</ele>
        <time>2010-11-07T07:41:37Z</time>
      </trkpt>
      <trkpt lat="48.96652" lon="-0.2524">
        <ele>178.4619141</ele>
        <time>2010-11-07T07:41:50Z</time>
      </trkpt>
      <trkpt lat="48.96649" lon="-0.25301">
        <ele>179.9038086</ele>
        <time>2010-11-07T07:42:02Z</time>
      </trkpt>
      <trkpt lat="48.96645" lon="-0.25352">
        <ele>180.8652344</ele>
        <time>2010-11-07T07:42:12Z</time>
      </trkpt>
      <trkpt lat="48.96639" lon="-0.25406">
        <ele>183.2684326</ele>
        <time>2010-11-07T07:42:22Z</time>
      </trkpt>
      <trkpt lat="48.96637" lon="-0.25445">
        <ele>184.2298584</ele>
        <time>2010-11-07T07:42:30Z</time>
      </trkpt>
      <trkpt lat="48.96632" lon="-0.25497">
        <ele>184.7105713</ele>
        <time>2010-11-07T07:42:40Z</time>
      </trkpt>
      <trkpt lat="48.9663" lon="-0.25534">
        <ele>185.6717529</ele>
        <time>2010-11-07T07:42:48Z</time>
      </trkpt>
      <trkpt lat="48.96627" lon="-0.25583">
        <ele>187.1137695</ele>
        <time>2010-11-07T07:42:58Z</time>
      </trkpt>
      <trkpt lat="48.96627" lon="-0.25634">
        <ele>187.5943604</ele>
        <time>2010-11-07T07:43:08Z</time>
      </trkpt>
      <trkpt lat="48.96627" lon="-0.25685">
        <ele>188.5557861</ele>
        <time>2010-11-07T07:43:18Z</time>
      </trkpt>
      <trkpt lat="48.96627" lon="-0.25728">
        <ele>189.5169678</ele>
        <time>2010-11-07T07:43:27Z</time>
      </trkpt>
      <trkpt lat="48.96628" lon="-0.25766">
        <ele>189.9976807</ele>
        <time>2010-11-07T07:43:36Z</time>
      </trkpt>
      <trkpt lat="48.96628" lon="-0.25803">
        <ele>192.401123</ele>
        <time>2010-11-07T07:43:45Z</time>
      </trkpt>
      <trkpt lat="48.96629" lon="-0.25842">
        <ele>193.3623047</ele>
        <time>2010-11-07T07:43:54Z</time>
      </trkpt>
      <trkpt lat="48.96629" lon="-0.25851">
        <ele>194.3237305</ele>
        <time>2010-11-07T07:43:56Z</time>
      </trkpt>
      <trkpt lat="48.96629" lon="-0.25894">
        <ele>196.2463379</ele>
        <time>2010-11-07T07:44:07Z</time>
      </trkpt>
      <trkpt lat="48.96627" lon="-0.25931">
        <ele>196.2463379</ele>
        <time>2010-11-07T07:44:16Z</time>
      </trkpt>
      <trkpt lat="48.96619" lon="-0.25948">
        <ele>197.2075195</ele>
        <time>2010-11-07T07:44:21Z</time>
      </trkpt>
      <trkpt lat="48.96606" lon="-0.25969">
        <ele>198.1689453</ele>
        <time>2010-11-07T07:44:27Z</time>
      </trkpt>
      <trkpt lat="48.96594" lon="-0.2599">
        <ele>198.6495361</ele>
        <time>2010-11-07T07:44:33Z</time>
      </trkpt>
      <trkpt lat="48.96572" lon="-0.26031">
        <ele>199.130127</ele>
        <time>2010-11-07T07:44:44Z</time>
      </trkpt>
      <trkpt lat="48.96556" lon="-0.26064">
        <ele>200.5722656</ele>
        <time>2010-11-07T07:44:52Z</time>
      </trkpt>
      <trkpt lat="48.9654" lon="-0.26106">
        <ele>202.0142822</ele>
        <time>2010-11-07T07:45:02Z</time>
      </trkpt>
      <trkpt lat="48.96529" lon="-0.26144">
        <ele>201.5335693</ele>
        <time>2010-11-07T07:45:10Z</time>
      </trkpt>
      <trkpt lat="48.96519" lon="-0.26199">
        <ele>202.9754639</ele>
        <time>2010-11-07T07:45:21Z</time>
      </trkpt>
      <trkpt lat="48.96511" lon="-0.26254">
        <ele>203.9368896</ele>
        <time>2010-11-07T07:45:31Z</time>
      </trkpt>
      <trkpt lat="48.96497" lon="-0.26321">
        <ele>204.4174805</ele>
        <time>2010-11-07T07:45:43Z</time>
      </trkpt>
      <trkpt lat="48.96484" lon="-0.26356">
        <ele>205.3787842</ele>
        <time>2010-11-07T07:45:50Z</time>
      </trkpt>
      <trkpt lat="48.96468" lon="-0.26397">
        <ele>205.8594971</ele>
        <time>2010-11-07T07:45:59Z</time>
      </trkpt>
      <trkpt lat="48.96452" lon="-0.2643">
        <ele>205.8594971</ele>
        <time>2010-11-07T07:46:07Z</time>
      </trkpt>
      <trkpt lat="48.96434" lon="-0.26444">
        <ele>204.8980713</ele>
        <time>2010-11-07T07:46:13Z</time>
      </trkpt>
      <trkpt lat="48.96407" lon="-0.26461">
        <ele>204.4174805</ele>
        <time>2010-11-07T07:46:21Z</time>
      </trkpt>
      <trkpt lat="48.96394" lon="-0.26474">
        <ele>204.8980713</ele>
        <time>2010-11-07T07:46:26Z</time>
      </trkpt>
      <trkpt lat="48.96383" lon="-0.26494">
        <ele>204.4174805</ele>
        <time>2010-11-07T07:46:32Z</time>
      </trkpt>
      <trkpt lat="48.96365" lon="-0.26525">
        <ele>204.8980713</ele>
        <time>2010-11-07T07:46:39Z</time>
      </trkpt>
      <trkpt lat="48.96347" lon="-0.26556">
        <ele>204.4174805</ele>
        <time>2010-11-07T07:46:45Z</time>
      </trkpt>
      <trkpt lat="48.96318" lon="-0.26602">
        <ele>203.4561768</ele>
        <time>2010-11-07T07:46:54Z</time>
      </trkpt>
      <trkpt lat="48.96294" lon="-0.26643">
        <ele>203.4561768</ele>
        <time>2010-11-07T07:47:01Z</time>
      </trkpt>
      <trkpt lat="48.9627" lon="-0.26683">
        <ele>202.0142822</ele>
        <time>2010-11-07T07:47:09Z</time>
      </trkpt>
      <trkpt lat="48.96245" lon="-0.26724">
        <ele>201.0528564</ele>
        <time>2010-11-07T07:47:17Z</time>
      </trkpt>
      <trkpt lat="48.96221" lon="-0.26767">
        <ele>200.5722656</ele>
        <time>2010-11-07T07:47:25Z</time>
      </trkpt>
      <trkpt lat="48.96201" lon="-0.268">
        <ele>199.6108398</ele>
        <time>2010-11-07T07:47:31Z</time>
      </trkpt>
      <trkpt lat="48.96177" lon="-0.26842">
        <ele>198.6495361</ele>
        <time>2010-11-07T07:47:39Z</time>
      </trkpt>
      <trkpt lat="48.96154" lon="-0.26879">
        <ele>198.1689453</ele>
        <time>2010-11-07T07:47:47Z</time>
      </trkpt>
      <trkpt lat="48.9615" lon="-0.26881">
        <ele>198.1689453</ele>
        <time>2010-11-07T07:47:49Z</time>
      </trkpt>
      <trkpt lat="48.96146" lon="-0.26871">
        <ele>198.1689453</ele>
        <time>2010-11-07T07:47:54Z</time>
      </trkpt>
      <trkpt lat="48.96147" lon="-0.26857">
        <ele>199.130127</ele>
        <time>2010-11-07T07:47:57Z</time>
      </trkpt>
      <trkpt lat="48.96149" lon="-0.26818">
        <ele>199.130127</ele>
        <time>2010-11-07T07:48:03Z</time>
      </trkpt>
      <trkpt lat="48.96149" lon="-0.26805">
        <ele>199.6108398</ele>
        <time>2010-11-07T07:48:05Z</time>
      </trkpt>
      <trkpt lat="48.96151" lon="-0.26774">
        <ele>200.0916748</ele>
        <time>2010-11-07T07:48:10Z</time>
      </trkpt>
      <trkpt lat="48.96156" lon="-0.26724">
        <ele>201.0528564</ele>
        <time>2010-11-07T07:48:18Z</time>
      </trkpt>
      <trkpt lat="48.96159" lon="-0.2668">
        <ele>201.5335693</ele>
        <time>2010-11-07T07:48:25Z</time>
      </trkpt>
      <trkpt lat="48.96163" lon="-0.26634">
        <ele>202.0142822</ele>
        <time>2010-11-07T07:48:32Z</time>
      </trkpt>
      <trkpt lat="48.96165" lon="-0.26598">
        <ele>202.494873</ele>
        <time>2010-11-07T07:48:38Z</time>
      </trkpt>
      <trkpt lat="48.96167" lon="-0.26576">
        <ele>202.494873</ele>
        <time>2010-11-07T07:48:42Z</time>
      </trkpt>
      <trkpt lat="48.96154" lon="-0.26557">
        <ele>202.494873</ele>
        <time>2010-11-07T07:48:48Z</time>
      </trkpt>
      <trkpt lat="48.96131" lon="-0.26533">
        <ele>202.0142822</ele>
        <time>2010-11-07T07:48:55Z</time>
      </trkpt>
      <trkpt lat="48.96107" lon="-0.26506">
        <ele>200.5722656</ele>
        <time>2010-11-07T07:49:02Z</time>
      </trkpt>
      <trkpt lat="48.96083" lon="-0.26477">
        <ele>200.0916748</ele>
        <time>2010-11-07T07:49:10Z</time>
      </trkpt>
      <trkpt lat="48.96067" lon="-0.26456">
        <ele>200.0916748</ele>
        <time>2010-11-07T07:49:16Z</time>
      </trkpt>
      <trkpt lat="48.9604" lon="-0.26423">
        <ele>199.6108398</ele>
        <time>2010-11-07T07:49:25Z</time>
      </trkpt>
      <trkpt lat="48.96014" lon="-0.2639">
        <ele>198.6495361</ele>
        <time>2010-11-07T07:49:34Z</time>
      </trkpt>
      <trkpt lat="48.95985" lon="-0.26354">
        <ele>198.6495361</ele>
        <time>2010-11-07T07:49:44Z</time>
      </trkpt>
      <trkpt lat="48.95952" lon="-0.26312">
        <ele>197.6882324</ele>
        <time>2010-11-07T07:49:55Z</time>
      </trkpt>
      <trkpt lat="48.95921" lon="-0.26273">
        <ele>197.2075195</ele>
        <time>2010-11-07T07:50:05Z</time>
      </trkpt>
      <trkpt lat="48.95889" lon="-0.26235">
        <ele>196.2463379</ele>
        <time>2010-11-07T07:50:15Z</time>
      </trkpt>
      <trkpt lat="48.95857" lon="-0.26196">
        <ele>195.2849121</ele>
        <time>2010-11-07T07:50:25Z</time>
      </trkpt>
      <trkpt lat="48.95822" lon="-0.26152">
        <ele>193.8430176</ele>
        <time>2010-11-07T07:50:36Z</time>
      </trkpt>
      <trkpt lat="48.95784" lon="-0.26108">
        <ele>193.3623047</ele>
        <time>2010-11-07T07:50:47Z</time>
      </trkpt>
      <trkpt lat="48.95757" lon="-0.26073">
        <ele>191.9202881</ele>
        <time>2010-11-07T07:50:55Z</time>
      </trkpt>
      <trkpt lat="48.95716" lon="-0.26023">
        <ele>190.4783936</ele>
        <time>2010-11-07T07:51:06Z</time>
      </trkpt>
      <trkpt lat="48.95677" lon="-0.25973">
        <ele>189.5169678</ele>
        <time>2010-11-07T07:51:16Z</time>
      </trkpt>
      <trkpt lat="48.95655" lon="-0.25947">
        <ele>189.036377</ele>
        <time>2010-11-07T07:51:22Z</time>
      </trkpt>
      <trkpt lat="48.95632" lon="-0.2592">
        <ele>189.036377</ele>
        <time>2010-11-07T07:51:30Z</time>
      </trkpt>
      <trkpt lat="48.95627" lon="-0.25917">
        <ele>188.5557861</ele>
        <time>2010-11-07T07:51:32Z</time>
      </trkpt>
      <trkpt lat="48.95626" lon="-0.25899">
        <ele>188.5557861</ele>
        <time>2010-11-07T07:51:36Z</time>
      </trkpt>
      <trkpt lat="48.95635" lon="-0.25853">
        <ele>188.0750732</ele>
        <time>2010-11-07T07:51:43Z</time>
      </trkpt>
      <trkpt lat="48.95644" lon="-0.25814">
        <ele>188.0750732</ele>
        <time>2010-11-07T07:51:50Z</time>
      </trkpt>
      <trkpt lat="48.95644" lon="-0.25809">
        <ele>187.5943604</ele>
        <time>2010-11-07T07:51:51Z</time>
      </trkpt>
      <trkpt lat="48.95634" lon="-0.25794">
        <ele>188.0750732</ele>
        <time>2010-11-07T07:51:55Z</time>
      </trkpt>
      <trkpt lat="48.95596" lon="-0.25778">
        <ele>187.1137695</ele>
        <time>2010-11-07T07:52:03Z</time>
      </trkpt>
      <trkpt lat="48.95552" lon="-0.25758">
        <ele>185.1911621</ele>
        <time>2010-11-07T07:52:12Z</time>
      </trkpt>
      <trkpt lat="48.95507" lon="-0.25739">
        <ele>183.7490234</ele>
        <time>2010-11-07T07:52:21Z</time>
      </trkpt>
      <trkpt lat="48.9545" lon="-0.25712">
        <ele>182.3071289</ele>
        <time>2010-11-07T07:52:33Z</time>
      </trkpt>
      <trkpt lat="48.95407" lon="-0.25693">
        <ele>180.8652344</ele>
        <time>2010-11-07T07:52:42Z</time>
      </trkpt>
      <trkpt lat="48.95356" lon="-0.2567">
        <ele>179.9038086</ele>
        <time>2010-11-07T07:52:52Z</time>
      </trkpt>
      <trkpt lat="48.95312" lon="-0.25651">
        <ele>177.5006104</ele>
        <time>2010-11-07T07:53:01Z</time>
      </trkpt>
      <trkpt lat="48.95268" lon="-0.25631">
        <ele>175.5778809</ele>
        <time>2010-11-07T07:53:09Z</time>
      </trkpt>
      <trkpt lat="48.95224" lon="-0.25611">
        <ele>174.6165771</ele>
        <time>2010-11-07T07:53:17Z</time>
      </trkpt>
      <trkpt lat="48.95168" lon="-0.25587">
        <ele>173.1746826</ele>
        <time>2010-11-07T07:53:27Z</time>
      </trkpt>
      <trkpt lat="48.95126" lon="-0.2557">
        <ele>170.7713623</ele>
        <time>2010-11-07T07:53:35Z</time>
      </trkpt>
      <trkpt lat="48.95085" lon="-0.25552">
        <ele>169.8100586</ele>
        <time>2010-11-07T07:53:43Z</time>
      </trkpt>
      <trkpt lat="48.95039" lon="-0.25532">
        <ele>168.8487549</ele>
        <time>2010-11-07T07:53:52Z</time>
      </trkpt>
      <trkpt lat="48.94996" lon="-0.25512">
        <ele>166.9260254</ele>
        <time>2010-11-07T07:54:00Z</time>
      </trkpt>
      <trkpt lat="48.9494" lon="-0.25487">
        <ele>165.9647217</ele>
        <time>2010-11-07T07:54:10Z</time>
      </trkpt>
      <trkpt lat="48.94893" lon="-0.25466">
        <ele>165.003418</ele>
        <time>2010-11-07T07:54:19Z</time>
      </trkpt>
      <trkpt lat="48.94855" lon="-0.2545">
        <ele>164.0421143</ele>
        <time>2010-11-07T07:54:27Z</time>
      </trkpt>
      <trkpt lat="48.94852" lon="-0.25448">
        <ele>163.5615234</ele>
        <time>2010-11-07T07:54:28Z</time>
      </trkpt>
      <trkpt lat="48.94843" lon="-0.2546">
        <ele>164.0421143</ele>
        <time>2010-11-07T07:54:32Z</time>
      </trkpt>
      <trkpt lat="48.94834" lon="-0.25507">
        <ele>165.003418</ele>
        <time>2010-11-07T07:54:39Z</time>
      </trkpt>
      <trkpt lat="48.94829" lon="-0.25536">
        <ele>165.9647217</ele>
        <time>2010-11-07T07:54:43Z</time>
      </trkpt>
      <trkpt lat="48.94817" lon="-0.25592">
        <ele>166.9260254</ele>
        <time>2010-11-07T07:54:51Z</time>
      </trkpt>
      <trkpt lat="48.94803" lon="-0.25663">
        <ele>167.4067383</ele>
        <time>2010-11-07T07:55:01Z</time>
      </trkpt>
      <trkpt lat="48.94802" lon="-0.25669">
        <ele>167.8873291</ele>
        <time>2010-11-07T07:55:02Z</time>
      </trkpt>
      <trkpt lat="48.9479" lon="-0.25728">
        <ele>168.8487549</ele>
        <time>2010-11-07T07:55:11Z</time>
      </trkpt>
      <trkpt lat="48.94783" lon="-0.25765">
        <ele>169.3294678</ele>
        <time>2010-11-07T07:55:17Z</time>
      </trkpt>
      <trkpt lat="48.9477" lon="-0.25824">
        <ele>169.3294678</ele>
        <time>2010-11-07T07:55:26Z</time>
      </trkpt>
      <trkpt lat="48.94755" lon="-0.259">
        <ele>169.8100586</ele>
        <time>2010-11-07T07:55:37Z</time>
      </trkpt>
      <trkpt lat="48.9474" lon="-0.25973">
        <ele>171.2520752</ele>
        <time>2010-11-07T07:55:48Z</time>
      </trkpt>
      <trkpt lat="48.94725" lon="-0.26037">
        <ele>172.2132568</ele>
        <time>2010-11-07T07:55:59Z</time>
      </trkpt>
      <trkpt lat="48.94724" lon="-0.2606">
        <ele>172.2132568</ele>
        <time>2010-11-07T07:56:04Z</time>
      </trkpt>
      <trkpt lat="48.94725" lon="-0.26064">
        <ele>172.2132568</ele>
        <time>2010-11-07T07:56:05Z</time>
      </trkpt>
      <trkpt lat="48.94749" lon="-0.26069">
        <ele>172.2132568</ele>
        <time>2010-11-07T07:56:11Z</time>
      </trkpt>
      <trkpt lat="48.94787" lon="-0.26066">
        <ele>173.6552734</ele>
        <time>2010-11-07T07:56:20Z</time>
      </trkpt>
      <trkpt lat="48.948" lon="-0.26077">
        <ele>174.6165771</ele>
        <time>2010-11-07T07:56:24Z</time>
      </trkpt>
      <trkpt lat="48.94803" lon="-0.26097">
        <ele>175.5778809</ele>
        <time>2010-11-07T07:56:28Z</time>
      </trkpt>
      <trkpt lat="48.94809" lon="-0.26148">
        <ele>176.0585938</ele>
        <time>2010-11-07T07:56:37Z</time>
      </trkpt>
      <trkpt lat="48.94815" lon="-0.26209">
        <ele>176.5393066</ele>
        <time>2010-11-07T07:56:47Z</time>
      </trkpt>
      <trkpt lat="48.94818" lon="-0.26245">
        <ele>177.0200195</ele>
        <time>2010-11-07T07:56:53Z</time>
      </trkpt>
      <trkpt lat="48.94823" lon="-0.26296">
        <ele>178.4619141</ele>
        <time>2010-11-07T07:57:01Z</time>
      </trkpt>
      <trkpt lat="48.94829" lon="-0.26344">
        <ele>178.4619141</ele>
        <time>2010-11-07T07:57:09Z</time>
      </trkpt>
      <trkpt lat="48.94835" lon="-0.26402">
        <ele>178.942627</ele>
        <time>2010-11-07T07:57:18Z</time>
      </trkpt>
      <trkpt lat="48.94843" lon="-0.26474">
        <ele>177.9812012</ele>
        <time>2010-11-07T07:57:28Z</time>
      </trkpt>
      <trkpt lat="48.9485" lon="-0.26541">
        <ele>177.5006104</ele>
        <time>2010-11-07T07:57:37Z</time>
      </trkpt>
      <trkpt lat="48.94857" lon="-0.26603">
        <ele>177.0200195</ele>
        <time>2010-11-07T07:57:45Z</time>
      </trkpt>
      <trkpt lat="48.94862" lon="-0.26656">
        <ele>176.5393066</ele>
        <time>2010-11-07T07:57:52Z</time>
      </trkpt>
      <trkpt lat="48.94866" lon="-0.26704">
        <ele>176.0585938</ele>
        <time>2010-11-07T07:57:59Z</time>
      </trkpt>
      <trkpt lat="48.9486" lon="-0.26718">
        <ele>176.0585938</ele>
        <time>2010-11-07T07:58:02Z</time>
      </trkpt>
      <trkpt lat="48.94844" lon="-0.26736">
        <ele>176.0585938</ele>
        <time>2010-11-07T07:58:08Z</time>
      </trkpt>
      <trkpt lat="48.94821" lon="-0.26757">
        <ele>175.5778809</ele>
        <time>2010-11-07T07:58:16Z</time>
      </trkpt>
      <trkpt lat="48.9479" lon="-0.2678">
        <ele>175.5778809</ele>
        <time>2010-11-07T07:58:25Z</time>
      </trkpt>
      <trkpt lat="48.94757" lon="-0.26808">
        <ele>176.0585938</ele>
        <time>2010-11-07T07:58:35Z</time>
      </trkpt>
      <trkpt lat="48.94735" lon="-0.26824">
        <ele>175.09729</ele>
        <time>2010-11-07T07:58:43Z</time>
      </trkpt>
      <trkpt lat="48.94717" lon="-0.26841">
        <ele>174.6165771</ele>
        <time>2010-11-07T07:58:50Z</time>
      </trkpt>
      <trkpt lat="48.94692" lon="-0.26862">
        <ele>174.6165771</ele>
        <time>2010-11-07T07:58:59Z</time>
      </trkpt>
      <trkpt lat="48.94662" lon="-0.26888">
        <ele>174.6165771</ele>
        <time>2010-11-07T07:59:10Z</time>
      </trkpt>
      <trkpt lat="48.94639" lon="-0.26906">
        <ele>175.5778809</ele>
        <time>2010-11-07T07:59:19Z</time>
      </trkpt>
      <trkpt lat="48.94623" lon="-0.26916">
        <ele>175.09729</ele>
        <time>2010-11-07T07:59:27Z</time>
      </trkpt>
      <trkpt lat="48.94607" lon="-0.26923">
        <ele>175.09729</ele>
        <time>2010-11-07T07:59:36Z</time>
      </trkpt>
      <trkpt lat="48.94599" lon="-0.26926">
        <ele>175.5778809</ele>
        <time>2010-11-07T07:59:42Z</time>
      </trkpt>
      <trkpt lat="48.94583" lon="-0.26936">
        <ele>176.0585938</ele>
        <time>2010-11-07T07:59:49Z</time>
      </trkpt>
      <trkpt lat="48.94563" lon="-0.26946">
        <ele>176.0585938</ele>
        <time>2010-11-07T07:59:56Z</time>
      </trkpt>
      <trkpt lat="48.94537" lon="-0.26963">
        <ele>176.0585938</ele>
        <time>2010-11-07T08:00:06Z</time>
      </trkpt>
      <trkpt lat="48.94522" lon="-0.26975">
        <ele>176.5393066</ele>
        <time>2010-11-07T08:00:13Z</time>
      </trkpt>
      <trkpt lat="48.94519" lon="-0.2698">
        <ele>176.5393066</ele>
        <time>2010-11-07T08:00:15Z</time>
      </trkpt>
      <trkpt lat="48.94511" lon="-0.26996">
        <ele>176.5393066</ele>
        <time>2010-11-07T08:00:21Z</time>
      </trkpt>
      <trkpt lat="48.94503" lon="-0.27002">
        <ele>176.0585938</ele>
        <time>2010-11-07T08:00:24Z</time>
      </trkpt>
      <trkpt lat="48.94475" lon="-0.27013">
        <ele>176.0585938</ele>
        <time>2010-11-07T08:00:34Z</time>
      </trkpt>
      <trkpt lat="48.94453" lon="-0.27023">
        <ele>176.5393066</ele>
        <time>2010-11-07T08:00:43Z</time>
      </trkpt>
      <trkpt lat="48.94431" lon="-0.27033">
        <ele>176.5393066</ele>
        <time>2010-11-07T08:00:51Z</time>
      </trkpt>
      <trkpt lat="48.944" lon="-0.27046">
        <ele>177.0200195</ele>
        <time>2010-11-07T08:01:01Z</time>
      </trkpt>
      <trkpt lat="48.94374" lon="-0.27058">
        <ele>177.5006104</ele>
        <time>2010-11-07T08:01:09Z</time>
      </trkpt>
      <trkpt lat="48.94343" lon="-0.27072">
        <ele>177.9812012</ele>
        <time>2010-11-07T08:01:18Z</time>
      </trkpt>
      <trkpt lat="48.94307" lon="-0.27089">
        <ele>178.4619141</ele>
        <time>2010-11-07T08:01:28Z</time>
      </trkpt>
      <trkpt lat="48.94282" lon="-0.27099">
        <ele>179.4232178</ele>
        <time>2010-11-07T08:01:36Z</time>
      </trkpt>
      <trkpt lat="48.94258" lon="-0.2711">
        <ele>179.9038086</ele>
        <time>2010-11-07T08:01:44Z</time>
      </trkpt>
      <trkpt lat="48.94227" lon="-0.27124">
        <ele>179.4232178</ele>
        <time>2010-11-07T08:01:54Z</time>
      </trkpt>
      <trkpt lat="48.94201" lon="-0.27137">
        <ele>179.9038086</ele>
        <time>2010-11-07T08:02:03Z</time>
      </trkpt>
      <trkpt lat="48.94173" lon="-0.2715">
        <ele>179.9038086</ele>
        <time>2010-11-07T08:02:12Z</time>
      </trkpt>
      <trkpt lat="48.94146" lon="-0.27162">
        <ele>180.3845215</ele>
        <time>2010-11-07T08:02:21Z</time>
      </trkpt>
      <trkpt lat="48.94117" lon="-0.27176">
        <ele>180.3845215</ele>
        <time>2010-11-07T08:02:31Z</time>
      </trkpt>
      <trkpt lat="48.94095" lon="-0.27186">
        <ele>180.3845215</ele>
        <time>2010-11-07T08:02:39Z</time>
      </trkpt>
      <trkpt lat="48.9407" lon="-0.27197">
        <ele>180.8652344</ele>
        <time>2010-11-07T08:02:48Z</time>
      </trkpt>
      <trkpt lat="48.94053" lon="-0.27206">
        <ele>181.826416</ele>
        <time>2010-11-07T08:02:55Z</time>
      </trkpt>
      <trkpt lat="48.94043" lon="-0.27196">
        <ele>181.826416</ele>
        <time>2010-11-07T08:03:00Z</time>
      </trkpt>
      <trkpt lat="48.94024" lon="-0.27171">
        <ele>180.8652344</ele>
        <time>2010-11-07T08:03:08Z</time>
      </trkpt>
      <trkpt lat="48.94" lon="-0.27141">
        <ele>180.8652344</ele>
        <time>2010-11-07T08:03:16Z</time>
      </trkpt>
      <trkpt lat="48.93974" lon="-0.27109">
        <ele>180.8652344</ele>
        <time>2010-11-07T08:03:23Z</time>
      </trkpt>
      <trkpt lat="48.93945" lon="-0.27073">
        <ele>180.8652344</ele>
        <time>2010-11-07T08:03:30Z</time>
      </trkpt>
      <trkpt lat="48.9392" lon="-0.27041">
        <ele>180.8652344</ele>
        <time>2010-11-07T08:03:37Z</time>
      </trkpt>
      <trkpt lat="48.93892" lon="-0.27003">
        <ele>180.8652344</ele>
        <time>2010-11-07T08:03:46Z</time>
      </trkpt>
      <trkpt lat="48.93862" lon="-0.26964">
        <ele>180.8652344</ele>
        <time>2010-11-07T08:03:56Z</time>
      </trkpt>
      <trkpt lat="48.93825" lon="-0.26917">
        <ele>180.3845215</ele>
        <time>2010-11-07T08:04:07Z</time>
      </trkpt>
      <trkpt lat="48.93805" lon="-0.26904">
        <ele>180.8652344</ele>
        <time>2010-11-07T08:04:12Z</time>
      </trkpt>
      <trkpt lat="48.93797" lon="-0.26906">
        <ele>180.8652344</ele>
        <time>2010-11-07T08:04:14Z</time>
      </trkpt>
      <trkpt lat="48.93777" lon="-0.26912">
        <ele>180.3845215</ele>
        <time>2010-11-07T08:04:20Z</time>
      </trkpt>
      <trkpt lat="48.9377" lon="-0.26893">
        <ele>179.4232178</ele>
        <time>2010-11-07T08:04:25Z</time>
      </trkpt>
      <trkpt lat="48.93771" lon="-0.26874">
        <ele>179.4232178</ele>
        <time>2010-11-07T08:04:28Z</time>
      </trkpt>
      <trkpt lat="48.93771" lon="-0.26813">
        <ele>177.9812012</ele>
        <time>2010-11-07T08:04:36Z</time>
      </trkpt>
      <trkpt lat="48.93768" lon="-0.26743">
        <ele>176.0585938</ele>
        <time>2010-11-07T08:04:44Z</time>
      </trkpt>
      <trkpt lat="48.93766" lon="-0.26663">
        <ele>174.6165771</ele>
        <time>2010-11-07T08:04:52Z</time>
      </trkpt>
      <trkpt lat="48.93758" lon="-0.26581">
        <ele>173.6552734</ele>
        <time>2010-11-07T08:05:00Z</time>
      </trkpt>
      <trkpt lat="48.93755" lon="-0.26549">
        <ele>172.6939697</ele>
        <time>2010-11-07T08:05:04Z</time>
      </trkpt>
      <trkpt lat="48.93748" lon="-0.2653">
        <ele>173.1746826</ele>
        <time>2010-11-07T08:05:08Z</time>
      </trkpt>
      <trkpt lat="48.93726" lon="-0.26509">
        <ele>173.1746826</ele>
        <time>2010-11-07T08:05:14Z</time>
      </trkpt>
      <trkpt lat="48.93699" lon="-0.26481">
        <ele>172.2132568</ele>
        <time>2010-11-07T08:05:20Z</time>
      </trkpt>
      <trkpt lat="48.93654" lon="-0.2644">
        <ele>171.2520752</ele>
        <time>2010-11-07T08:05:29Z</time>
      </trkpt>
      <trkpt lat="48.93618" lon="-0.26406">
        <ele>169.3294678</ele>
        <time>2010-11-07T08:05:36Z</time>
      </trkpt>
      <trkpt lat="48.93571" lon="-0.26361">
        <ele>168.8487549</ele>
        <time>2010-11-07T08:05:45Z</time>
      </trkpt>
      <trkpt lat="48.93557" lon="-0.26358">
        <ele>168.368042</ele>
        <time>2010-11-07T08:05:48Z</time>
      </trkpt>
      <trkpt lat="48.93551" lon="-0.26374">
        <ele>168.368042</ele>
        <time>2010-11-07T08:05:51Z</time>
      </trkpt>
      <trkpt lat="48.9355" lon="-0.2638">
        <ele>168.8487549</ele>
        <time>2010-11-07T08:05:52Z</time>
      </trkpt>
      <trkpt lat="48.93546" lon="-0.26402">
        <ele>168.368042</ele>
        <time>2010-11-07T08:05:55Z</time>
      </trkpt>
      <trkpt lat="48.93536" lon="-0.26453">
        <ele>169.3294678</ele>
        <time>2010-11-07T08:06:02Z</time>
      </trkpt>
      <trkpt lat="48.93528" lon="-0.26498">
        <ele>169.8100586</ele>
        <time>2010-11-07T08:06:09Z</time>
      </trkpt>
      <trkpt lat="48.93517" lon="-0.26552">
        <ele>170.2906494</ele>
        <time>2010-11-07T08:06:18Z</time>
      </trkpt>
      <trkpt lat="48.93507" lon="-0.26605">
        <ele>170.7713623</ele>
        <time>2010-11-07T08:06:27Z</time>
      </trkpt>
      <trkpt lat="48.93492" lon="-0.26676">
        <ele>171.732666</ele>
        <time>2010-11-07T08:06:39Z</time>
      </trkpt>
      <trkpt lat="48.93482" lon="-0.26724">
        <ele>172.2132568</ele>
        <time>2010-11-07T08:06:48Z</time>
      </trkpt>
      <trkpt lat="48.93469" lon="-0.26786">
        <ele>173.1746826</ele>
        <time>2010-11-07T08:07:00Z</time>
      </trkpt>
      <trkpt lat="48.93468" lon="-0.26791">
        <ele>173.6552734</ele>
        <time>2010-11-07T08:07:01Z</time>
      </trkpt>
      <trkpt lat="48.9346" lon="-0.26832">
        <ele>173.1746826</ele>
        <time>2010-11-07T08:07:10Z</time>
      </trkpt>
      <trkpt lat="48.93449" lon="-0.26883">
        <ele>174.1358643</ele>
        <time>2010-11-07T08:07:21Z</time>
      </trkpt>
      <trkpt lat="48.93441" lon="-0.26927">
        <ele>175.09729</ele>
        <time>2010-11-07T08:07:30Z</time>
      </trkpt>
      <trkpt lat="48.93429" lon="-0.26988">
        <ele>175.5778809</ele>
        <time>2010-11-07T08:07:42Z</time>
      </trkpt>
      <trkpt lat="48.93419" lon="-0.27039">
        <ele>175.5778809</ele>
        <time>2010-11-07T08:07:52Z</time>
      </trkpt>
      <trkpt lat="48.93407" lon="-0.27094">
        <ele>176.0585938</ele>
        <time>2010-11-07T08:08:02Z</time>
      </trkpt>
      <trkpt lat="48.93396" lon="-0.27146">
        <ele>177.5006104</ele>
        <time>2010-11-07T08:08:11Z</time>
      </trkpt>
      <trkpt lat="48.93383" lon="-0.27206">
        <ele>178.4619141</ele>
        <time>2010-11-07T08:08:22Z</time>
      </trkpt>
      <trkpt lat="48.9337" lon="-0.27272">
        <ele>179.4232178</ele>
        <time>2010-11-07T08:08:34Z</time>
      </trkpt>
      <trkpt lat="48.9336" lon="-0.2732">
        <ele>179.9038086</ele>
        <time>2010-11-07T08:08:43Z</time>
      </trkpt>
      <trkpt lat="48.9335" lon="-0.27369">
        <ele>179.9038086</ele>
        <time>2010-11-07T08:08:52Z</time>
      </trkpt>
      <trkpt lat="48.9334" lon="-0.27417">
        <ele>180.3845215</ele>
        <time>2010-11-07T08:09:01Z</time>
      </trkpt>
      <trkpt lat="48.93328" lon="-0.27448">
        <ele>180.8652344</ele>
        <time>2010-11-07T08:09:07Z</time>
      </trkpt>
      <trkpt lat="48.93311" lon="-0.27494">
        <ele>181.826416</ele>
        <time>2010-11-07T08:09:16Z</time>
      </trkpt>
      <trkpt lat="48.93288" lon="-0.27552">
        <ele>182.3071289</ele>
        <time>2010-11-07T08:09:27Z</time>
      </trkpt>
      <trkpt lat="48.9326" lon="-0.27622">
        <ele>182.7878418</ele>
        <time>2010-11-07T08:09:40Z</time>
      </trkpt>
      <trkpt lat="48.93237" lon="-0.27683">
        <ele>183.2684326</ele>
        <time>2010-11-07T08:09:51Z</time>
      </trkpt>
      <trkpt lat="48.9322" lon="-0.2772">
        <ele>183.7490234</ele>
        <time>2010-11-07T08:09:58Z</time>
      </trkpt>
      <trkpt lat="48.93201" lon="-0.27771">
        <ele>184.2298584</ele>
        <time>2010-11-07T08:10:07Z</time>
      </trkpt>
      <trkpt lat="48.93182" lon="-0.27829">
        <ele>185.1911621</ele>
        <time>2010-11-07T08:10:17Z</time>
      </trkpt>
      <trkpt lat="48.93166" lon="-0.27883">
        <ele>183.7490234</ele>
        <time>2010-11-07T08:10:26Z</time>
      </trkpt>
      <trkpt lat="48.93151" lon="-0.27934">
        <ele>183.2684326</ele>
        <time>2010-11-07T08:10:36Z</time>
      </trkpt>
      <trkpt lat="48.93149" lon="-0.27938">
        <ele>183.7490234</ele>
        <time>2010-11-07T08:10:37Z</time>
      </trkpt>
      <trkpt lat="48.93138" lon="-0.27939">
        <ele>183.2684326</ele>
        <time>2010-11-07T08:10:41Z</time>
      </trkpt>
      <trkpt lat="48.93131" lon="-0.27935">
        <ele>182.7878418</ele>
        <time>2010-11-07T08:10:43Z</time>
      </trkpt>
      <trkpt lat="48.93105" lon="-0.27913">
        <ele>181.3458252</ele>
        <time>2010-11-07T08:10:50Z</time>
      </trkpt>
      <trkpt lat="48.93078" lon="-0.2789">
        <ele>181.3458252</ele>
        <time>2010-11-07T08:10:57Z</time>
      </trkpt>
      <trkpt lat="48.93042" lon="-0.27859">
        <ele>179.4232178</ele>
        <time>2010-11-07T08:11:05Z</time>
      </trkpt>
      <trkpt lat="48.93002" lon="-0.27821">
        <ele>177.5006104</ele>
        <time>2010-11-07T08:11:13Z</time>
      </trkpt>
      <trkpt lat="48.92959" lon="-0.27782">
        <ele>175.5778809</ele>
        <time>2010-11-07T08:11:21Z</time>
      </trkpt>
      <trkpt lat="48.92939" lon="-0.27763">
        <ele>174.1358643</ele>
        <time>2010-11-07T08:11:25Z</time>
      </trkpt>
      <trkpt lat="48.92926" lon="-0.2775">
        <ele>173.6552734</ele>
        <time>2010-11-07T08:11:28Z</time>
      </trkpt>
      <trkpt lat="48.92909" lon="-0.27749">
        <ele>172.6939697</ele>
        <time>2010-11-07T08:11:32Z</time>
      </trkpt>
      <trkpt lat="48.92906" lon="-0.27754">
        <ele>172.6939697</ele>
        <time>2010-11-07T08:11:33Z</time>
      </trkpt>
      <trkpt lat="48.92884" lon="-0.27791">
        <ele>173.6552734</ele>
        <time>2010-11-07T08:11:40Z</time>
      </trkpt>
      <trkpt lat="48.92875" lon="-0.27807">
        <ele>172.6939697</ele>
        <time>2010-11-07T08:11:43Z</time>
      </trkpt>
      <trkpt lat="48.92863" lon="-0.27822">
        <ele>172.6939697</ele>
        <time>2010-11-07T08:11:47Z</time>
      </trkpt>
      <trkpt lat="48.92859" lon="-0.27821">
        <ele>172.6939697</ele>
        <time>2010-11-07T08:11:48Z</time>
      </trkpt>
      <trkpt lat="48.9283" lon="-0.27807">
        <ele>172.6939697</ele>
        <time>2010-11-07T08:11:57Z</time>
      </trkpt>
      <trkpt lat="48.92813" lon="-0.27801">
        <ele>173.1746826</ele>
        <time>2010-11-07T08:12:03Z</time>
      </trkpt>
      <trkpt lat="48.92811" lon="-0.278">
        <ele>172.6939697</ele>
        <time>2010-11-07T08:12:06Z</time>
      </trkpt>
      <trkpt lat="48.9281" lon="-0.27801">
        <ele>173.1746826</ele>
        <time>2010-11-07T08:13:55Z</time>
      </trkpt>
      <trkpt lat="48.92804" lon="-0.27798">
        <ele>173.6552734</ele>
        <time>2010-11-07T08:13:59Z</time>
      </trkpt>
      <trkpt lat="48.92797" lon="-0.27794">
        <ele>173.1746826</ele>
        <time>2010-11-07T08:14:02Z</time>
      </trkpt>
      <trkpt lat="48.9279" lon="-0.2779">
        <ele>173.6552734</ele>
        <time>2010-11-07T08:14:05Z</time>
      </trkpt>
      <trkpt lat="48.92788" lon="-0.27788">
        <ele>174.1358643</ele>
        <time>2010-11-07T08:14:06Z</time>
      </trkpt>
      <trkpt lat="48.92762" lon="-0.27767">
        <ele>174.6165771</ele>
        <time>2010-11-07T08:14:15Z</time>
      </trkpt>
      <trkpt lat="48.92743" lon="-0.27743">
        <ele>174.6165771</ele>
        <time>2010-11-07T08:14:22Z</time>
      </trkpt>
      <trkpt lat="48.92726" lon="-0.27704">
        <ele>174.6165771</ele>
        <time>2010-11-07T08:14:30Z</time>
      </trkpt>
      <trkpt lat="48.92711" lon="-0.27668">
        <ele>174.1358643</ele>
        <time>2010-11-07T08:14:37Z</time>
      </trkpt>
      <trkpt lat="48.92706" lon="-0.27656">
        <ele>174.6165771</ele>
        <time>2010-11-07T08:14:39Z</time>
      </trkpt>
      <trkpt lat="48.92689" lon="-0.27624">
        <ele>175.09729</ele>
        <time>2010-11-07T08:14:46Z</time>
      </trkpt>
      <trkpt lat="48.92661" lon="-0.2758">
        <ele>176.0585938</ele>
        <time>2010-11-07T08:14:56Z</time>
      </trkpt>
      <trkpt lat="48.92642" lon="-0.27553">
        <ele>177.0200195</ele>
        <time>2010-11-07T08:15:03Z</time>
      </trkpt>
      <trkpt lat="48.92612" lon="-0.27511">
        <ele>177.5006104</ele>
        <time>2010-11-07T08:15:13Z</time>
      </trkpt>
      <trkpt lat="48.9258" lon="-0.27461">
        <ele>177.9812012</ele>
        <time>2010-11-07T08:15:24Z</time>
      </trkpt>
      <trkpt lat="48.92555" lon="-0.27421">
        <ele>179.4232178</ele>
        <time>2010-11-07T08:15:33Z</time>
      </trkpt>
      <trkpt lat="48.9253" lon="-0.27382">
        <ele>180.3845215</ele>
        <time>2010-11-07T08:15:42Z</time>
      </trkpt>
      <trkpt lat="48.92508" lon="-0.27347">
        <ele>180.8652344</ele>
        <time>2010-11-07T08:15:50Z</time>
      </trkpt>
      <trkpt lat="48.92486" lon="-0.27312">
        <ele>181.3458252</ele>
        <time>2010-11-07T08:15:58Z</time>
      </trkpt>
      <trkpt lat="48.92471" lon="-0.27296">
        <ele>181.826416</ele>
        <time>2010-11-07T08:16:04Z</time>
      </trkpt>
      <trkpt lat="48.92453" lon="-0.27302">
        <ele>181.826416</ele>
        <time>2010-11-07T08:16:09Z</time>
      </trkpt>
      <trkpt lat="48.92431" lon="-0.2731">
        <ele>183.2684326</ele>
        <time>2010-11-07T08:16:16Z</time>
      </trkpt>
      <trkpt lat="48.92416" lon="-0.27315">
        <ele>184.2298584</ele>
        <time>2010-11-07T08:16:22Z</time>
      </trkpt>
      <trkpt lat="48.92386" lon="-0.27326">
        <ele>186.1524658</ele>
        <time>2010-11-07T08:16:33Z</time>
      </trkpt>
      <trkpt lat="48.92361" lon="-0.27334">
        <ele>187.5943604</ele>
        <time>2010-11-07T08:16:42Z</time>
      </trkpt>
      <trkpt lat="48.92341" lon="-0.27342">
        <ele>189.036377</ele>
        <time>2010-11-07T08:16:50Z</time>
      </trkpt>
      <trkpt lat="48.92323" lon="-0.27348">
        <ele>190.9589844</ele>
        <time>2010-11-07T08:16:57Z</time>
      </trkpt>
      <trkpt lat="48.92311" lon="-0.27351">
        <ele>191.9202881</ele>
        <time>2010-11-07T08:17:02Z</time>
      </trkpt>
      <trkpt lat="48.92291" lon="-0.27358">
        <ele>194.3237305</ele>
        <time>2010-11-07T08:17:10Z</time>
      </trkpt>
      <trkpt lat="48.92272" lon="-0.27362">
        <ele>196.2463379</ele>
        <time>2010-11-07T08:17:18Z</time>
      </trkpt>
      <trkpt lat="48.92255" lon="-0.27368">
        <ele>197.6882324</ele>
        <time>2010-11-07T08:17:26Z</time>
      </trkpt>
      <trkpt lat="48.92238" lon="-0.27374">
        <ele>199.6108398</ele>
        <time>2010-11-07T08:17:34Z</time>
      </trkpt>
      <trkpt lat="48.92224" lon="-0.27379">
        <ele>201.0528564</ele>
        <time>2010-11-07T08:17:41Z</time>
      </trkpt>
      <trkpt lat="48.9221" lon="-0.27382">
        <ele>202.494873</ele>
        <time>2010-11-07T08:17:48Z</time>
      </trkpt>
      <trkpt lat="48.92186" lon="-0.27387">
        <ele>204.4174805</ele>
        <time>2010-11-07T08:17:58Z</time>
      </trkpt>
      <trkpt lat="48.92168" lon="-0.2739">
        <ele>205.8594971</ele>
        <time>2010-11-07T08:18:06Z</time>
      </trkpt>
      <trkpt lat="48.92155" lon="-0.27383">
        <ele>206.3400879</ele>
        <time>2010-11-07T08:18:12Z</time>
      </trkpt>
      <trkpt lat="48.92142" lon="-0.27372">
        <ele>207.3013916</ele>
        <time>2010-11-07T08:18:18Z</time>
      </trkpt>
      <trkpt lat="48.92133" lon="-0.27365">
        <ele>207.7821045</ele>
        <time>2010-11-07T08:18:23Z</time>
      </trkpt>
      <trkpt lat="48.92123" lon="-0.27354">
        <ele>208.7434082</ele>
        <time>2010-11-07T08:18:29Z</time>
      </trkpt>
      <trkpt lat="48.92115" lon="-0.27341">
        <ele>209.704834</ele>
        <time>2010-11-07T08:18:35Z</time>
      </trkpt>
      <trkpt lat="48.92104" lon="-0.27331">
        <ele>211.1467285</ele>
        <time>2010-11-07T08:18:41Z</time>
      </trkpt>
      <trkpt lat="48.92093" lon="-0.2732">
        <ele>212.1080322</ele>
        <time>2010-11-07T08:18:48Z</time>
      </trkpt>
      <trkpt lat="48.92082" lon="-0.2731">
        <ele>213.5500488</ele>
        <time>2010-11-07T08:18:54Z</time>
      </trkpt>
      <trkpt lat="48.92073" lon="-0.27303">
        <ele>214.5112305</ele>
        <time>2010-11-07T08:19:00Z</time>
      </trkpt>
      <trkpt lat="48.92063" lon="-0.2729">
        <ele>215.4726563</ele>
        <time>2010-11-07T08:19:06Z</time>
      </trkpt>
      <trkpt lat="48.92053" lon="-0.27275">
        <ele>215.9532471</ele>
        <time>2010-11-07T08:19:12Z</time>
      </trkpt>
      <trkpt lat="48.92043" lon="-0.27261">
        <ele>216.43396</ele>
        <time>2010-11-07T08:19:18Z</time>
      </trkpt>
      <trkpt lat="48.92032" lon="-0.27247">
        <ele>216.9146729</ele>
        <time>2010-11-07T08:19:25Z</time>
      </trkpt>
      <trkpt lat="48.92024" lon="-0.27237">
        <ele>217.8759766</ele>
        <time>2010-11-07T08:19:30Z</time>
      </trkpt>
      <trkpt lat="48.92008" lon="-0.27222">
        <ele>218.3565674</ele>
        <time>2010-11-07T08:19:37Z</time>
      </trkpt>
      <trkpt lat="48.91994" lon="-0.27208">
        <ele>218.8372803</ele>
        <time>2010-11-07T08:19:43Z</time>
      </trkpt>
      <trkpt lat="48.91981" lon="-0.2719">
        <ele>219.3179932</ele>
        <time>2010-11-07T08:19:50Z</time>
      </trkpt>
      <trkpt lat="48.9197" lon="-0.27175">
        <ele>219.798584</ele>
        <time>2010-11-07T08:19:56Z</time>
      </trkpt>
      <trkpt lat="48.91954" lon="-0.27152">
        <ele>220.2791748</ele>
        <time>2010-11-07T08:20:03Z</time>
      </trkpt>
      <trkpt lat="48.9194" lon="-0.27131">
        <ele>221.2406006</ele>
        <time>2010-11-07T08:20:09Z</time>
      </trkpt>
      <trkpt lat="48.91929" lon="-0.27119">
        <ele>222.2017822</ele>
        <time>2010-11-07T08:20:14Z</time>
      </trkpt>
      <trkpt lat="48.91914" lon="-0.27096">
        <ele>222.6824951</ele>
        <time>2010-11-07T08:20:20Z</time>
      </trkpt>
      <trkpt lat="48.91896" lon="-0.27067">
        <ele>222.6824951</ele>
        <time>2010-11-07T08:20:26Z</time>
      </trkpt>
      <trkpt lat="48.91882" lon="-0.27041">
        <ele>222.2017822</ele>
        <time>2010-11-07T08:20:32Z</time>
      </trkpt>
      <trkpt lat="48.91865" lon="-0.27016">
        <ele>222.2017822</ele>
        <time>2010-11-07T08:20:38Z</time>
      </trkpt>
      <trkpt lat="48.91848" lon="-0.26987">
        <ele>222.6824951</ele>
        <time>2010-11-07T08:20:44Z</time>
      </trkpt>
      <trkpt lat="48.91836" lon="-0.26961">
        <ele>223.163208</ele>
        <time>2010-11-07T08:20:50Z</time>
      </trkpt>
      <trkpt lat="48.91824" lon="-0.26938">
        <ele>223.6437988</ele>
        <time>2010-11-07T08:20:55Z</time>
      </trkpt>
      <trkpt lat="48.91808" lon="-0.26909">
        <ele>224.1245117</ele>
        <time>2010-11-07T08:21:01Z</time>
      </trkpt>
      <trkpt lat="48.91793" lon="-0.26882">
        <ele>224.6052246</ele>
        <time>2010-11-07T08:21:07Z</time>
      </trkpt>
      <trkpt lat="48.91772" lon="-0.26846">
        <ele>225.0859375</ele>
        <time>2010-11-07T08:21:15Z</time>
      </trkpt>
      <trkpt lat="48.91756" lon="-0.26816">
        <ele>225.0859375</ele>
        <time>2010-11-07T08:21:22Z</time>
      </trkpt>
      <trkpt lat="48.91743" lon="-0.26795">
        <ele>226.0471191</ele>
        <time>2010-11-07T08:21:27Z</time>
      </trkpt>
      <trkpt lat="48.91729" lon="-0.26772">
        <ele>226.527832</ele>
        <time>2010-11-07T08:21:33Z</time>
      </trkpt>
      <trkpt lat="48.91719" lon="-0.26751">
        <ele>226.0471191</ele>
        <time>2010-11-07T08:21:38Z</time>
      </trkpt>
      <trkpt lat="48.91703" lon="-0.26722">
        <ele>226.0471191</ele>
        <time>2010-11-07T08:21:44Z</time>
      </trkpt>
      <trkpt lat="48.91691" lon="-0.267">
        <ele>226.0471191</ele>
        <time>2010-11-07T08:21:49Z</time>
      </trkpt>
      <trkpt lat="48.91681" lon="-0.26673">
        <ele>227.0085449</ele>
        <time>2010-11-07T08:21:55Z</time>
      </trkpt>
      <trkpt lat="48.91668" lon="-0.26651">
        <ele>227.4891357</ele>
        <time>2010-11-07T08:22:01Z</time>
      </trkpt>
      <trkpt lat="48.91657" lon="-0.26628">
        <ele>228.9311523</ele>
        <time>2010-11-07T08:22:08Z</time>
      </trkpt>
      <trkpt lat="48.91643" lon="-0.26598">
        <ele>230.3730469</ele>
        <time>2010-11-07T08:22:17Z</time>
      </trkpt>
      <trkpt lat="48.91633" lon="-0.2658">
        <ele>230.3730469</ele>
        <time>2010-11-07T08:22:23Z</time>
      </trkpt>
      <trkpt lat="48.91621" lon="-0.26559">
        <ele>231.3343506</ele>
        <time>2010-11-07T08:22:29Z</time>
      </trkpt>
      <trkpt lat="48.9161" lon="-0.26537">
        <ele>231.8149414</ele>
        <time>2010-11-07T08:22:35Z</time>
      </trkpt>
      <trkpt lat="48.91596" lon="-0.26503">
        <ele>232.2957764</ele>
        <time>2010-11-07T08:22:43Z</time>
      </trkpt>
      <trkpt lat="48.91581" lon="-0.2647">
        <ele>232.7764893</ele>
        <time>2010-11-07T08:22:51Z</time>
      </trkpt>
      <trkpt lat="48.91565" lon="-0.26442">
        <ele>233.7376709</ele>
        <time>2010-11-07T08:22:58Z</time>
      </trkpt>
      <trkpt lat="48.91545" lon="-0.26418">
        <ele>233.7376709</ele>
        <time>2010-11-07T08:23:05Z</time>
      </trkpt>
      <trkpt lat="48.91521" lon="-0.26388">
        <ele>232.7764893</ele>
        <time>2010-11-07T08:23:13Z</time>
      </trkpt>
      <trkpt lat="48.91512" lon="-0.26369">
        <ele>232.7764893</ele>
        <time>2010-11-07T08:23:17Z</time>
      </trkpt>
      <trkpt lat="48.91504" lon="-0.26354">
        <ele>232.2957764</ele>
        <time>2010-11-07T08:23:20Z</time>
      </trkpt>
      <trkpt lat="48.91488" lon="-0.26314">
        <ele>231.8149414</ele>
        <time>2010-11-07T08:23:27Z</time>
      </trkpt>
      <trkpt lat="48.91486" lon="-0.26309">
        <ele>231.8149414</ele>
        <time>2010-11-07T08:23:28Z</time>
      </trkpt>
      <trkpt lat="48.91474" lon="-0.26283">
        <ele>230.8537598</ele>
        <time>2010-11-07T08:23:33Z</time>
      </trkpt>
      <trkpt lat="48.9147" lon="-0.26271">
        <ele>230.8537598</ele>
        <time>2010-11-07T08:23:35Z</time>
      </trkpt>
      <trkpt lat="48.91467" lon="-0.2624">
        <ele>230.3730469</ele>
        <time>2010-11-07T08:23:40Z</time>
      </trkpt>
      <trkpt lat="48.9146" lon="-0.26203">
        <ele>229.892334</ele>
        <time>2010-11-07T08:23:46Z</time>
      </trkpt>
      <trkpt lat="48.91459" lon="-0.2619">
        <ele>229.4117432</ele>
        <time>2010-11-07T08:23:50Z</time>
      </trkpt>
      <trkpt lat="48.91459" lon="-0.26189">
        <ele>229.4117432</ele>
        <time>2010-11-07T08:23:52Z</time>
      </trkpt>
      <trkpt lat="48.91462" lon="-0.26183">
        <ele>229.892334</ele>
        <time>2010-11-07T08:25:27Z</time>
      </trkpt>
      <trkpt lat="48.91462" lon="-0.26181">
        <ele>229.4117432</ele>
        <time>2010-11-07T08:25:28Z</time>
      </trkpt>
      <trkpt lat="48.9146" lon="-0.26171">
        <ele>228.9311523</ele>
        <time>2010-11-07T08:25:31Z</time>
      </trkpt>
      <trkpt lat="48.91467" lon="-0.2614">
        <ele>228.4504395</ele>
        <time>2010-11-07T08:25:37Z</time>
      </trkpt>
      <trkpt lat="48.91476" lon="-0.26108">
        <ele>226.527832</ele>
        <time>2010-11-07T08:25:43Z</time>
      </trkpt>
      <trkpt lat="48.91491" lon="-0.26072">
        <ele>224.6052246</ele>
        <time>2010-11-07T08:25:50Z</time>
      </trkpt>
      <trkpt lat="48.91492" lon="-0.26066">
        <ele>225.0859375</ele>
        <time>2010-11-07T08:25:51Z</time>
      </trkpt>
      <trkpt lat="48.91503" lon="-0.26013">
        <ele>222.2017822</ele>
        <time>2010-11-07T08:25:59Z</time>
      </trkpt>
      <trkpt lat="48.91505" lon="-0.25983">
        <ele>220.7598877</ele>
        <time>2010-11-07T08:26:03Z</time>
      </trkpt>
      <trkpt lat="48.91508" lon="-0.25932">
        <ele>219.3179932</ele>
        <time>2010-11-07T08:26:09Z</time>
      </trkpt>
      <trkpt lat="48.9151" lon="-0.25906">
        <ele>217.3953857</ele>
        <time>2010-11-07T08:26:12Z</time>
      </trkpt>
      <trkpt lat="48.91513" lon="-0.25843">
        <ele>215.4726563</ele>
        <time>2010-11-07T08:26:19Z</time>
      </trkpt>
      <trkpt lat="48.91518" lon="-0.25803">
        <ele>213.5500488</ele>
        <time>2010-11-07T08:26:24Z</time>
      </trkpt>
      <trkpt lat="48.91526" lon="-0.25754">
        <ele>211.1467285</ele>
        <time>2010-11-07T08:26:30Z</time>
      </trkpt>
      <trkpt lat="48.91532" lon="-0.25709">
        <ele>207.7821045</ele>
        <time>2010-11-07T08:26:35Z</time>
      </trkpt>
      <trkpt lat="48.91533" lon="-0.25692">
        <ele>205.8594971</ele>
        <time>2010-11-07T08:26:37Z</time>
      </trkpt>
      <trkpt lat="48.9153" lon="-0.25659">
        <ele>203.9368896</ele>
        <time>2010-11-07T08:26:41Z</time>
      </trkpt>
      <trkpt lat="48.91527" lon="-0.25625">
        <ele>201.5335693</ele>
        <time>2010-11-07T08:26:45Z</time>
      </trkpt>
      <trkpt lat="48.91519" lon="-0.25575">
        <ele>198.1689453</ele>
        <time>2010-11-07T08:26:50Z</time>
      </trkpt>
      <trkpt lat="48.91509" lon="-0.25549">
        <ele>196.7269287</ele>
        <time>2010-11-07T08:26:53Z</time>
      </trkpt>
      <trkpt lat="48.91507" lon="-0.25536">
        <ele>196.2463379</ele>
        <time>2010-11-07T08:26:56Z</time>
      </trkpt>
      <trkpt lat="48.91503" lon="-0.25515">
        <ele>196.2463379</ele>
        <time>2010-11-07T08:27:00Z</time>
      </trkpt>
      <trkpt lat="48.915" lon="-0.25506">
        <ele>195.765625</ele>
        <time>2010-11-07T08:27:04Z</time>
      </trkpt>
      <trkpt lat="48.91496" lon="-0.25488">
        <ele>195.2849121</ele>
        <time>2010-11-07T08:27:09Z</time>
      </trkpt>
      <trkpt lat="48.91491" lon="-0.25457">
        <ele>195.765625</ele>
        <time>2010-11-07T08:27:14Z</time>
      </trkpt>
      <trkpt lat="48.91489" lon="-0.25451">
        <ele>195.765625</ele>
        <time>2010-11-07T08:27:15Z</time>
      </trkpt>
      <trkpt lat="48.91481" lon="-0.25405">
        <ele>196.7269287</ele>
        <time>2010-11-07T08:27:23Z</time>
      </trkpt>
      <trkpt lat="48.91476" lon="-0.25365">
        <ele>197.6882324</ele>
        <time>2010-11-07T08:27:31Z</time>
      </trkpt>
      <trkpt lat="48.91475" lon="-0.2532">
        <ele>198.1689453</ele>
        <time>2010-11-07T08:27:39Z</time>
      </trkpt>
      <trkpt lat="48.91471" lon="-0.25283">
        <ele>197.6882324</ele>
        <time>2010-11-07T08:27:46Z</time>
      </trkpt>
      <trkpt lat="48.91469" lon="-0.25241">
        <ele>198.1689453</ele>
        <time>2010-11-07T08:27:53Z</time>
      </trkpt>
      <trkpt lat="48.91473" lon="-0.25213">
        <ele>197.6882324</ele>
        <time>2010-11-07T08:27:58Z</time>
      </trkpt>
      <trkpt lat="48.91476" lon="-0.25188">
        <ele>197.2075195</ele>
        <time>2010-11-07T08:28:02Z</time>
      </trkpt>
      <trkpt lat="48.9148" lon="-0.25144">
        <ele>196.2463379</ele>
        <time>2010-11-07T08:28:09Z</time>
      </trkpt>
      <trkpt lat="48.91488" lon="-0.25098">
        <ele>194.3237305</ele>
        <time>2010-11-07T08:28:16Z</time>
      </trkpt>
      <trkpt lat="48.91489" lon="-0.25091">
        <ele>194.3237305</ele>
        <time>2010-11-07T08:28:17Z</time>
      </trkpt>
      <trkpt lat="48.91483" lon="-0.25069">
        <ele>192.8817139</ele>
        <time>2010-11-07T08:28:21Z</time>
      </trkpt>
      <trkpt lat="48.91477" lon="-0.25063">
        <ele>191.9202881</ele>
        <time>2010-11-07T08:28:23Z</time>
      </trkpt>
      <trkpt lat="48.91454" lon="-0.25042">
        <ele>188.0750732</ele>
        <time>2010-11-07T08:28:30Z</time>
      </trkpt>
      <trkpt lat="48.91443" lon="-0.25031">
        <ele>188.0750732</ele>
        <time>2010-11-07T08:28:33Z</time>
      </trkpt>
      <trkpt lat="48.91437" lon="-0.25021">
        <ele>188.0750732</ele>
        <time>2010-11-07T08:28:35Z</time>
      </trkpt>
      <trkpt lat="48.91418" lon="-0.24978">
        <ele>189.5169678</ele>
        <time>2010-11-07T08:28:42Z</time>
      </trkpt>
      <trkpt lat="48.91411" lon="-0.2495">
        <ele>191.4395752</ele>
        <time>2010-11-07T08:28:47Z</time>
      </trkpt>
      <trkpt lat="48.91403" lon="-0.2493">
        <ele>191.9202881</ele>
        <time>2010-11-07T08:28:52Z</time>
      </trkpt>
      <trkpt lat="48.91395" lon="-0.24909">
        <ele>192.401123</ele>
        <time>2010-11-07T08:28:57Z</time>
      </trkpt>
      <trkpt lat="48.91381" lon="-0.24883">
        <ele>192.8817139</ele>
        <time>2010-11-07T08:29:02Z</time>
      </trkpt>
      <trkpt lat="48.91366" lon="-0.24853">
        <ele>193.8430176</ele>
        <time>2010-11-07T08:29:09Z</time>
      </trkpt>
      <trkpt lat="48.91352" lon="-0.24827">
        <ele>194.8043213</ele>
        <time>2010-11-07T08:29:15Z</time>
      </trkpt>
      <trkpt lat="48.91339" lon="-0.24804">
        <ele>195.765625</ele>
        <time>2010-11-07T08:29:20Z</time>
      </trkpt>
      <trkpt lat="48.91324" lon="-0.24772">
        <ele>196.2463379</ele>
        <time>2010-11-07T08:29:27Z</time>
      </trkpt>
      <trkpt lat="48.91307" lon="-0.2474">
        <ele>195.765625</ele>
        <time>2010-11-07T08:29:35Z</time>
      </trkpt>
      <trkpt lat="48.91292" lon="-0.24718">
        <ele>196.2463379</ele>
        <time>2010-11-07T08:29:41Z</time>
      </trkpt>
      <trkpt lat="48.91287" lon="-0.2471">
        <ele>195.765625</ele>
        <time>2010-11-07T08:29:46Z</time>
      </trkpt>
      <trkpt lat="48.91279" lon="-0.247">
        <ele>195.765625</ele>
        <time>2010-11-07T08:29:50Z</time>
      </trkpt>
      <trkpt lat="48.91263" lon="-0.24677">
        <ele>195.765625</ele>
        <time>2010-11-07T08:29:56Z</time>
      </trkpt>
      <trkpt lat="48.91248" lon="-0.24656">
        <ele>195.2849121</ele>
        <time>2010-11-07T08:30:02Z</time>
      </trkpt>
      <trkpt lat="48.91245" lon="-0.24653">
        <ele>195.2849121</ele>
        <time>2010-11-07T08:30:05Z</time>
      </trkpt>
      <trkpt lat="48.91244" lon="-0.24652">
        <ele>195.765625</ele>
        <time>2010-11-07T08:31:16Z</time>
      </trkpt>
      <trkpt lat="48.91244" lon="-0.24652">
        <ele>195.765625</ele>
        <time>2010-11-07T08:31:17Z</time>
      </trkpt>
      <trkpt lat="48.91243" lon="-0.2465">
        <ele>195.765625</ele>
        <time>2010-11-07T08:31:18Z</time>
      </trkpt>
      <trkpt lat="48.91242" lon="-0.24648">
        <ele>195.765625</ele>
        <time>2010-11-07T08:31:21Z</time>
      </trkpt>
      <trkpt lat="48.9124" lon="-0.24647">
        <ele>195.765625</ele>
        <time>2010-11-07T08:31:22Z</time>
      </trkpt>
      <trkpt lat="48.91231" lon="-0.24646">
        <ele>195.2849121</ele>
        <time>2010-11-07T08:31:26Z</time>
      </trkpt>
      <trkpt lat="48.91214" lon="-0.24643">
        <ele>196.2463379</ele>
        <time>2010-11-07T08:31:32Z</time>
      </trkpt>
      <trkpt lat="48.91199" lon="-0.24636">
        <ele>196.2463379</ele>
        <time>2010-11-07T08:31:38Z</time>
      </trkpt>
      <trkpt lat="48.91188" lon="-0.24631">
        <ele>196.2463379</ele>
        <time>2010-11-07T08:31:44Z</time>
      </trkpt>
      <trkpt lat="48.91176" lon="-0.24617">
        <ele>196.2463379</ele>
        <time>2010-11-07T08:31:51Z</time>
      </trkpt>
      <trkpt lat="48.9116" lon="-0.24599">
        <ele>197.2075195</ele>
        <time>2010-11-07T08:31:57Z</time>
      </trkpt>
      <trkpt lat="48.91144" lon="-0.24581">
        <ele>198.6495361</ele>
        <time>2010-11-07T08:32:04Z</time>
      </trkpt>
      <trkpt lat="48.91125" lon="-0.24564">
        <ele>199.130127</ele>
        <time>2010-11-07T08:32:12Z</time>
      </trkpt>
      <trkpt lat="48.91106" lon="-0.24542">
        <ele>200.0916748</ele>
        <time>2010-11-07T08:32:20Z</time>
      </trkpt>
      <trkpt lat="48.91083" lon="-0.24515">
        <ele>200.0916748</ele>
        <time>2010-11-07T08:32:29Z</time>
      </trkpt>
      <trkpt lat="48.91067" lon="-0.24497">
        <ele>200.5722656</ele>
        <time>2010-11-07T08:32:35Z</time>
      </trkpt>
      <trkpt lat="48.91048" lon="-0.24471">
        <ele>201.0528564</ele>
        <time>2010-11-07T08:32:42Z</time>
      </trkpt>
      <trkpt lat="48.91035" lon="-0.24444">
        <ele>201.0528564</ele>
        <time>2010-11-07T08:32:48Z</time>
      </trkpt>
      <trkpt lat="48.91021" lon="-0.24419">
        <ele>201.0528564</ele>
        <time>2010-11-07T08:32:54Z</time>
      </trkpt>
      <trkpt lat="48.91005" lon="-0.24392">
        <ele>201.5335693</ele>
        <time>2010-11-07T08:33:01Z</time>
      </trkpt>
      <trkpt lat="48.90991" lon="-0.24366">
        <ele>201.5335693</ele>
        <time>2010-11-07T08:33:07Z</time>
      </trkpt>
      <trkpt lat="48.90977" lon="-0.2434">
        <ele>202.0142822</ele>
        <time>2010-11-07T08:33:13Z</time>
      </trkpt>
      <trkpt lat="48.90968" lon="-0.24307">
        <ele>202.494873</ele>
        <time>2010-11-07T08:33:20Z</time>
      </trkpt>
      <trkpt lat="48.90962" lon="-0.24268">
        <ele>202.0142822</ele>
        <time>2010-11-07T08:33:27Z</time>
      </trkpt>
      <trkpt lat="48.90953" lon="-0.24213">
        <ele>201.5335693</ele>
        <time>2010-11-07T08:33:37Z</time>
      </trkpt>
      <trkpt lat="48.90946" lon="-0.24167">
        <ele>201.5335693</ele>
        <time>2010-11-07T08:33:45Z</time>
      </trkpt>
      <trkpt lat="48.9094" lon="-0.2413">
        <ele>202.0142822</ele>
        <time>2010-11-07T08:33:51Z</time>
      </trkpt>
      <trkpt lat="48.90934" lon="-0.24095">
        <ele>202.0142822</ele>
        <time>2010-11-07T08:33:57Z</time>
      </trkpt>
      <trkpt lat="48.90932" lon="-0.24073">
        <ele>201.5335693</ele>
        <time>2010-11-07T08:34:02Z</time>
      </trkpt>
      <trkpt lat="48.90929" lon="-0.24048">
        <ele>201.5335693</ele>
        <time>2010-11-07T08:34:07Z</time>
      </trkpt>
      <trkpt lat="48.90926" lon="-0.24018">
        <ele>201.5335693</ele>
        <time>2010-11-07T08:34:13Z</time>
      </trkpt>
      <trkpt lat="48.90924" lon="-0.23986">
        <ele>201.0528564</ele>
        <time>2010-11-07T08:34:19Z</time>
      </trkpt>
      <trkpt lat="48.90921" lon="-0.23958">
        <ele>200.5722656</ele>
        <time>2010-11-07T08:34:24Z</time>
      </trkpt>
      <trkpt lat="48.90916" lon="-0.2393">
        <ele>200.0916748</ele>
        <time>2010-11-07T08:34:29Z</time>
      </trkpt>
      <trkpt lat="48.90908" lon="-0.23886">
        <ele>199.6108398</ele>
        <time>2010-11-07T08:34:37Z</time>
      </trkpt>
      <trkpt lat="48.909" lon="-0.23856">
        <ele>199.6108398</ele>
        <time>2010-11-07T08:34:43Z</time>
      </trkpt>
      <trkpt lat="48.90887" lon="-0.23838">
        <ele>199.130127</ele>
        <time>2010-11-07T08:34:48Z</time>
      </trkpt>
      <trkpt lat="48.90871" lon="-0.23806">
        <ele>199.6108398</ele>
        <time>2010-11-07T08:34:55Z</time>
      </trkpt>
      <trkpt lat="48.90861" lon="-0.23782">
        <ele>199.130127</ele>
        <time>2010-11-07T08:35:00Z</time>
      </trkpt>
      <trkpt lat="48.90854" lon="-0.23765">
        <ele>199.130127</ele>
        <time>2010-11-07T08:35:05Z</time>
      </trkpt>
      <trkpt lat="48.90842" lon="-0.23741">
        <ele>199.130127</ele>
        <time>2010-11-07T08:35:11Z</time>
      </trkpt>
      <trkpt lat="48.9084" lon="-0.23737">
        <ele>199.130127</ele>
        <time>2010-11-07T08:35:12Z</time>
      </trkpt>
      <trkpt lat="48.9083" lon="-0.23704">
        <ele>198.6495361</ele>
        <time>2010-11-07T08:35:18Z</time>
      </trkpt>
      <trkpt lat="48.90829" lon="-0.23698">
        <ele>199.130127</ele>
        <time>2010-11-07T08:35:19Z</time>
      </trkpt>
      <trkpt lat="48.90819" lon="-0.23637">
        <ele>199.130127</ele>
        <time>2010-11-07T08:35:29Z</time>
      </trkpt>
      <trkpt lat="48.90812" lon="-0.23604">
        <ele>198.6495361</ele>
        <time>2010-11-07T08:35:35Z</time>
      </trkpt>
      <trkpt lat="48.90805" lon="-0.23561">
        <ele>198.1689453</ele>
        <time>2010-11-07T08:35:43Z</time>
      </trkpt>
      <trkpt lat="48.90802" lon="-0.23538">
        <ele>198.1689453</ele>
        <time>2010-11-07T08:35:47Z</time>
      </trkpt>
      <trkpt lat="48.90793" lon="-0.23504">
        <ele>197.6882324</ele>
        <time>2010-11-07T08:35:53Z</time>
      </trkpt>
      <trkpt lat="48.90783" lon="-0.23482">
        <ele>197.2075195</ele>
        <time>2010-11-07T08:35:58Z</time>
      </trkpt>
      <trkpt lat="48.90772" lon="-0.23454">
        <ele>196.2463379</ele>
        <time>2010-11-07T08:36:04Z</time>
      </trkpt>
      <trkpt lat="48.90766" lon="-0.23431">
        <ele>195.2849121</ele>
        <time>2010-11-07T08:36:09Z</time>
      </trkpt>
      <trkpt lat="48.90759" lon="-0.23404">
        <ele>194.8043213</ele>
        <time>2010-11-07T08:36:15Z</time>
      </trkpt>
      <trkpt lat="48.90755" lon="-0.23388">
        <ele>193.8430176</ele>
        <time>2010-11-07T08:36:20Z</time>
      </trkpt>
      <trkpt lat="48.90753" lon="-0.23379">
        <ele>193.8430176</ele>
        <time>2010-11-07T08:36:23Z</time>
      </trkpt>
      <trkpt lat="48.90753" lon="-0.2337">
        <ele>193.3623047</ele>
        <time>2010-11-07T08:36:28Z</time>
      </trkpt>
      <trkpt lat="48.90753" lon="-0.2337">
        <ele>193.3623047</ele>
        <time>2010-11-07T08:36:29Z</time>
      </trkpt>
      <trkpt lat="48.90757" lon="-0.23369">
        <ele>193.8430176</ele>
        <time>2010-11-07T08:38:38Z</time>
      </trkpt>
      <trkpt lat="48.90757" lon="-0.2337">
        <ele>194.3237305</ele>
        <time>2010-11-07T08:38:39Z</time>
      </trkpt>
      <trkpt lat="48.90757" lon="-0.23371">
        <ele>193.8430176</ele>
        <time>2010-11-07T08:38:40Z</time>
      </trkpt>
      <trkpt lat="48.90754" lon="-0.23369">
        <ele>194.3237305</ele>
        <time>2010-11-07T08:44:37Z</time>
      </trkpt>
      <trkpt lat="48.90753" lon="-0.23369">
        <ele>194.3237305</ele>
        <time>2010-11-07T08:44:38Z</time>
      </trkpt>
      <trkpt lat="48.90753" lon="-0.23368">
        <ele>194.3237305</ele>
        <time>2010-11-07T08:44:39Z</time>
      </trkpt>
      <trkpt lat="48.90755" lon="-0.23368">
        <ele>194.3237305</ele>
        <time>2010-11-07T08:44:53Z</time>
      </trkpt>
      <trkpt lat="48.90756" lon="-0.23367">
        <ele>194.3237305</ele>
        <time>2010-11-07T08:44:54Z</time>
      </trkpt>
      <trkpt lat="48.90764" lon="-0.23357">
        <ele>193.3623047</ele>
        <time>2010-11-07T08:44:58Z</time>
      </trkpt>
      <trkpt lat="48.90775" lon="-0.23341">
        <ele>191.9202881</ele>
        <time>2010-11-07T08:45:03Z</time>
      </trkpt>
      <trkpt lat="48.90788" lon="-0.23322">
        <ele>189.9976807</ele>
        <time>2010-11-07T08:45:08Z</time>
      </trkpt>
      <trkpt lat="48.90811" lon="-0.2329">
        <ele>186.6331787</ele>
        <time>2010-11-07T08:45:15Z</time>
      </trkpt>
      <trkpt lat="48.9083" lon="-0.23264">
        <ele>183.2684326</ele>
        <time>2010-11-07T08:45:20Z</time>
      </trkpt>
      <trkpt lat="48.90835" lon="-0.23258">
        <ele>183.2684326</ele>
        <time>2010-11-07T08:45:21Z</time>
      </trkpt>
      <trkpt lat="48.90861" lon="-0.23223">
        <ele>179.9038086</ele>
        <time>2010-11-07T08:45:26Z</time>
      </trkpt>
      <trkpt lat="48.90888" lon="-0.23186">
        <ele>177.0200195</ele>
        <time>2010-11-07T08:45:30Z</time>
      </trkpt>
      <trkpt lat="48.90925" lon="-0.23136">
        <ele>173.6552734</ele>
        <time>2010-11-07T08:45:35Z</time>
      </trkpt>
      <trkpt lat="48.90932" lon="-0.23126">
        <ele>173.6552734</ele>
        <time>2010-11-07T08:45:36Z</time>
      </trkpt>
      <trkpt lat="48.90962" lon="-0.23087">
        <ele>170.2906494</ele>
        <time>2010-11-07T08:45:40Z</time>
      </trkpt>
      <trkpt lat="48.91005" lon="-0.23027">
        <ele>167.8873291</ele>
        <time>2010-11-07T08:45:46Z</time>
      </trkpt>
      <trkpt lat="48.91059" lon="-0.22951">
        <ele>165.4841309</ele>
        <time>2010-11-07T08:45:54Z</time>
      </trkpt>
      <trkpt lat="48.91114" lon="-0.22877">
        <ele>163.5615234</ele>
        <time>2010-11-07T08:46:03Z</time>
      </trkpt>
      <trkpt lat="48.9115" lon="-0.22827">
        <ele>162.6000977</ele>
        <time>2010-11-07T08:46:10Z</time>
      </trkpt>
      <trkpt lat="48.91194" lon="-0.22765">
        <ele>162.1195068</ele>
        <time>2010-11-07T08:46:19Z</time>
      </trkpt>
      <trkpt lat="48.91236" lon="-0.22706">
        <ele>162.1195068</ele>
        <time>2010-11-07T08:46:28Z</time>
      </trkpt>
      <trkpt lat="48.91283" lon="-0.22637">
        <ele>159.7161865</ele>
        <time>2010-11-07T08:46:38Z</time>
      </trkpt>
      <trkpt lat="48.91313" lon="-0.2258">
        <ele>157.7935791</ele>
        <time>2010-11-07T08:46:45Z</time>
      </trkpt>
      <trkpt lat="48.91337" lon="-0.22517">
        <ele>157.3128662</ele>
        <time>2010-11-07T08:46:52Z</time>
      </trkpt>
      <trkpt lat="48.91346" lon="-0.22464">
        <ele>156.3515625</ele>
        <time>2010-11-07T08:46:57Z</time>
      </trkpt>
      <trkpt lat="48.91348" lon="-0.22422">
        <ele>156.3515625</ele>
        <time>2010-11-07T08:47:01Z</time>
      </trkpt>
      <trkpt lat="48.91357" lon="-0.22383">
        <ele>156.3515625</ele>
        <time>2010-11-07T08:47:05Z</time>
      </trkpt>
      <trkpt lat="48.91394" lon="-0.22313">
        <ele>155.8709717</ele>
        <time>2010-11-07T08:47:14Z</time>
      </trkpt>
      <trkpt lat="48.91419" lon="-0.22268">
        <ele>154.9095459</ele>
        <time>2010-11-07T08:47:21Z</time>
      </trkpt>
      <trkpt lat="48.91428" lon="-0.22251">
        <ele>154.4289551</ele>
        <time>2010-11-07T08:47:25Z</time>
      </trkpt>
      <trkpt lat="48.9143" lon="-0.22246">
        <ele>155.3902588</ele>
        <time>2010-11-07T08:47:28Z</time>
      </trkpt>
      <trkpt lat="48.9144" lon="-0.22253">
        <ele>154.9095459</ele>
        <time>2010-11-07T08:47:33Z</time>
      </trkpt>
      <trkpt lat="48.91457" lon="-0.22288">
        <ele>155.3902588</ele>
        <time>2010-11-07T08:47:41Z</time>
      </trkpt>
      <trkpt lat="48.91481" lon="-0.22326">
        <ele>155.3902588</ele>
        <time>2010-11-07T08:47:49Z</time>
      </trkpt>
      <trkpt lat="48.91498" lon="-0.22354">
        <ele>156.8321533</ele>
        <time>2010-11-07T08:47:54Z</time>
      </trkpt>
      <trkpt lat="48.91515" lon="-0.22386">
        <ele>156.3515625</ele>
        <time>2010-11-07T08:48:00Z</time>
      </trkpt>
      <trkpt lat="48.91533" lon="-0.2242">
        <ele>156.8321533</ele>
        <time>2010-11-07T08:48:07Z</time>
      </trkpt>
      <trkpt lat="48.91556" lon="-0.2246">
        <ele>157.3128662</ele>
        <time>2010-11-07T08:48:15Z</time>
      </trkpt>
      <trkpt lat="48.91582" lon="-0.22505">
        <ele>157.7935791</ele>
        <time>2010-11-07T08:48:24Z</time>
      </trkpt>
      <trkpt lat="48.91606" lon="-0.22544">
        <ele>158.7547607</ele>
        <time>2010-11-07T08:48:32Z</time>
      </trkpt>
      <trkpt lat="48.91615" lon="-0.22558">
        <ele>159.2354736</ele>
        <time>2010-11-07T08:48:35Z</time>
      </trkpt>
      <trkpt lat="48.91652" lon="-0.22603">
        <ele>160.1968994</ele>
        <time>2010-11-07T08:48:46Z</time>
      </trkpt>
      <trkpt lat="48.91687" lon="-0.22642">
        <ele>161.1582031</ele>
        <time>2010-11-07T08:48:56Z</time>
      </trkpt>
      <trkpt lat="48.91718" lon="-0.22687">
        <ele>161.638916</ele>
        <time>2010-11-07T08:49:06Z</time>
      </trkpt>
      <trkpt lat="48.9174" lon="-0.22725">
        <ele>162.1195068</ele>
        <time>2010-11-07T08:49:14Z</time>
      </trkpt>
      <trkpt lat="48.91747" lon="-0.22712">
        <ele>161.638916</ele>
        <time>2010-11-07T08:49:18Z</time>
      </trkpt>
      <trkpt lat="48.91755" lon="-0.22666">
        <ele>161.638916</ele>
        <time>2010-11-07T08:49:25Z</time>
      </trkpt>
      <trkpt lat="48.91767" lon="-0.22602">
        <ele>161.1582031</ele>
        <time>2010-11-07T08:49:34Z</time>
      </trkpt>
      <trkpt lat="48.91783" lon="-0.22526">
        <ele>160.6774902</ele>
        <time>2010-11-07T08:49:44Z</time>
      </trkpt>
      <trkpt lat="48.91798" lon="-0.22446">
        <ele>159.7161865</ele>
        <time>2010-11-07T08:49:54Z</time>
      </trkpt>
      <trkpt lat="48.91809" lon="-0.22353">
        <ele>159.2354736</ele>
        <time>2010-11-07T08:50:05Z</time>
      </trkpt>
      <trkpt lat="48.91811" lon="-0.22271">
        <ele>158.7547607</ele>
        <time>2010-11-07T08:50:14Z</time>
      </trkpt>
      <trkpt lat="48.91813" lon="-0.22163">
        <ele>156.8321533</ele>
        <time>2010-11-07T08:50:25Z</time>
      </trkpt>
      <trkpt lat="48.91815" lon="-0.22045">
        <ele>155.8709717</ele>
        <time>2010-11-07T08:50:37Z</time>
      </trkpt>
      <trkpt lat="48.91825" lon="-0.21961">
        <ele>154.9095459</ele>
        <time>2010-11-07T08:50:46Z</time>
      </trkpt>
      <trkpt lat="48.91832" lon="-0.21906">
        <ele>153.9483643</ele>
        <time>2010-11-07T08:50:52Z</time>
      </trkpt>
      <trkpt lat="48.91844" lon="-0.2181">
        <ele>152.9869385</ele>
        <time>2010-11-07T08:51:02Z</time>
      </trkpt>
      <trkpt lat="48.91848" lon="-0.21731">
        <ele>152.9869385</ele>
        <time>2010-11-07T08:51:10Z</time>
      </trkpt>
      <trkpt lat="48.91848" lon="-0.21668">
        <ele>151.5449219</ele>
        <time>2010-11-07T08:51:17Z</time>
      </trkpt>
      <trkpt lat="48.91846" lon="-0.21642">
        <ele>152.0257568</ele>
        <time>2010-11-07T08:51:20Z</time>
      </trkpt>
      <trkpt lat="48.91844" lon="-0.21625">
        <ele>152.0257568</ele>
        <time>2010-11-07T08:51:22Z</time>
      </trkpt>
      <trkpt lat="48.9183" lon="-0.21588">
        <ele>152.5063477</ele>
        <time>2010-11-07T08:51:27Z</time>
      </trkpt>
      <trkpt lat="48.91825" lon="-0.21582">
        <ele>152.0257568</ele>
        <time>2010-11-07T08:51:28Z</time>
      </trkpt>
      <trkpt lat="48.91813" lon="-0.2157">
        <ele>152.5063477</ele>
        <time>2010-11-07T08:51:31Z</time>
      </trkpt>
      <trkpt lat="48.91787" lon="-0.2155">
        <ele>152.5063477</ele>
        <time>2010-11-07T08:51:36Z</time>
      </trkpt>
      <trkpt lat="48.91766" lon="-0.21537">
        <ele>152.5063477</ele>
        <time>2010-11-07T08:51:40Z</time>
      </trkpt>
      <trkpt lat="48.91752" lon="-0.21515">
        <ele>152.9869385</ele>
        <time>2010-11-07T08:51:44Z</time>
      </trkpt>
      <trkpt lat="48.91755" lon="-0.2149">
        <ele>153.4676514</ele>
        <time>2010-11-07T08:51:47Z</time>
      </trkpt>
      <trkpt lat="48.91759" lon="-0.2148">
        <ele>153.4676514</ele>
        <time>2010-11-07T08:51:48Z</time>
      </trkpt>
      <trkpt lat="48.91786" lon="-0.21414">
        <ele>153.9483643</ele>
        <time>2010-11-07T08:51:57Z</time>
      </trkpt>
      <trkpt lat="48.918" lon="-0.21352">
        <ele>154.4289551</ele>
        <time>2010-11-07T08:52:06Z</time>
      </trkpt>
      <trkpt lat="48.91817" lon="-0.21295">
        <ele>154.4289551</ele>
        <time>2010-11-07T08:52:14Z</time>
      </trkpt>
      <trkpt lat="48.91834" lon="-0.21241">
        <ele>154.9095459</ele>
        <time>2010-11-07T08:52:22Z</time>
      </trkpt>
      <trkpt lat="48.9184" lon="-0.21217">
        <ele>155.3902588</ele>
        <time>2010-11-07T08:52:27Z</time>
      </trkpt>
      <trkpt lat="48.9184" lon="-0.21214">
        <ele>155.8709717</ele>
        <time>2010-11-07T08:52:28Z</time>
      </trkpt>
      <trkpt lat="48.91853" lon="-0.2121">
        <ele>155.8709717</ele>
        <time>2010-11-07T08:52:33Z</time>
      </trkpt>
      <trkpt lat="48.91886" lon="-0.21223">
        <ele>156.3515625</ele>
        <time>2010-11-07T08:52:42Z</time>
      </trkpt>
      <trkpt lat="48.91898" lon="-0.21211">
        <ele>155.8709717</ele>
        <time>2010-11-07T08:52:46Z</time>
      </trkpt>
      <trkpt lat="48.91916" lon="-0.21166">
        <ele>156.3515625</ele>
        <time>2010-11-07T08:52:54Z</time>
      </trkpt>
      <trkpt lat="48.9193" lon="-0.21137">
        <ele>156.3515625</ele>
        <time>2010-11-07T08:53:00Z</time>
      </trkpt>
      <trkpt lat="48.91952" lon="-0.21089">
        <ele>156.8321533</ele>
        <time>2010-11-07T08:53:09Z</time>
      </trkpt>
      <trkpt lat="48.91973" lon="-0.21035">
        <ele>157.3128662</ele>
        <time>2010-11-07T08:53:18Z</time>
      </trkpt>
      <trkpt lat="48.91987" lon="-0.20996">
        <ele>158.2741699</ele>
        <time>2010-11-07T08:53:24Z</time>
      </trkpt>
      <trkpt lat="48.92008" lon="-0.20936">
        <ele>158.2741699</ele>
        <time>2010-11-07T08:53:33Z</time>
      </trkpt>
      <trkpt lat="48.9203" lon="-0.20857">
        <ele>158.7547607</ele>
        <time>2010-11-07T08:53:44Z</time>
      </trkpt>
      <trkpt lat="48.92052" lon="-0.20772">
        <ele>159.2354736</ele>
        <time>2010-11-07T08:53:56Z</time>
      </trkpt>
      <trkpt lat="48.92074" lon="-0.20688">
        <ele>161.1582031</ele>
        <time>2010-11-07T08:54:08Z</time>
      </trkpt>
      <trkpt lat="48.92083" lon="-0.20653">
        <ele>162.6000977</ele>
        <time>2010-11-07T08:54:14Z</time>
      </trkpt>
      <trkpt lat="48.92093" lon="-0.20616">
        <ele>164.0421143</ele>
        <time>2010-11-07T08:54:21Z</time>
      </trkpt>
      <trkpt lat="48.92103" lon="-0.20578">
        <ele>165.003418</ele>
        <time>2010-11-07T08:54:27Z</time>
      </trkpt>
      <trkpt lat="48.9212" lon="-0.20518">
        <ele>165.003418</ele>
        <time>2010-11-07T08:54:36Z</time>
      </trkpt>
      <trkpt lat="48.92134" lon="-0.20466">
        <ele>164.0421143</ele>
        <time>2010-11-07T08:54:43Z</time>
      </trkpt>
      <trkpt lat="48.92151" lon="-0.20402">
        <ele>161.638916</ele>
        <time>2010-11-07T08:54:50Z</time>
      </trkpt>
      <trkpt lat="48.9217" lon="-0.20336">
        <ele>160.1968994</ele>
        <time>2010-11-07T08:54:57Z</time>
      </trkpt>
      <trkpt lat="48.92175" lon="-0.20321">
        <ele>160.1968994</ele>
        <time>2010-11-07T08:54:59Z</time>
      </trkpt>
      <trkpt lat="48.922" lon="-0.20252">
        <ele>160.6774902</ele>
        <time>2010-11-07T08:55:08Z</time>
      </trkpt>
      <trkpt lat="48.92223" lon="-0.20177">
        <ele>160.6774902</ele>
        <time>2010-11-07T08:55:17Z</time>
      </trkpt>
      <trkpt lat="48.92245" lon="-0.20101">
        <ele>161.1582031</ele>
        <time>2010-11-07T08:55:26Z</time>
      </trkpt>
      <trkpt lat="48.92262" lon="-0.20042">
        <ele>161.1582031</ele>
        <time>2010-11-07T08:55:33Z</time>
      </trkpt>
      <trkpt lat="48.92283" lon="-0.19969">
        <ele>160.6774902</ele>
        <time>2010-11-07T08:55:42Z</time>
      </trkpt>
      <trkpt lat="48.92305" lon="-0.19897">
        <ele>160.6774902</ele>
        <time>2010-11-07T08:55:51Z</time>
      </trkpt>
      <trkpt lat="48.92337" lon="-0.19792">
        <ele>160.6774902</ele>
        <time>2010-11-07T08:56:04Z</time>
      </trkpt>
      <trkpt lat="48.92371" lon="-0.19688">
        <ele>161.1582031</ele>
        <time>2010-11-07T08:56:17Z</time>
      </trkpt>
      <trkpt lat="48.92391" lon="-0.19623">
        <ele>160.6774902</ele>
        <time>2010-11-07T08:56:25Z</time>
      </trkpt>
      <trkpt lat="48.92413" lon="-0.1955">
        <ele>160.6774902</ele>
        <time>2010-11-07T08:56:34Z</time>
      </trkpt>
      <trkpt lat="48.92438" lon="-0.19467">
        <ele>160.6774902</ele>
        <time>2010-11-07T08:56:44Z</time>
      </trkpt>
      <trkpt lat="48.92466" lon="-0.19379">
        <ele>161.1582031</ele>
        <time>2010-11-07T08:56:55Z</time>
      </trkpt>
      <trkpt lat="48.92469" lon="-0.19366">
        <ele>160.6774902</ele>
        <time>2010-11-07T08:56:57Z</time>
      </trkpt>
      <trkpt lat="48.92481" lon="-0.19355">
        <ele>161.1582031</ele>
        <time>2010-11-07T08:57:01Z</time>
      </trkpt>
      <trkpt lat="48.92485" lon="-0.19357">
        <ele>161.1582031</ele>
        <time>2010-11-07T08:57:02Z</time>
      </trkpt>
      <trkpt lat="48.92524" lon="-0.19376">
        <ele>160.6774902</ele>
        <time>2010-11-07T08:57:11Z</time>
      </trkpt>
      <trkpt lat="48.9257" lon="-0.19398">
        <ele>160.6774902</ele>
        <time>2010-11-07T08:57:21Z</time>
      </trkpt>
      <trkpt lat="48.9262" lon="-0.19422">
        <ele>161.1582031</ele>
        <time>2010-11-07T08:57:32Z</time>
      </trkpt>
      <trkpt lat="48.92671" lon="-0.19444">
        <ele>161.638916</ele>
        <time>2010-11-07T08:57:43Z</time>
      </trkpt>
      <trkpt lat="48.92722" lon="-0.19464">
        <ele>162.1195068</ele>
        <time>2010-11-07T08:57:54Z</time>
      </trkpt>
      <trkpt lat="48.92764" lon="-0.1948">
        <ele>163.0808105</ele>
        <time>2010-11-07T08:58:04Z</time>
      </trkpt>
      <trkpt lat="48.92791" lon="-0.19489">
        <ele>163.0808105</ele>
        <time>2010-11-07T08:58:12Z</time>
      </trkpt>
      <trkpt lat="48.92828" lon="-0.19498">
        <ele>163.5615234</ele>
        <time>2010-11-07T08:58:23Z</time>
      </trkpt>
      <trkpt lat="48.9286" lon="-0.19508">
        <ele>164.5227051</ele>
        <time>2010-11-07T08:58:32Z</time>
      </trkpt>
      <trkpt lat="48.92883" lon="-0.19516">
        <ele>163.5615234</ele>
        <time>2010-11-07T08:58:39Z</time>
      </trkpt>
      <trkpt lat="48.92907" lon="-0.19522">
        <ele>165.003418</ele>
        <time>2010-11-07T08:58:46Z</time>
      </trkpt>
      <trkpt lat="48.92937" lon="-0.19529">
        <ele>165.4841309</ele>
        <time>2010-11-07T08:58:55Z</time>
      </trkpt>
      <trkpt lat="48.92967" lon="-0.19534">
        <ele>165.9647217</ele>
        <time>2010-11-07T08:59:04Z</time>
      </trkpt>
      <trkpt lat="48.9299" lon="-0.19538">
        <ele>167.4067383</ele>
        <time>2010-11-07T08:59:11Z</time>
      </trkpt>
      <trkpt lat="48.93025" lon="-0.19546">
        <ele>168.8487549</ele>
        <time>2010-11-07T08:59:21Z</time>
      </trkpt>
      <trkpt lat="48.93054" lon="-0.19552">
        <ele>169.8100586</ele>
        <time>2010-11-07T08:59:30Z</time>
      </trkpt>
      <trkpt lat="48.93078" lon="-0.19556">
        <ele>169.8100586</ele>
        <time>2010-11-07T08:59:39Z</time>
      </trkpt>
      <trkpt lat="48.93093" lon="-0.19551">
        <ele>170.7713623</ele>
        <time>2010-11-07T08:59:46Z</time>
      </trkpt>
      <trkpt lat="48.93097" lon="-0.19547">
        <ele>170.2906494</ele>
        <time>2010-11-07T08:59:48Z</time>
      </trkpt>
      <trkpt lat="48.93101" lon="-0.1954">
        <ele>170.2906494</ele>
        <time>2010-11-07T08:59:52Z</time>
      </trkpt>
      <trkpt lat="48.93114" lon="-0.19528">
        <ele>170.7713623</ele>
        <time>2010-11-07T08:59:59Z</time>
      </trkpt>
      <trkpt lat="48.93129" lon="-0.19515">
        <ele>171.732666</ele>
        <time>2010-11-07T09:00:05Z</time>
      </trkpt>
      <trkpt lat="48.93148" lon="-0.19517">
        <ele>172.6939697</ele>
        <time>2010-11-07T09:00:12Z</time>
      </trkpt>
      <trkpt lat="48.93175" lon="-0.19522">
        <ele>174.1358643</ele>
        <time>2010-11-07T09:00:20Z</time>
      </trkpt>
      <trkpt lat="48.93214" lon="-0.19529">
        <ele>174.1358643</ele>
        <time>2010-11-07T09:00:31Z</time>
      </trkpt>
      <trkpt lat="48.93245" lon="-0.19535">
        <ele>174.6165771</ele>
        <time>2010-11-07T09:00:40Z</time>
      </trkpt>
      <trkpt lat="48.93274" lon="-0.19541">
        <ele>174.6165771</ele>
        <time>2010-11-07T09:00:48Z</time>
      </trkpt>
      <trkpt lat="48.93316" lon="-0.19549">
        <ele>174.6165771</ele>
        <time>2010-11-07T09:00:58Z</time>
      </trkpt>
      <trkpt lat="48.93355" lon="-0.19556">
        <ele>174.6165771</ele>
        <time>2010-11-07T09:01:07Z</time>
      </trkpt>
      <trkpt lat="48.93387" lon="-0.19562">
        <ele>174.1358643</ele>
        <time>2010-11-07T09:01:14Z</time>
      </trkpt>
      <trkpt lat="48.93425" lon="-0.1957">
        <ele>174.1358643</ele>
        <time>2010-11-07T09:01:22Z</time>
      </trkpt>
      <trkpt lat="48.93494" lon="-0.19583">
        <ele>172.2132568</ele>
        <time>2010-11-07T09:01:36Z</time>
      </trkpt>
      <trkpt lat="48.93525" lon="-0.19588">
        <ele>171.2520752</ele>
        <time>2010-11-07T09:01:43Z</time>
      </trkpt>
      <trkpt lat="48.93531" lon="-0.19593">
        <ele>170.7713623</ele>
        <time>2010-11-07T09:01:45Z</time>
      </trkpt>
      <trkpt lat="48.93532" lon="-0.19618">
        <ele>171.2520752</ele>
        <time>2010-11-07T09:01:50Z</time>
      </trkpt>
      <trkpt lat="48.93525" lon="-0.19673">
        <ele>170.2906494</ele>
        <time>2010-11-07T09:01:58Z</time>
      </trkpt>
      <trkpt lat="48.93517" lon="-0.19734">
        <ele>169.3294678</ele>
        <time>2010-11-07T09:02:06Z</time>
      </trkpt>
      <trkpt lat="48.93507" lon="-0.19829">
        <ele>168.368042</ele>
        <time>2010-11-07T09:02:17Z</time>
      </trkpt>
      <trkpt lat="48.93499" lon="-0.19927">
        <ele>166.4453125</ele>
        <time>2010-11-07T09:02:28Z</time>
      </trkpt>
      <trkpt lat="48.93496" lon="-0.1998">
        <ele>165.4841309</ele>
        <time>2010-11-07T09:02:34Z</time>
      </trkpt>
      <trkpt lat="48.93501" lon="-0.20003">
        <ele>164.5227051</ele>
        <time>2010-11-07T09:02:38Z</time>
      </trkpt>
      <trkpt lat="48.93512" lon="-0.20004">
        <ele>164.0421143</ele>
        <time>2010-11-07T09:02:41Z</time>
      </trkpt>
      <trkpt lat="48.93546" lon="-0.20009">
        <ele>164.5227051</ele>
        <time>2010-11-07T09:02:47Z</time>
      </trkpt>
      <trkpt lat="48.9362" lon="-0.20022">
        <ele>162.6000977</ele>
        <time>2010-11-07T09:02:59Z</time>
      </trkpt>
      <trkpt lat="48.93658" lon="-0.2003">
        <ele>162.1195068</ele>
        <time>2010-11-07T09:03:06Z</time>
      </trkpt>
      <trkpt lat="48.93707" lon="-0.20038">
        <ele>162.6000977</ele>
        <time>2010-11-07T09:03:14Z</time>
      </trkpt>
      <trkpt lat="48.9375" lon="-0.20046">
        <ele>163.5615234</ele>
        <time>2010-11-07T09:03:22Z</time>
      </trkpt>
      <trkpt lat="48.93805" lon="-0.20057">
        <ele>164.5227051</ele>
        <time>2010-11-07T09:03:34Z</time>
      </trkpt>
      <trkpt lat="48.93862" lon="-0.20067">
        <ele>166.9260254</ele>
        <time>2010-11-07T09:03:47Z</time>
      </trkpt>
      <trkpt lat="48.93908" lon="-0.20076">
        <ele>167.8873291</ele>
        <time>2010-11-07T09:03:58Z</time>
      </trkpt>
      <trkpt lat="48.93938" lon="-0.20082">
        <ele>169.3294678</ele>
        <time>2010-11-07T09:04:06Z</time>
      </trkpt>
      <trkpt lat="48.93971" lon="-0.20087">
        <ele>169.8100586</ele>
        <time>2010-11-07T09:04:15Z</time>
      </trkpt>
      <trkpt lat="48.94019" lon="-0.20095">
        <ele>169.8100586</ele>
        <time>2010-11-07T09:04:26Z</time>
      </trkpt>
      <trkpt lat="48.94076" lon="-0.20106">
        <ele>170.7713623</ele>
        <time>2010-11-07T09:04:39Z</time>
      </trkpt>
      <trkpt lat="48.94135" lon="-0.20117">
        <ele>171.2520752</ele>
        <time>2010-11-07T09:04:52Z</time>
      </trkpt>
      <trkpt lat="48.94183" lon="-0.20127">
        <ele>170.7713623</ele>
        <time>2010-11-07T09:05:02Z</time>
      </trkpt>
      <trkpt lat="48.94224" lon="-0.20134">
        <ele>170.7713623</ele>
        <time>2010-11-07T09:05:11Z</time>
      </trkpt>
      <trkpt lat="48.94254" lon="-0.20139">
        <ele>171.732666</ele>
        <time>2010-11-07T09:05:19Z</time>
      </trkpt>
      <trkpt lat="48.94289" lon="-0.20147">
        <ele>172.6939697</ele>
        <time>2010-11-07T09:05:29Z</time>
      </trkpt>
      <trkpt lat="48.94321" lon="-0.20154">
        <ele>173.1746826</ele>
        <time>2010-11-07T09:05:38Z</time>
      </trkpt>
      <trkpt lat="48.94352" lon="-0.20159">
        <ele>173.6552734</ele>
        <time>2010-11-07T09:05:47Z</time>
      </trkpt>
      <trkpt lat="48.94384" lon="-0.20166">
        <ele>174.6165771</ele>
        <time>2010-11-07T09:05:56Z</time>
      </trkpt>
      <trkpt lat="48.94426" lon="-0.20175">
        <ele>175.09729</ele>
        <time>2010-11-07T09:06:07Z</time>
      </trkpt>
      <trkpt lat="48.94469" lon="-0.20182">
        <ele>175.5778809</ele>
        <time>2010-11-07T09:06:17Z</time>
      </trkpt>
      <trkpt lat="48.94514" lon="-0.20191">
        <ele>175.09729</ele>
        <time>2010-11-07T09:06:27Z</time>
      </trkpt>
      <trkpt lat="48.94562" lon="-0.202">
        <ele>175.5778809</ele>
        <time>2010-11-07T09:06:38Z</time>
      </trkpt>
      <trkpt lat="48.94596" lon="-0.20204">
        <ele>174.6165771</ele>
        <time>2010-11-07T09:06:46Z</time>
      </trkpt>
      <trkpt lat="48.94604" lon="-0.20203">
        <ele>174.6165771</ele>
        <time>2010-11-07T09:06:48Z</time>
      </trkpt>
      <trkpt lat="48.94619" lon="-0.20194">
        <ele>174.6165771</ele>
        <time>2010-11-07T09:06:52Z</time>
      </trkpt>
      <trkpt lat="48.94629" lon="-0.20174">
        <ele>175.09729</ele>
        <time>2010-11-07T09:06:58Z</time>
      </trkpt>
      <trkpt lat="48.94633" lon="-0.20155">
        <ele>175.09729</ele>
        <time>2010-11-07T09:07:04Z</time>
      </trkpt>
      <trkpt lat="48.94634" lon="-0.20153">
        <ele>175.09729</ele>
        <time>2010-11-07T09:07:06Z</time>
      </trkpt>
      <trkpt lat="48.94635" lon="-0.20151">
        <ele>174.6165771</ele>
        <time>2010-11-07T09:07:44Z</time>
      </trkpt>
      <trkpt lat="48.94638" lon="-0.20145">
        <ele>175.09729</ele>
        <time>2010-11-07T09:07:47Z</time>
      </trkpt>
      <trkpt lat="48.9465" lon="-0.20119">
        <ele>175.09729</ele>
        <time>2010-11-07T09:07:54Z</time>
      </trkpt>
      <trkpt lat="48.9466" lon="-0.20089">
        <ele>176.0585938</ele>
        <time>2010-11-07T09:07:59Z</time>
      </trkpt>
      <trkpt lat="48.94686" lon="-0.20021">
        <ele>176.5393066</ele>
        <time>2010-11-07T09:08:09Z</time>
      </trkpt>
      <trkpt lat="48.94707" lon="-0.19957">
        <ele>177.9812012</ele>
        <time>2010-11-07T09:08:17Z</time>
      </trkpt>
      <trkpt lat="48.9473" lon="-0.19886">
        <ele>177.9812012</ele>
        <time>2010-11-07T09:08:26Z</time>
      </trkpt>
      <trkpt lat="48.94732" lon="-0.19878">
        <ele>177.9812012</ele>
        <time>2010-11-07T09:08:27Z</time>
      </trkpt>
      <trkpt lat="48.94742" lon="-0.19837">
        <ele>178.4619141</ele>
        <time>2010-11-07T09:08:32Z</time>
      </trkpt>
      <trkpt lat="48.94759" lon="-0.19819">
        <ele>179.4232178</ele>
        <time>2010-11-07T09:08:36Z</time>
      </trkpt>
      <trkpt lat="48.94768" lon="-0.19821">
        <ele>178.942627</ele>
        <time>2010-11-07T09:08:38Z</time>
      </trkpt>
      <trkpt lat="48.94783" lon="-0.19828">
        <ele>178.942627</ele>
        <time>2010-11-07T09:08:43Z</time>
      </trkpt>
      <trkpt lat="48.94789" lon="-0.1983">
        <ele>178.942627</ele>
        <time>2010-11-07T09:08:49Z</time>
      </trkpt>
      <trkpt lat="48.94788" lon="-0.19833">
        <ele>178.942627</ele>
        <time>2010-11-07T09:09:39Z</time>
      </trkpt>
      <trkpt lat="48.9479" lon="-0.19833">
        <ele>178.942627</ele>
        <time>2010-11-07T09:09:40Z</time>
      </trkpt>
      <trkpt lat="48.94802" lon="-0.19838">
        <ele>178.942627</ele>
        <time>2010-11-07T09:09:46Z</time>
      </trkpt>
      <trkpt lat="48.9482" lon="-0.19845">
        <ele>178.942627</ele>
        <time>2010-11-07T09:09:52Z</time>
      </trkpt>
      <trkpt lat="48.94847" lon="-0.19856">
        <ele>178.942627</ele>
        <time>2010-11-07T09:09:59Z</time>
      </trkpt>
      <trkpt lat="48.94879" lon="-0.19867">
        <ele>178.942627</ele>
        <time>2010-11-07T09:10:07Z</time>
      </trkpt>
      <trkpt lat="48.94915" lon="-0.1988">
        <ele>178.942627</ele>
        <time>2010-11-07T09:10:16Z</time>
      </trkpt>
      <trkpt lat="48.94968" lon="-0.199">
        <ele>178.4619141</ele>
        <time>2010-11-07T09:10:29Z</time>
      </trkpt>
      <trkpt lat="48.95009" lon="-0.19916">
        <ele>177.9812012</ele>
        <time>2010-11-07T09:10:39Z</time>
      </trkpt>
      <trkpt lat="48.95052" lon="-0.19932">
        <ele>177.9812012</ele>
        <time>2010-11-07T09:10:49Z</time>
      </trkpt>
      <trkpt lat="48.95061" lon="-0.19935">
        <ele>177.0200195</ele>
        <time>2010-11-07T09:10:51Z</time>
      </trkpt>
      <trkpt lat="48.95065" lon="-0.19937">
        <ele>177.9812012</ele>
        <time>2010-11-07T09:10:52Z</time>
      </trkpt>
      <trkpt lat="48.95105" lon="-0.19952">
        <ele>177.5006104</ele>
        <time>2010-11-07T09:11:01Z</time>
      </trkpt>
      <trkpt lat="48.9515" lon="-0.1997">
        <ele>177.5006104</ele>
        <time>2010-11-07T09:11:12Z</time>
      </trkpt>
      <trkpt lat="48.95176" lon="-0.19978">
        <ele>177.9812012</ele>
        <time>2010-11-07T09:11:19Z</time>
      </trkpt>
      <trkpt lat="48.95211" lon="-0.19977">
        <ele>178.4619141</ele>
        <time>2010-11-07T09:11:28Z</time>
      </trkpt>
      <trkpt lat="48.95247" lon="-0.19977">
        <ele>179.9038086</ele>
        <time>2010-11-07T09:11:37Z</time>
      </trkpt>
      <trkpt lat="48.95283" lon="-0.19977">
        <ele>179.9038086</ele>
        <time>2010-11-07T09:11:46Z</time>
      </trkpt>
      <trkpt lat="48.9529" lon="-0.19987">
        <ele>181.3458252</ele>
        <time>2010-11-07T09:11:50Z</time>
      </trkpt>
      <trkpt lat="48.95293" lon="-0.20023">
        <ele>181.826416</ele>
        <time>2010-11-07T09:11:57Z</time>
      </trkpt>
      <trkpt lat="48.95297" lon="-0.20084">
        <ele>181.3458252</ele>
        <time>2010-11-07T09:12:07Z</time>
      </trkpt>
      <trkpt lat="48.95303" lon="-0.20141">
        <ele>181.3458252</ele>
        <time>2010-11-07T09:12:16Z</time>
      </trkpt>
      <trkpt lat="48.95309" lon="-0.20197">
        <ele>183.2684326</ele>
        <time>2010-11-07T09:12:26Z</time>
      </trkpt>
      <trkpt lat="48.95316" lon="-0.2027">
        <ele>183.7490234</ele>
        <time>2010-11-07T09:12:39Z</time>
      </trkpt>
      <trkpt lat="48.95319" lon="-0.20328">
        <ele>184.2298584</ele>
        <time>2010-11-07T09:12:49Z</time>
      </trkpt>
      <trkpt lat="48.95316" lon="-0.2038">
        <ele>184.2298584</ele>
        <time>2010-11-07T09:12:58Z</time>
      </trkpt>
      <trkpt lat="48.95311" lon="-0.20425">
        <ele>184.7105713</ele>
        <time>2010-11-07T09:13:06Z</time>
      </trkpt>
      <trkpt lat="48.95305" lon="-0.20484">
        <ele>184.7105713</ele>
        <time>2010-11-07T09:13:17Z</time>
      </trkpt>
      <trkpt lat="48.95303" lon="-0.20533">
        <ele>185.1911621</ele>
        <time>2010-11-07T09:13:26Z</time>
      </trkpt>
      <trkpt lat="48.95303" lon="-0.20596">
        <ele>185.1911621</ele>
        <time>2010-11-07T09:13:37Z</time>
      </trkpt>
      <trkpt lat="48.95304" lon="-0.20651">
        <ele>185.1911621</ele>
        <time>2010-11-07T09:13:46Z</time>
      </trkpt>
      <trkpt lat="48.95303" lon="-0.207">
        <ele>185.1911621</ele>
        <time>2010-11-07T09:13:54Z</time>
      </trkpt>
      <trkpt lat="48.95309" lon="-0.20727">
        <ele>185.1911621</ele>
        <time>2010-11-07T09:13:59Z</time>
      </trkpt>
      <trkpt lat="48.95334" lon="-0.2076">
        <ele>185.1911621</ele>
        <time>2010-11-07T09:14:07Z</time>
      </trkpt>
      <trkpt lat="48.95364" lon="-0.20793">
        <ele>185.6717529</ele>
        <time>2010-11-07T09:14:16Z</time>
      </trkpt>
      <trkpt lat="48.95398" lon="-0.20832">
        <ele>186.1524658</ele>
        <time>2010-11-07T09:14:26Z</time>
      </trkpt>
      <trkpt lat="48.95431" lon="-0.20866">
        <ele>186.6331787</ele>
        <time>2010-11-07T09:14:35Z</time>
      </trkpt>
      <trkpt lat="48.9547" lon="-0.20909">
        <ele>186.1524658</ele>
        <time>2010-11-07T09:14:46Z</time>
      </trkpt>
      <trkpt lat="48.95508" lon="-0.20949">
        <ele>186.1524658</ele>
        <time>2010-11-07T09:14:56Z</time>
      </trkpt>
      <trkpt lat="48.95541" lon="-0.2099">
        <ele>184.7105713</ele>
        <time>2010-11-07T09:15:05Z</time>
      </trkpt>
      <trkpt lat="48.95553" lon="-0.21019">
        <ele>183.7490234</ele>
        <time>2010-11-07T09:15:10Z</time>
      </trkpt>
      <trkpt lat="48.9557" lon="-0.21037">
        <ele>183.2684326</ele>
        <time>2010-11-07T09:15:15Z</time>
      </trkpt>
      <trkpt lat="48.95595" lon="-0.21058">
        <ele>182.3071289</ele>
        <time>2010-11-07T09:15:21Z</time>
      </trkpt>
      <trkpt lat="48.95636" lon="-0.21094">
        <ele>180.8652344</ele>
        <time>2010-11-07T09:15:30Z</time>
      </trkpt>
      <trkpt lat="48.95676" lon="-0.2113">
        <ele>177.9812012</ele>
        <time>2010-11-07T09:15:38Z</time>
      </trkpt>
      <trkpt lat="48.95725" lon="-0.21174">
        <ele>175.5778809</ele>
        <time>2010-11-07T09:15:47Z</time>
      </trkpt>
      <trkpt lat="48.95781" lon="-0.21223">
        <ele>173.6552734</ele>
        <time>2010-11-07T09:15:57Z</time>
      </trkpt>
      <trkpt lat="48.95821" lon="-0.21258">
        <ele>172.2132568</ele>
        <time>2010-11-07T09:16:05Z</time>
      </trkpt>
      <trkpt lat="48.95864" lon="-0.21294">
        <ele>171.2520752</ele>
        <time>2010-11-07T09:16:14Z</time>
      </trkpt>
      <trkpt lat="48.95914" lon="-0.2132">
        <ele>169.8100586</ele>
        <time>2010-11-07T09:16:23Z</time>
      </trkpt>
      <trkpt lat="48.95956" lon="-0.21346">
        <ele>168.368042</ele>
        <time>2010-11-07T09:16:31Z</time>
      </trkpt>
      <trkpt lat="48.95999" lon="-0.2137">
        <ele>166.9260254</ele>
        <time>2010-11-07T09:16:39Z</time>
      </trkpt>
      <trkpt lat="48.9602" lon="-0.21383">
        <ele>164.5227051</ele>
        <time>2010-11-07T09:16:44Z</time>
      </trkpt>
      <trkpt lat="48.96021" lon="-0.21402">
        <ele>164.0421143</ele>
        <time>2010-11-07T09:16:48Z</time>
      </trkpt>
      <trkpt lat="48.96014" lon="-0.21426">
        <ele>164.0421143</ele>
        <time>2010-11-07T09:16:52Z</time>
      </trkpt>
      <trkpt lat="48.95995" lon="-0.21475">
        <ele>163.0808105</ele>
        <time>2010-11-07T09:17:00Z</time>
      </trkpt>
      <trkpt lat="48.95978" lon="-0.21523">
        <ele>162.6000977</ele>
        <time>2010-11-07T09:17:08Z</time>
      </trkpt>
      <trkpt lat="48.95964" lon="-0.2156">
        <ele>162.1195068</ele>
        <time>2010-11-07T09:17:14Z</time>
      </trkpt>
      <trkpt lat="48.95943" lon="-0.21621">
        <ele>160.6774902</ele>
        <time>2010-11-07T09:17:23Z</time>
      </trkpt>
      <trkpt lat="48.95919" lon="-0.21684">
        <ele>159.7161865</ele>
        <time>2010-11-07T09:17:31Z</time>
      </trkpt>
      <trkpt lat="48.95888" lon="-0.21775">
        <ele>157.7935791</ele>
        <time>2010-11-07T09:17:42Z</time>
      </trkpt>
      <trkpt lat="48.95865" lon="-0.21855">
        <ele>156.3515625</ele>
        <time>2010-11-07T09:17:51Z</time>
      </trkpt>
      <trkpt lat="48.95857" lon="-0.21889">
        <ele>155.8709717</ele>
        <time>2010-11-07T09:17:55Z</time>
      </trkpt>
      <trkpt lat="48.95863" lon="-0.21913">
        <ele>155.3902588</ele>
        <time>2010-11-07T09:17:59Z</time>
      </trkpt>
      <trkpt lat="48.95877" lon="-0.21914">
        <ele>154.9095459</ele>
        <time>2010-11-07T09:18:02Z</time>
      </trkpt>
      <trkpt lat="48.95906" lon="-0.21904">
        <ele>154.4289551</ele>
        <time>2010-11-07T09:18:08Z</time>
      </trkpt>
      <trkpt lat="48.95911" lon="-0.21922">
        <ele>154.4289551</ele>
        <time>2010-11-07T09:18:12Z</time>
      </trkpt>
      <trkpt lat="48.9591" lon="-0.21942">
        <ele>152.9869385</ele>
        <time>2010-11-07T09:18:16Z</time>
      </trkpt>
      <trkpt lat="48.95909" lon="-0.21967">
        <ele>152.0257568</ele>
        <time>2010-11-07T09:18:22Z</time>
      </trkpt>
      <trkpt lat="48.95908" lon="-0.21973">
        <ele>152.5063477</ele>
        <time>2010-11-07T09:18:23Z</time>
      </trkpt>
      <trkpt lat="48.95906" lon="-0.21993">
        <ele>151.064209</ele>
        <time>2010-11-07T09:18:26Z</time>
      </trkpt>
      <trkpt lat="48.95903" lon="-0.22023">
        <ele>150.1030273</ele>
        <time>2010-11-07T09:18:30Z</time>
      </trkpt>
      <trkpt lat="48.95899" lon="-0.22064">
        <ele>148.6610107</ele>
        <time>2010-11-07T09:18:35Z</time>
      </trkpt>
      <trkpt lat="48.95903" lon="-0.22094">
        <ele>147.2189941</ele>
        <time>2010-11-07T09:18:39Z</time>
      </trkpt>
      <trkpt lat="48.95917" lon="-0.22106">
        <ele>146.7384033</ele>
        <time>2010-11-07T09:18:42Z</time>
      </trkpt>
      <trkpt lat="48.95956" lon="-0.22137">
        <ele>145.2963867</ele>
        <time>2010-11-07T09:18:50Z</time>
      </trkpt>
      <trkpt lat="48.95987" lon="-0.22142">
        <ele>143.3736572</ele>
        <time>2010-11-07T09:18:55Z</time>
      </trkpt>
      <trkpt lat="48.96025" lon="-0.22142">
        <ele>142.4124756</ele>
        <time>2010-11-07T09:19:01Z</time>
      </trkpt>
      <trkpt lat="48.96031" lon="-0.22141">
        <ele>142.4124756</ele>
        <time>2010-11-07T09:19:02Z</time>
      </trkpt>
      <trkpt lat="48.96055" lon="-0.22122">
        <ele>142.4124756</ele>
        <time>2010-11-07T09:19:07Z</time>
      </trkpt>
      <trkpt lat="48.96073" lon="-0.22113">
        <ele>143.3736572</ele>
        <time>2010-11-07T09:19:11Z</time>
      </trkpt>
      <trkpt lat="48.96086" lon="-0.2211">
        <ele>143.8543701</ele>
        <time>2010-11-07T09:19:14Z</time>
      </trkpt>
      <trkpt lat="48.96112" lon="-0.22104">
        <ele>142.4124756</ele>
        <time>2010-11-07T09:19:19Z</time>
      </trkpt>
      <trkpt lat="48.96145" lon="-0.22099">
        <ele>140.0091553</ele>
        <time>2010-11-07T09:19:25Z</time>
      </trkpt>
      <trkpt lat="48.96172" lon="-0.22097">
        <ele>140.0091553</ele>
        <time>2010-11-07T09:19:29Z</time>
      </trkpt>
      <trkpt lat="48.96179" lon="-0.22097">
        <ele>139.5284424</ele>
        <time>2010-11-07T09:19:30Z</time>
      </trkpt>
      <trkpt lat="48.96209" lon="-0.22082">
        <ele>139.0478516</ele>
        <time>2010-11-07T09:19:35Z</time>
      </trkpt>
      <trkpt lat="48.96224" lon="-0.2207">
        <ele>139.5284424</ele>
        <time>2010-11-07T09:19:38Z</time>
      </trkpt>
      <trkpt lat="48.96241" lon="-0.22064">
        <ele>139.5284424</ele>
        <time>2010-11-07T09:19:41Z</time>
      </trkpt>
      <trkpt lat="48.96247" lon="-0.22063">
        <ele>139.0478516</ele>
        <time>2010-11-07T09:19:42Z</time>
      </trkpt>
      <trkpt lat="48.9626" lon="-0.22062">
        <ele>139.5284424</ele>
        <time>2010-11-07T09:19:44Z</time>
      </trkpt>
      <trkpt lat="48.96296" lon="-0.22051">
        <ele>139.0478516</ele>
        <time>2010-11-07T09:19:50Z</time>
      </trkpt>
      <trkpt lat="48.96339" lon="-0.22042">
        <ele>139.0478516</ele>
        <time>2010-11-07T09:19:57Z</time>
      </trkpt>
      <trkpt lat="48.96376" lon="-0.22039">
        <ele>139.0478516</ele>
        <time>2010-11-07T09:20:03Z</time>
      </trkpt>
      <trkpt lat="48.96424" lon="-0.22023">
        <ele>139.0478516</ele>
        <time>2010-11-07T09:20:11Z</time>
      </trkpt>
      <trkpt lat="48.96461" lon="-0.22004">
        <ele>139.0478516</ele>
        <time>2010-11-07T09:20:17Z</time>
      </trkpt>
      <trkpt lat="48.96496" lon="-0.22">
        <ele>139.5284424</ele>
        <time>2010-11-07T09:20:23Z</time>
      </trkpt>
      <trkpt lat="48.96534" lon="-0.21994">
        <ele>139.5284424</ele>
        <time>2010-11-07T09:20:30Z</time>
      </trkpt>
      <trkpt lat="48.96539" lon="-0.21993">
        <ele>139.5284424</ele>
        <time>2010-11-07T09:20:31Z</time>
      </trkpt>
      <trkpt lat="48.96568" lon="-0.21999">
        <ele>139.5284424</ele>
        <time>2010-11-07T09:20:36Z</time>
      </trkpt>
      <trkpt lat="48.96601" lon="-0.22014">
        <ele>139.5284424</ele>
        <time>2010-11-07T09:20:42Z</time>
      </trkpt>
      <trkpt lat="48.96628" lon="-0.22011">
        <ele>139.0478516</ele>
        <time>2010-11-07T09:20:47Z</time>
      </trkpt>
      <trkpt lat="48.96632" lon="-0.22009">
        <ele>139.0478516</ele>
        <time>2010-11-07T09:20:48Z</time>
      </trkpt>
      <trkpt lat="48.96651" lon="-0.22008">
        <ele>138.5672607</ele>
        <time>2010-11-07T09:20:52Z</time>
      </trkpt>
      <trkpt lat="48.96676" lon="-0.22014">
        <ele>138.0865479</ele>
        <time>2010-11-07T09:20:57Z</time>
      </trkpt>
      <trkpt lat="48.96689" lon="-0.22016">
        <ele>137.605835</ele>
        <time>2010-11-07T09:21:00Z</time>
      </trkpt>
      <trkpt lat="48.96708" lon="-0.22016">
        <ele>137.1252441</ele>
        <time>2010-11-07T09:21:05Z</time>
      </trkpt>
      <trkpt lat="48.96716" lon="-0.22016">
        <ele>137.1252441</ele>
        <time>2010-11-07T09:21:08Z</time>
      </trkpt>
      <trkpt lat="48.96719" lon="-0.22018">
        <ele>137.1252441</ele>
        <time>2010-11-07T09:21:12Z</time>
      </trkpt>
      <trkpt lat="48.96721" lon="-0.22019">
        <ele>137.1252441</ele>
        <time>2010-11-07T09:21:15Z</time>
      </trkpt>
      <trkpt lat="48.96724" lon="-0.2202">
        <ele>137.1252441</ele>
        <time>2010-11-07T09:21:21Z</time>
      </trkpt>
      <trkpt lat="48.96733" lon="-0.22025">
        <ele>137.605835</ele>
        <time>2010-11-07T09:21:26Z</time>
      </trkpt>
      <trkpt lat="48.9675" lon="-0.22034">
        <ele>137.605835</ele>
        <time>2010-11-07T09:21:31Z</time>
      </trkpt>
      <trkpt lat="48.96772" lon="-0.22056">
        <ele>137.605835</ele>
        <time>2010-11-07T09:21:37Z</time>
      </trkpt>
      <trkpt lat="48.96792" lon="-0.22079">
        <ele>137.605835</ele>
        <time>2010-11-07T09:21:43Z</time>
      </trkpt>
      <trkpt lat="48.9681" lon="-0.22097">
        <ele>137.605835</ele>
        <time>2010-11-07T09:21:50Z</time>
      </trkpt>
      <trkpt lat="48.9682" lon="-0.22113">
        <ele>137.605835</ele>
        <time>2010-11-07T09:21:56Z</time>
      </trkpt>
      <trkpt lat="48.96827" lon="-0.2212">
        <ele>137.605835</ele>
        <time>2010-11-07T09:22:02Z</time>
      </trkpt>
      <trkpt lat="48.96828" lon="-0.22121">
        <ele>137.1252441</ele>
        <time>2010-11-07T09:22:04Z</time>
      </trkpt>
      <trkpt lat="48.96833" lon="-0.22125">
        <ele>138.0865479</ele>
        <time>2010-11-07T09:23:33Z</time>
      </trkpt>
      <trkpt lat="48.96835" lon="-0.22124">
        <ele>138.0865479</ele>
        <time>2010-11-07T09:23:36Z</time>
      </trkpt>
      <trkpt lat="48.96835" lon="-0.22123">
        <ele>138.0865479</ele>
        <time>2010-11-07T09:23:39Z</time>
      </trkpt>
      <trkpt lat="48.96835" lon="-0.22122">
        <ele>138.0865479</ele>
        <time>2010-11-07T09:23:40Z</time>
      </trkpt>
      <trkpt lat="48.96834" lon="-0.2212">
        <ele>138.0865479</ele>
        <time>2010-11-07T09:23:43Z</time>
      </trkpt>
      <trkpt lat="48.96833" lon="-0.22118">
        <ele>138.0865479</ele>
        <time>2010-11-07T09:23:44Z</time>
      </trkpt>
      <trkpt lat="48.96827" lon="-0.22102">
        <ele>138.0865479</ele>
        <time>2010-11-07T09:23:50Z</time>
      </trkpt>
      <trkpt lat="48.96818" lon="-0.22082">
        <ele>137.605835</ele>
        <time>2010-11-07T09:23:56Z</time>
      </trkpt>
      <trkpt lat="48.96804" lon="-0.22069">
        <ele>138.0865479</ele>
        <time>2010-11-07T09:24:00Z</time>
      </trkpt>
      <trkpt lat="48.96791" lon="-0.22055">
        <ele>138.0865479</ele>
        <time>2010-11-07T09:24:04Z</time>
      </trkpt>
      <trkpt lat="48.96771" lon="-0.22043">
        <ele>137.605835</ele>
        <time>2010-11-07T09:24:08Z</time>
      </trkpt>
      <trkpt lat="48.96761" lon="-0.22035">
        <ele>137.605835</ele>
        <time>2010-11-07T09:24:11Z</time>
      </trkpt>
      <trkpt lat="48.96745" lon="-0.22026">
        <ele>138.0865479</ele>
        <time>2010-11-07T09:24:17Z</time>
      </trkpt>
      <trkpt lat="48.96733" lon="-0.2202">
        <ele>138.0865479</ele>
        <time>2010-11-07T09:24:23Z</time>
      </trkpt>
      <trkpt lat="48.96732" lon="-0.22019">
        <ele>138.0865479</ele>
        <time>2010-11-07T09:24:26Z</time>
      </trkpt>
      <trkpt lat="48.96732" lon="-0.22017">
        <ele>138.0865479</ele>
        <time>2010-11-07T09:24:30Z</time>
      </trkpt>
      <trkpt lat="48.96729" lon="-0.22012">
        <ele>139.0478516</ele>
        <time>2010-11-07T09:24:36Z</time>
      </trkpt>
      <trkpt lat="48.96729" lon="-0.22011">
        <ele>138.0865479</ele>
        <time>2010-11-07T09:24:39Z</time>
      </trkpt>
      <trkpt lat="48.9673" lon="-0.2201">
        <ele>139.5284424</ele>
        <time>2010-11-07T09:24:41Z</time>
      </trkpt>
      <trkpt lat="48.9673" lon="-0.22009">
        <ele>139.5284424</ele>
        <time>2010-11-07T09:24:44Z</time>
      </trkpt>
      <trkpt lat="48.9673" lon="-0.22009">
        <ele>140.0091553</ele>
        <time>2010-11-07T09:24:45Z</time>
      </trkpt>
      <trkpt lat="48.9673" lon="-0.22009">
        <ele>140.0091553</ele>
        <time>2010-11-07T09:24:48Z</time>
      </trkpt>
      <trkpt lat="48.9673" lon="-0.22009">
        <ele>140.0091553</ele>
        <time>2010-11-07T09:24:49Z</time>
      </trkpt>
      <trkpt lat="48.9673" lon="-0.22009">
        <ele>140.0091553</ele>
        <time>2010-11-07T09:24:52Z</time>
      </trkpt>
      <trkpt lat="48.96731" lon="-0.22009">
        <ele>140.0091553</ele>
        <time>2010-11-07T09:24:53Z</time>
      </trkpt>
      <trkpt lat="48.96731" lon="-0.22009">
        <ele>140.0091553</ele>
        <time>2010-11-07T09:24:54Z</time>
      </trkpt>
      <trkpt lat="48.96731" lon="-0.22009">
        <ele>140.0091553</ele>
        <time>2010-11-07T09:24:57Z</time>
      </trkpt>
      <trkpt lat="48.96744" lon="-0.2201">
        <ele>140.0091553</ele>
        <time>2010-11-07T09:25:02Z</time>
      </trkpt>
      <trkpt lat="48.96762" lon="-0.22011">
        <ele>140.4898682</ele>
        <time>2010-11-07T09:25:11Z</time>
      </trkpt>
      <trkpt lat="48.96782" lon="-0.22012">
        <ele>140.4898682</ele>
        <time>2010-11-07T09:25:20Z</time>
      </trkpt>
      <trkpt lat="48.96796" lon="-0.22013">
        <ele>141.4510498</ele>
        <time>2010-11-07T09:25:28Z</time>
      </trkpt>
      <trkpt lat="48.96806" lon="-0.22013">
        <ele>141.9317627</ele>
        <time>2010-11-07T09:25:35Z</time>
      </trkpt>
      <trkpt lat="48.96817" lon="-0.22014">
        <ele>142.8930664</ele>
        <time>2010-11-07T09:25:43Z</time>
      </trkpt>
      <trkpt lat="48.96829" lon="-0.22014">
        <ele>144.3352051</ele>
        <time>2010-11-07T09:25:50Z</time>
      </trkpt>
      <trkpt lat="48.96843" lon="-0.22014">
        <ele>144.3352051</ele>
        <time>2010-11-07T09:25:58Z</time>
      </trkpt>
      <trkpt lat="48.96853" lon="-0.22014">
        <ele>145.7770996</ele>
        <time>2010-11-07T09:26:05Z</time>
      </trkpt>
      <trkpt lat="48.96867" lon="-0.22012">
        <ele>147.699707</ele>
        <time>2010-11-07T09:26:13Z</time>
      </trkpt>
      <trkpt lat="48.96873" lon="-0.22011">
        <ele>147.699707</ele>
        <time>2010-11-07T09:26:19Z</time>
      </trkpt>
      <trkpt lat="48.96874" lon="-0.22011">
        <ele>147.699707</ele>
        <time>2010-11-07T09:26:20Z</time>
      </trkpt>
      <trkpt lat="48.96875" lon="-0.22012">
        <ele>148.1804199</ele>
        <time>2010-11-07T09:26:30Z</time>
      </trkpt>
      <trkpt lat="48.96877" lon="-0.22013">
        <ele>148.6610107</ele>
        <time>2010-11-07T09:26:33Z</time>
      </trkpt>
      <trkpt lat="48.96877" lon="-0.22013">
        <ele>148.6610107</ele>
        <time>2010-11-07T09:26:36Z</time>
      </trkpt>
      <trkpt lat="48.96878" lon="-0.22013">
        <ele>149.1416016</ele>
        <time>2010-11-07T09:26:37Z</time>
      </trkpt>
      <trkpt lat="48.96878" lon="-0.22014">
        <ele>149.1416016</ele>
        <time>2010-11-07T09:26:40Z</time>
      </trkpt>
      <trkpt lat="48.96879" lon="-0.22014">
        <ele>149.6223145</ele>
        <time>2010-11-07T09:26:41Z</time>
      </trkpt>
      <trkpt lat="48.96882" lon="-0.22013">
        <ele>151.5449219</ele>
        <time>2010-11-07T09:26:47Z</time>
      </trkpt>
      <trkpt lat="48.96883" lon="-0.22013">
        <ele>151.5449219</ele>
        <time>2010-11-07T09:26:49Z</time>
      </trkpt>
      <trkpt lat="48.96884" lon="-0.22011">
        <ele>151.5449219</ele>
        <time>2010-11-07T09:26:53Z</time>
      </trkpt>
      <trkpt lat="48.96884" lon="-0.2201">
        <ele>152.0257568</ele>
        <time>2010-11-07T09:26:54Z</time>
      </trkpt>
      <trkpt lat="48.96886" lon="-0.22006">
        <ele>152.5063477</ele>
        <time>2010-11-07T09:26:59Z</time>
      </trkpt>
      <trkpt lat="48.96886" lon="-0.22004">
        <ele>152.5063477</ele>
        <time>2010-11-07T09:27:01Z</time>
      </trkpt>
      <trkpt lat="48.96887" lon="-0.22003">
        <ele>152.5063477</ele>
        <time>2010-11-07T09:27:04Z</time>
      </trkpt>
      <trkpt lat="48.96887" lon="-0.22002">
        <ele>152.5063477</ele>
        <time>2010-11-07T09:27:05Z</time>
      </trkpt>
      <trkpt lat="48.96889" lon="-0.21997">
        <ele>152.0257568</ele>
        <time>2010-11-07T09:27:15Z</time>
      </trkpt>
      <trkpt lat="48.96888" lon="-0.21993">
        <ele>152.5063477</ele>
        <time>2010-11-07T09:27:17Z</time>
      </trkpt>
      <trkpt lat="48.96891" lon="-0.21977">
        <ele>153.4676514</ele>
        <time>2010-11-07T09:27:25Z</time>
      </trkpt>
      <trkpt lat="48.96891" lon="-0.21968">
        <ele>153.4676514</ele>
        <time>2010-11-07T09:27:31Z</time>
      </trkpt>
      <trkpt lat="48.96894" lon="-0.21962">
        <ele>154.9095459</ele>
        <time>2010-11-07T09:27:38Z</time>
      </trkpt>
      <trkpt lat="48.96895" lon="-0.21962">
        <ele>154.4289551</ele>
        <time>2010-11-07T09:27:39Z</time>
      </trkpt>
      <trkpt lat="48.96895" lon="-0.21962">
        <ele>154.4289551</ele>
        <time>2010-11-07T09:27:42Z</time>
      </trkpt>
      <trkpt lat="48.96896" lon="-0.21962">
        <ele>155.3902588</ele>
        <time>2010-11-07T09:27:43Z</time>
      </trkpt>
      <trkpt lat="48.96896" lon="-0.21961">
        <ele>155.8709717</ele>
        <time>2010-11-07T09:27:46Z</time>
      </trkpt>
      <trkpt lat="48.96899" lon="-0.21959">
        <ele>157.3128662</ele>
        <time>2010-11-07T09:27:51Z</time>
      </trkpt>
      <trkpt lat="48.96899" lon="-0.21958">
        <ele>156.8321533</ele>
        <time>2010-11-07T09:27:54Z</time>
      </trkpt>
      <trkpt lat="48.969" lon="-0.21958">
        <ele>157.3128662</ele>
        <time>2010-11-07T09:27:55Z</time>
      </trkpt>
      <trkpt lat="48.96905" lon="-0.21954">
        <ele>158.7547607</ele>
        <time>2010-11-07T09:28:03Z</time>
      </trkpt>
      <trkpt lat="48.96907" lon="-0.21953">
        <ele>159.2354736</ele>
        <time>2010-11-07T09:28:05Z</time>
      </trkpt>
      <trkpt lat="48.96909" lon="-0.21953">
        <ele>159.2354736</ele>
        <time>2010-11-07T09:28:09Z</time>
      </trkpt>
      <trkpt lat="48.96911" lon="-0.21951">
        <ele>159.7161865</ele>
        <time>2010-11-07T09:28:11Z</time>
      </trkpt>
      <trkpt lat="48.96912" lon="-0.2195">
        <ele>160.1968994</ele>
        <time>2010-11-07T09:28:14Z</time>
      </trkpt>
      <trkpt lat="48.96915" lon="-0.2195">
        <ele>161.1582031</ele>
        <time>2010-11-07T09:28:27Z</time>
      </trkpt>
      <trkpt lat="48.96917" lon="-0.21949">
        <ele>161.638916</ele>
        <time>2010-11-07T09:28:28Z</time>
      </trkpt>
      <trkpt lat="48.96925" lon="-0.21944">
        <ele>163.0808105</ele>
        <time>2010-11-07T09:28:36Z</time>
      </trkpt>
      <trkpt lat="48.96934" lon="-0.21939">
        <ele>163.5615234</ele>
        <time>2010-11-07T09:28:42Z</time>
      </trkpt>
      <trkpt lat="48.96943" lon="-0.21936">
        <ele>164.0421143</ele>
        <time>2010-11-07T09:28:49Z</time>
      </trkpt>
      <trkpt lat="48.96953" lon="-0.21934">
        <ele>165.003418</ele>
        <time>2010-11-07T09:28:55Z</time>
      </trkpt>
      <trkpt lat="48.9696" lon="-0.2194">
        <ele>165.9647217</ele>
        <time>2010-11-07T09:29:00Z</time>
      </trkpt>
      <trkpt lat="48.96968" lon="-0.21957">
        <ele>166.9260254</ele>
        <time>2010-11-07T09:29:07Z</time>
      </trkpt>
      <trkpt lat="48.96979" lon="-0.21984">
        <ele>166.9260254</ele>
        <time>2010-11-07T09:29:15Z</time>
      </trkpt>
      <trkpt lat="48.96986" lon="-0.22016">
        <ele>167.4067383</ele>
        <time>2010-11-07T09:29:23Z</time>
      </trkpt>
      <trkpt lat="48.96975" lon="-0.22026">
        <ele>167.8873291</ele>
        <time>2010-11-07T09:29:29Z</time>
      </trkpt>
      <trkpt lat="48.9696" lon="-0.22033">
        <ele>167.8873291</ele>
        <time>2010-11-07T09:29:34Z</time>
      </trkpt>
      <trkpt lat="48.96959" lon="-0.22054">
        <ele>167.8873291</ele>
        <time>2010-11-07T09:29:39Z</time>
      </trkpt>
      <trkpt lat="48.96967" lon="-0.22094">
        <ele>167.8873291</ele>
        <time>2010-11-07T09:29:48Z</time>
      </trkpt>
      <trkpt lat="48.96974" lon="-0.22115">
        <ele>168.368042</ele>
        <time>2010-11-07T09:29:54Z</time>
      </trkpt>
      <trkpt lat="48.96978" lon="-0.22128">
        <ele>168.8487549</ele>
        <time>2010-11-07T09:29:59Z</time>
      </trkpt>
      <trkpt lat="48.96987" lon="-0.22147">
        <ele>169.3294678</ele>
        <time>2010-11-07T09:30:05Z</time>
      </trkpt>
      <trkpt lat="48.96999" lon="-0.22163">
        <ele>168.8487549</ele>
        <time>2010-11-07T09:30:11Z</time>
      </trkpt>
      <trkpt lat="48.97012" lon="-0.22184">
        <ele>168.368042</ele>
        <time>2010-11-07T09:30:18Z</time>
      </trkpt>
      <trkpt lat="48.97029" lon="-0.22211">
        <ele>168.368042</ele>
        <time>2010-11-07T09:30:26Z</time>
      </trkpt>
      <trkpt lat="48.97042" lon="-0.22236">
        <ele>168.8487549</ele>
        <time>2010-11-07T09:30:34Z</time>
      </trkpt>
      <trkpt lat="48.97051" lon="-0.22256">
        <ele>168.368042</ele>
        <time>2010-11-07T09:30:40Z</time>
      </trkpt>
      <trkpt lat="48.97067" lon="-0.22288">
        <ele>168.8487549</ele>
        <time>2010-11-07T09:30:49Z</time>
      </trkpt>
      <trkpt lat="48.97074" lon="-0.22306">
        <ele>169.3294678</ele>
        <time>2010-11-07T09:30:55Z</time>
      </trkpt>
      <trkpt lat="48.97075" lon="-0.22308">
        <ele>168.8487549</ele>
        <time>2010-11-07T09:30:56Z</time>
      </trkpt>
      <trkpt lat="48.97075" lon="-0.22314">
        <ele>168.8487549</ele>
        <time>2010-11-07T09:30:59Z</time>
      </trkpt>
      <trkpt lat="48.97077" lon="-0.22318">
        <ele>168.8487549</ele>
        <time>2010-11-07T09:31:05Z</time>
      </trkpt>
      <trkpt lat="48.97077" lon="-0.22319">
        <ele>168.8487549</ele>
        <time>2010-11-07T09:31:45Z</time>
      </trkpt>
      <trkpt lat="48.97077" lon="-0.2232">
        <ele>168.8487549</ele>
        <time>2010-11-07T09:31:46Z</time>
      </trkpt>
      <trkpt lat="48.97074" lon="-0.2232">
        <ele>168.8487549</ele>
        <time>2010-11-07T09:31:49Z</time>
      </trkpt>
      <trkpt lat="48.97075" lon="-0.22308">
        <ele>168.368042</ele>
        <time>2010-11-07T09:31:56Z</time>
      </trkpt>
      <trkpt lat="48.97072" lon="-0.22297">
        <ele>167.8873291</ele>
        <time>2010-11-07T09:32:01Z</time>
      </trkpt>
      <trkpt lat="48.97068" lon="-0.22283">
        <ele>168.368042</ele>
        <time>2010-11-07T09:32:08Z</time>
      </trkpt>
      <trkpt lat="48.97065" lon="-0.22274">
        <ele>168.368042</ele>
        <time>2010-11-07T09:32:13Z</time>
      </trkpt>
      <trkpt lat="48.97058" lon="-0.2226">
        <ele>168.368042</ele>
        <time>2010-11-07T09:32:20Z</time>
      </trkpt>
      <trkpt lat="48.97049" lon="-0.22237">
        <ele>167.8873291</ele>
        <time>2010-11-07T09:32:30Z</time>
      </trkpt>
      <trkpt lat="48.97042" lon="-0.22224">
        <ele>167.4067383</ele>
        <time>2010-11-07T09:32:36Z</time>
      </trkpt>
      <trkpt lat="48.97032" lon="-0.22207">
        <ele>167.8873291</ele>
        <time>2010-11-07T09:32:43Z</time>
      </trkpt>
      <trkpt lat="48.97015" lon="-0.2218">
        <ele>167.8873291</ele>
        <time>2010-11-07T09:32:54Z</time>
      </trkpt>
      <trkpt lat="48.97002" lon="-0.2216">
        <ele>168.368042</ele>
        <time>2010-11-07T09:33:02Z</time>
      </trkpt>
      <trkpt lat="48.96989" lon="-0.2214">
        <ele>169.3294678</ele>
        <time>2010-11-07T09:33:11Z</time>
      </trkpt>
      <trkpt lat="48.96981" lon="-0.22117">
        <ele>168.368042</ele>
        <time>2010-11-07T09:33:20Z</time>
      </trkpt>
      <trkpt lat="48.9698" lon="-0.2211">
        <ele>167.8873291</ele>
        <time>2010-11-07T09:33:22Z</time>
      </trkpt>
      <trkpt lat="48.96973" lon="-0.22091">
        <ele>167.8873291</ele>
        <time>2010-11-07T09:33:29Z</time>
      </trkpt>
      <trkpt lat="48.96966" lon="-0.2206">
        <ele>167.8873291</ele>
        <time>2010-11-07T09:33:37Z</time>
      </trkpt>
      <trkpt lat="48.96963" lon="-0.22037">
        <ele>167.4067383</ele>
        <time>2010-11-07T09:33:42Z</time>
      </trkpt>
      <trkpt lat="48.9697" lon="-0.22023">
        <ele>167.4067383</ele>
        <time>2010-11-07T09:33:46Z</time>
      </trkpt>
      <trkpt lat="48.96972" lon="-0.22022">
        <ele>167.4067383</ele>
        <time>2010-11-07T09:33:47Z</time>
      </trkpt>
      <trkpt lat="48.96988" lon="-0.22013">
        <ele>167.4067383</ele>
        <time>2010-11-07T09:33:54Z</time>
      </trkpt>
      <trkpt lat="48.96987" lon="-0.21993">
        <ele>166.9260254</ele>
        <time>2010-11-07T09:33:58Z</time>
      </trkpt>
      <trkpt lat="48.96985" lon="-0.21987">
        <ele>167.4067383</ele>
        <time>2010-11-07T09:33:59Z</time>
      </trkpt>
      <trkpt lat="48.96966" lon="-0.2194">
        <ele>165.4841309</ele>
        <time>2010-11-07T09:34:08Z</time>
      </trkpt>
      <trkpt lat="48.96962" lon="-0.21928">
        <ele>165.003418</ele>
        <time>2010-11-07T09:34:10Z</time>
      </trkpt>
      <trkpt lat="48.96949" lon="-0.21862">
        <ele>163.5615234</ele>
        <time>2010-11-07T09:34:18Z</time>
      </trkpt>
      <trkpt lat="48.96941" lon="-0.21821">
        <ele>163.5615234</ele>
        <time>2010-11-07T09:34:24Z</time>
      </trkpt>
      <trkpt lat="48.9693" lon="-0.21768">
        <ele>165.003418</ele>
        <time>2010-11-07T09:34:33Z</time>
      </trkpt>
      <trkpt lat="48.96925" lon="-0.2174">
        <ele>165.003418</ele>
        <time>2010-11-07T09:34:38Z</time>
      </trkpt>
      <trkpt lat="48.96922" lon="-0.21718">
        <ele>164.5227051</ele>
        <time>2010-11-07T09:34:41Z</time>
      </trkpt>
      <trkpt lat="48.96918" lon="-0.21704">
        <ele>164.5227051</ele>
        <time>2010-11-07T09:34:43Z</time>
      </trkpt>
      <trkpt lat="48.9691" lon="-0.21658">
        <ele>166.4453125</ele>
        <time>2010-11-07T09:34:50Z</time>
      </trkpt>
      <trkpt lat="48.96902" lon="-0.21612">
        <ele>165.003418</ele>
        <time>2010-11-07T09:34:57Z</time>
      </trkpt>
      <trkpt lat="48.96897" lon="-0.2158">
        <ele>163.5615234</ele>
        <time>2010-11-07T09:35:02Z</time>
      </trkpt>
      <trkpt lat="48.96896" lon="-0.21578">
        <ele>163.0808105</ele>
        <time>2010-11-07T09:35:05Z</time>
      </trkpt>
      <trkpt lat="48.96896" lon="-0.21577">
        <ele>162.6000977</ele>
        <time>2010-11-07T09:35:08Z</time>
      </trkpt>
      <trkpt lat="48.96897" lon="-0.21575">
        <ele>163.0808105</ele>
        <time>2010-11-07T09:35:09Z</time>
      </trkpt>
      <trkpt lat="48.96909" lon="-0.21567">
        <ele>163.5615234</ele>
        <time>2010-11-07T09:35:14Z</time>
      </trkpt>
      <trkpt lat="48.96927" lon="-0.21562">
        <ele>165.003418</ele>
        <time>2010-11-07T09:35:20Z</time>
      </trkpt>
      <trkpt lat="48.96942" lon="-0.21555">
        <ele>165.003418</ele>
        <time>2010-11-07T09:35:26Z</time>
      </trkpt>
      <trkpt lat="48.96949" lon="-0.21552">
        <ele>165.003418</ele>
        <time>2010-11-07T09:35:29Z</time>
      </trkpt>
      <trkpt lat="48.96958" lon="-0.21562">
        <ele>164.0421143</ele>
        <time>2010-11-07T09:35:33Z</time>
      </trkpt>
      <trkpt lat="48.96966" lon="-0.21585">
        <ele>165.003418</ele>
        <time>2010-11-07T09:35:40Z</time>
      </trkpt>
      <trkpt lat="48.96972" lon="-0.21609">
        <ele>165.003418</ele>
        <time>2010-11-07T09:35:46Z</time>
      </trkpt>
      <trkpt lat="48.96979" lon="-0.21641">
        <ele>164.5227051</ele>
        <time>2010-11-07T09:35:52Z</time>
      </trkpt>
      <trkpt lat="48.96986" lon="-0.21682">
        <ele>165.4841309</ele>
        <time>2010-11-07T09:36:00Z</time>
      </trkpt>
      <trkpt lat="48.96991" lon="-0.21699">
        <ele>165.4841309</ele>
        <time>2010-11-07T09:36:05Z</time>
      </trkpt>
      <trkpt lat="48.97005" lon="-0.21714">
        <ele>164.5227051</ele>
        <time>2010-11-07T09:36:10Z</time>
      </trkpt>
      <trkpt lat="48.97014" lon="-0.2173">
        <ele>164.5227051</ele>
        <time>2010-11-07T09:36:14Z</time>
      </trkpt>
      <trkpt lat="48.97025" lon="-0.21752">
        <ele>163.5615234</ele>
        <time>2010-11-07T09:36:20Z</time>
      </trkpt>
      <trkpt lat="48.97029" lon="-0.21756">
        <ele>163.0808105</ele>
        <time>2010-11-07T09:36:22Z</time>
      </trkpt>
      <trkpt lat="48.97042" lon="-0.21765">
        <ele>160.1968994</ele>
        <time>2010-11-07T09:36:27Z</time>
      </trkpt>
      <trkpt lat="48.97045" lon="-0.2177">
        <ele>159.7161865</ele>
        <time>2010-11-07T09:36:28Z</time>
      </trkpt>
      <trkpt lat="48.97062" lon="-0.21808">
        <ele>155.8709717</ele>
        <time>2010-11-07T09:36:35Z</time>
      </trkpt>
      <trkpt lat="48.97072" lon="-0.21831">
        <ele>152.0257568</ele>
        <time>2010-11-07T09:36:40Z</time>
      </trkpt>
      <trkpt lat="48.97074" lon="-0.21838">
        <ele>150.5836182</ele>
        <time>2010-11-07T09:36:42Z</time>
      </trkpt>
      <trkpt lat="48.97083" lon="-0.21858">
        <ele>147.2189941</ele>
        <time>2010-11-07T09:36:47Z</time>
      </trkpt>
      <trkpt lat="48.97092" lon="-0.2188">
        <ele>143.8543701</ele>
        <time>2010-11-07T09:36:52Z</time>
      </trkpt>
      <trkpt lat="48.97102" lon="-0.21905">
        <ele>140.970459</ele>
        <time>2010-11-07T09:36:57Z</time>
      </trkpt>
      <trkpt lat="48.97107" lon="-0.21914">
        <ele>140.0091553</ele>
        <time>2010-11-07T09:36:59Z</time>
      </trkpt>
      <trkpt lat="48.97121" lon="-0.21917">
        <ele>137.605835</ele>
        <time>2010-11-07T09:37:04Z</time>
      </trkpt>
      <trkpt lat="48.97143" lon="-0.21906">
        <ele>135.2025146</ele>
        <time>2010-11-07T09:37:09Z</time>
      </trkpt>
      <trkpt lat="48.97172" lon="-0.21892">
        <ele>132.7993164</ele>
        <time>2010-11-07T09:37:14Z</time>
      </trkpt>
      <trkpt lat="48.97205" lon="-0.21876">
        <ele>131.3572998</ele>
        <time>2010-11-07T09:37:20Z</time>
      </trkpt>
      <trkpt lat="48.97225" lon="-0.21863">
        <ele>129.9152832</ele>
        <time>2010-11-07T09:37:24Z</time>
      </trkpt>
      <trkpt lat="48.97252" lon="-0.21842">
        <ele>128.9541016</ele>
        <time>2010-11-07T09:37:30Z</time>
      </trkpt>
      <trkpt lat="48.97266" lon="-0.21832">
        <ele>129.9152832</ele>
        <time>2010-11-07T09:37:34Z</time>
      </trkpt>
      <trkpt lat="48.9729" lon="-0.21823">
        <ele>129.4346924</ele>
        <time>2010-11-07T09:37:41Z</time>
      </trkpt>
      <trkpt lat="48.97301" lon="-0.21819">
        <ele>126.5506592</ele>
        <time>2010-11-07T09:37:45Z</time>
      </trkpt>
      <trkpt lat="48.97303" lon="-0.21819">
        <ele>126.5506592</ele>
        <time>2010-11-07T09:37:46Z</time>
      </trkpt>
      <trkpt lat="48.97306" lon="-0.21818">
        <ele>125.5893555</ele>
        <time>2010-11-07T09:37:47Z</time>
      </trkpt>
      <trkpt lat="48.97314" lon="-0.2183">
        <ele>124.1473389</ele>
        <time>2010-11-07T09:37:50Z</time>
      </trkpt>
      <trkpt lat="48.97316" lon="-0.21837">
        <ele>124.6280518</ele>
        <time>2010-11-07T09:37:51Z</time>
      </trkpt>
      <trkpt lat="48.97329" lon="-0.21874">
        <ele>121.7441406</ele>
        <time>2010-11-07T09:37:55Z</time>
      </trkpt>
      <trkpt lat="48.97342" lon="-0.21909">
        <ele>119.3408203</ele>
        <time>2010-11-07T09:37:59Z</time>
      </trkpt>
      <trkpt lat="48.97347" lon="-0.21922">
        <ele>118.3793945</ele>
        <time>2010-11-07T09:38:02Z</time>
      </trkpt>
      <trkpt lat="48.97354" lon="-0.21925">
        <ele>117.8988037</ele>
        <time>2010-11-07T09:38:08Z</time>
      </trkpt>
      <trkpt lat="48.97355" lon="-0.21923">
        <ele>117.8988037</ele>
        <time>2010-11-07T09:38:17Z</time>
      </trkpt>
      <trkpt lat="48.97356" lon="-0.21919">
        <ele>117.8988037</ele>
        <time>2010-11-07T09:38:19Z</time>
      </trkpt>
      <trkpt lat="48.97367" lon="-0.21918">
        <ele>117.4182129</ele>
        <time>2010-11-07T09:38:25Z</time>
      </trkpt>
      <trkpt lat="48.97377" lon="-0.21919">
        <ele>117.8988037</ele>
        <time>2010-11-07T09:38:29Z</time>
      </trkpt>
      <trkpt lat="48.97381" lon="-0.2192">
        <ele>117.4182129</ele>
        <time>2010-11-07T09:38:30Z</time>
      </trkpt>
      <trkpt lat="48.97408" lon="-0.21926">
        <ele>117.4182129</ele>
        <time>2010-11-07T09:38:37Z</time>
      </trkpt>
      <trkpt lat="48.97438" lon="-0.21932">
        <ele>117.4182129</ele>
        <time>2010-11-07T09:38:43Z</time>
      </trkpt>
      <trkpt lat="48.97449" lon="-0.21932">
        <ele>116.4567871</ele>
        <time>2010-11-07T09:38:45Z</time>
      </trkpt>
      <trkpt lat="48.97466" lon="-0.21923">
        <ele>117.4182129</ele>
        <time>2010-11-07T09:38:49Z</time>
      </trkpt>
      <trkpt lat="48.97468" lon="-0.21919">
        <ele>117.8988037</ele>
        <time>2010-11-07T09:38:50Z</time>
      </trkpt>
      <trkpt lat="48.97472" lon="-0.21911">
        <ele>118.8601074</ele>
        <time>2010-11-07T09:38:53Z</time>
      </trkpt>
      <trkpt lat="48.97472" lon="-0.21901">
        <ele>120.302124</ele>
        <time>2010-11-07T09:38:57Z</time>
      </trkpt>
      <trkpt lat="48.9747" lon="-0.21887">
        <ele>121.7441406</ele>
        <time>2010-11-07T09:39:03Z</time>
      </trkpt>
      <trkpt lat="48.97472" lon="-0.21881">
        <ele>122.7054443</ele>
        <time>2010-11-07T09:39:06Z</time>
      </trkpt>
      <trkpt lat="48.9748" lon="-0.21879">
        <ele>124.1473389</ele>
        <time>2010-11-07T09:39:11Z</time>
      </trkpt>
      <trkpt lat="48.97493" lon="-0.21884">
        <ele>125.5893555</ele>
        <time>2010-11-07T09:39:20Z</time>
      </trkpt>
      <trkpt lat="48.97504" lon="-0.2189">
        <ele>127.0313721</ele>
        <time>2010-11-07T09:39:28Z</time>
      </trkpt>
      <trkpt lat="48.97512" lon="-0.21893">
        <ele>128.9541016</ele>
        <time>2010-11-07T09:39:35Z</time>
      </trkpt>
      <trkpt lat="48.9752" lon="-0.2189">
        <ele>130.3959961</ele>
        <time>2010-11-07T09:39:42Z</time>
      </trkpt>
      <trkpt lat="48.97527" lon="-0.21885">
        <ele>131.8378906</ele>
        <time>2010-11-07T09:39:50Z</time>
      </trkpt>
      <trkpt lat="48.97534" lon="-0.2188">
        <ele>133.2799072</ele>
        <time>2010-11-07T09:39:57Z</time>
      </trkpt>
      <trkpt lat="48.97543" lon="-0.21872">
        <ele>135.2025146</ele>
        <time>2010-11-07T09:40:06Z</time>
      </trkpt>
      <trkpt lat="48.97552" lon="-0.21866">
        <ele>136.6446533</ele>
        <time>2010-11-07T09:40:14Z</time>
      </trkpt>
      <trkpt lat="48.97564" lon="-0.21856">
        <ele>137.1252441</ele>
        <time>2010-11-07T09:40:23Z</time>
      </trkpt>
      <trkpt lat="48.97577" lon="-0.21847">
        <ele>138.0865479</ele>
        <time>2010-11-07T09:40:31Z</time>
      </trkpt>
      <trkpt lat="48.97589" lon="-0.2184">
        <ele>139.0478516</ele>
        <time>2010-11-07T09:40:38Z</time>
      </trkpt>
      <trkpt lat="48.97603" lon="-0.21832">
        <ele>139.5284424</ele>
        <time>2010-11-07T09:40:44Z</time>
      </trkpt>
      <trkpt lat="48.97621" lon="-0.21824">
        <ele>139.0478516</ele>
        <time>2010-11-07T09:40:50Z</time>
      </trkpt>
      <trkpt lat="48.97633" lon="-0.21817">
        <ele>138.5672607</ele>
        <time>2010-11-07T09:40:53Z</time>
      </trkpt>
      <trkpt lat="48.97637" lon="-0.21815">
        <ele>137.605835</ele>
        <time>2010-11-07T09:40:54Z</time>
      </trkpt>
      <trkpt lat="48.9766" lon="-0.21792">
        <ele>137.1252441</ele>
        <time>2010-11-07T09:41:00Z</time>
      </trkpt>
      <trkpt lat="48.97674" lon="-0.21781">
        <ele>138.0865479</ele>
        <time>2010-11-07T09:41:05Z</time>
      </trkpt>
      <trkpt lat="48.97685" lon="-0.21771">
        <ele>139.0478516</ele>
        <time>2010-11-07T09:41:10Z</time>
      </trkpt>
      <trkpt lat="48.97694" lon="-0.21763">
        <ele>140.0091553</ele>
        <time>2010-11-07T09:41:15Z</time>
      </trkpt>
      <trkpt lat="48.97707" lon="-0.21754">
        <ele>140.970459</ele>
        <time>2010-11-07T09:41:23Z</time>
      </trkpt>
      <trkpt lat="48.97718" lon="-0.21745">
        <ele>142.8930664</ele>
        <time>2010-11-07T09:41:31Z</time>
      </trkpt>
      <trkpt lat="48.9773" lon="-0.21737">
        <ele>145.2963867</ele>
        <time>2010-11-07T09:41:40Z</time>
      </trkpt>
      <trkpt lat="48.97743" lon="-0.21729">
        <ele>146.7384033</ele>
        <time>2010-11-07T09:41:49Z</time>
      </trkpt>
      <trkpt lat="48.9775" lon="-0.21714">
        <ele>147.2189941</ele>
        <time>2010-11-07T09:41:56Z</time>
      </trkpt>
      <trkpt lat="48.97749" lon="-0.21695">
        <ele>147.699707</ele>
        <time>2010-11-07T09:42:03Z</time>
      </trkpt>
      <trkpt lat="48.97743" lon="-0.21672">
        <ele>147.699707</ele>
        <time>2010-11-07T09:42:10Z</time>
      </trkpt>
      <trkpt lat="48.97738" lon="-0.21646">
        <ele>148.6610107</ele>
        <time>2010-11-07T09:42:17Z</time>
      </trkpt>
      <trkpt lat="48.97733" lon="-0.21628">
        <ele>149.1416016</ele>
        <time>2010-11-07T09:42:22Z</time>
      </trkpt>
      <trkpt lat="48.97725" lon="-0.21605">
        <ele>149.6223145</ele>
        <time>2010-11-07T09:42:28Z</time>
      </trkpt>
      <trkpt lat="48.97719" lon="-0.21583">
        <ele>150.1030273</ele>
        <time>2010-11-07T09:42:34Z</time>
      </trkpt>
      <trkpt lat="48.97713" lon="-0.21559">
        <ele>150.1030273</ele>
        <time>2010-11-07T09:42:40Z</time>
      </trkpt>
      <trkpt lat="48.97709" lon="-0.21534">
        <ele>150.5836182</ele>
        <time>2010-11-07T09:42:46Z</time>
      </trkpt>
      <trkpt lat="48.97702" lon="-0.21502">
        <ele>151.064209</ele>
        <time>2010-11-07T09:42:53Z</time>
      </trkpt>
      <trkpt lat="48.97697" lon="-0.2148">
        <ele>151.064209</ele>
        <time>2010-11-07T09:42:59Z</time>
      </trkpt>
      <trkpt lat="48.97695" lon="-0.21473">
        <ele>151.5449219</ele>
        <time>2010-11-07T09:43:01Z</time>
      </trkpt>
      <trkpt lat="48.97692" lon="-0.21443">
        <ele>151.5449219</ele>
        <time>2010-11-07T09:43:08Z</time>
      </trkpt>
      <trkpt lat="48.97685" lon="-0.21405">
        <ele>152.5063477</ele>
        <time>2010-11-07T09:43:15Z</time>
      </trkpt>
      <trkpt lat="48.9768" lon="-0.21361">
        <ele>153.4676514</ele>
        <time>2010-11-07T09:43:23Z</time>
      </trkpt>
      <trkpt lat="48.97674" lon="-0.21318">
        <ele>154.4289551</ele>
        <time>2010-11-07T09:43:31Z</time>
      </trkpt>
      <trkpt lat="48.97669" lon="-0.21274">
        <ele>156.3515625</ele>
        <time>2010-11-07T09:43:40Z</time>
      </trkpt>
      <trkpt lat="48.97665" lon="-0.21221">
        <ele>157.7935791</ele>
        <time>2010-11-07T09:43:51Z</time>
      </trkpt>
      <trkpt lat="48.97676" lon="-0.21213">
        <ele>157.7935791</ele>
        <time>2010-11-07T09:43:55Z</time>
      </trkpt>
      <trkpt lat="48.97713" lon="-0.21218">
        <ele>156.8321533</ele>
        <time>2010-11-07T09:44:05Z</time>
      </trkpt>
      <trkpt lat="48.97734" lon="-0.21221">
        <ele>155.8709717</ele>
        <time>2010-11-07T09:44:10Z</time>
      </trkpt>
      <trkpt lat="48.97741" lon="-0.21216">
        <ele>155.3902588</ele>
        <time>2010-11-07T09:44:12Z</time>
      </trkpt>
      <trkpt lat="48.97742" lon="-0.21199">
        <ele>155.8709717</ele>
        <time>2010-11-07T09:44:15Z</time>
      </trkpt>
      <trkpt lat="48.97741" lon="-0.21194">
        <ele>155.8709717</ele>
        <time>2010-11-07T09:44:16Z</time>
      </trkpt>
      <trkpt lat="48.97728" lon="-0.21138">
        <ele>156.8321533</ele>
        <time>2010-11-07T09:44:26Z</time>
      </trkpt>
      <trkpt lat="48.97719" lon="-0.21087">
        <ele>157.7935791</ele>
        <time>2010-11-07T09:44:35Z</time>
      </trkpt>
      <trkpt lat="48.97712" lon="-0.21041">
        <ele>158.2741699</ele>
        <time>2010-11-07T09:44:43Z</time>
      </trkpt>
      <trkpt lat="48.97704" lon="-0.20984">
        <ele>158.7547607</ele>
        <time>2010-11-07T09:44:53Z</time>
      </trkpt>
      <trkpt lat="48.97699" lon="-0.20949">
        <ele>159.2354736</ele>
        <time>2010-11-07T09:45:00Z</time>
      </trkpt>
      <trkpt lat="48.97692" lon="-0.20902">
        <ele>159.2354736</ele>
        <time>2010-11-07T09:45:09Z</time>
      </trkpt>
      <trkpt lat="48.97688" lon="-0.20857">
        <ele>159.2354736</ele>
        <time>2010-11-07T09:45:18Z</time>
      </trkpt>
      <trkpt lat="48.97681" lon="-0.20808">
        <ele>159.2354736</ele>
        <time>2010-11-07T09:45:27Z</time>
      </trkpt>
      <trkpt lat="48.97674" lon="-0.20758">
        <ele>159.2354736</ele>
        <time>2010-11-07T09:45:36Z</time>
      </trkpt>
      <trkpt lat="48.97668" lon="-0.20714">
        <ele>158.7547607</ele>
        <time>2010-11-07T09:45:44Z</time>
      </trkpt>
      <trkpt lat="48.97664" lon="-0.20685">
        <ele>158.2741699</ele>
        <time>2010-11-07T09:45:49Z</time>
      </trkpt>
      <trkpt lat="48.97668" lon="-0.20658">
        <ele>158.7547607</ele>
        <time>2010-11-07T09:45:53Z</time>
      </trkpt>
      <trkpt lat="48.97689" lon="-0.20611">
        <ele>156.8321533</ele>
        <time>2010-11-07T09:46:01Z</time>
      </trkpt>
      <trkpt lat="48.97717" lon="-0.20549">
        <ele>155.3902588</ele>
        <time>2010-11-07T09:46:11Z</time>
      </trkpt>
      <trkpt lat="48.97746" lon="-0.20485">
        <ele>153.9483643</ele>
        <time>2010-11-07T09:46:21Z</time>
      </trkpt>
      <trkpt lat="48.97755" lon="-0.20463">
        <ele>152.5063477</ele>
        <time>2010-11-07T09:46:26Z</time>
      </trkpt>
      <trkpt lat="48.97758" lon="-0.20457">
        <ele>152.5063477</ele>
        <time>2010-11-07T09:46:29Z</time>
      </trkpt>
      <trkpt lat="48.97765" lon="-0.20462">
        <ele>152.5063477</ele>
        <time>2010-11-07T09:46:33Z</time>
      </trkpt>
      <trkpt lat="48.97777" lon="-0.2048">
        <ele>153.4676514</ele>
        <time>2010-11-07T09:46:41Z</time>
      </trkpt>
      <trkpt lat="48.97788" lon="-0.20496">
        <ele>153.9483643</ele>
        <time>2010-11-07T09:46:46Z</time>
      </trkpt>
      <trkpt lat="48.97806" lon="-0.20528">
        <ele>154.9095459</ele>
        <time>2010-11-07T09:46:55Z</time>
      </trkpt>
      <trkpt lat="48.97826" lon="-0.20561">
        <ele>155.3902588</ele>
        <time>2010-11-07T09:47:04Z</time>
      </trkpt>
      <trkpt lat="48.97848" lon="-0.20599">
        <ele>155.8709717</ele>
        <time>2010-11-07T09:47:14Z</time>
      </trkpt>
      <trkpt lat="48.97863" lon="-0.20623">
        <ele>154.9095459</ele>
        <time>2010-11-07T09:47:20Z</time>
      </trkpt>
      <trkpt lat="48.97886" lon="-0.20667">
        <ele>153.4676514</ele>
        <time>2010-11-07T09:47:28Z</time>
      </trkpt>
      <trkpt lat="48.97892" lon="-0.2068">
        <ele>152.5063477</ele>
        <time>2010-11-07T09:47:30Z</time>
      </trkpt>
      <trkpt lat="48.97903" lon="-0.20708">
        <ele>152.0257568</ele>
        <time>2010-11-07T09:47:34Z</time>
      </trkpt>
      <trkpt lat="48.97924" lon="-0.2076">
        <ele>150.5836182</ele>
        <time>2010-11-07T09:47:42Z</time>
      </trkpt>
      <trkpt lat="48.97945" lon="-0.20809">
        <ele>149.1416016</ele>
        <time>2010-11-07T09:47:49Z</time>
      </trkpt>
      <trkpt lat="48.97967" lon="-0.20847">
        <ele>148.1804199</ele>
        <time>2010-11-07T09:47:55Z</time>
      </trkpt>
      <trkpt lat="48.97995" lon="-0.20893">
        <ele>145.7770996</ele>
        <time>2010-11-07T09:48:02Z</time>
      </trkpt>
      <trkpt lat="48.98019" lon="-0.20933">
        <ele>142.8930664</ele>
        <time>2010-11-07T09:48:07Z</time>
      </trkpt>
      <trkpt lat="48.98038" lon="-0.20969">
        <ele>140.0091553</ele>
        <time>2010-11-07T09:48:11Z</time>
      </trkpt>
      <trkpt lat="48.98048" lon="-0.20998">
        <ele>137.605835</ele>
        <time>2010-11-07T09:48:14Z</time>
      </trkpt>
      <trkpt lat="48.98056" lon="-0.21031">
        <ele>134.7219238</ele>
        <time>2010-11-07T09:48:17Z</time>
      </trkpt>
      <trkpt lat="48.98066" lon="-0.21071">
        <ele>131.3572998</ele>
        <time>2010-11-07T09:48:21Z</time>
      </trkpt>
      <trkpt lat="48.98071" lon="-0.2109">
        <ele>130.3959961</ele>
        <time>2010-11-07T09:48:23Z</time>
      </trkpt>
      <trkpt lat="48.98089" lon="-0.21122">
        <ele>126.0699463</ele>
        <time>2010-11-07T09:48:28Z</time>
      </trkpt>
      <trkpt lat="48.98115" lon="-0.21144">
        <ele>121.7441406</ele>
        <time>2010-11-07T09:48:33Z</time>
      </trkpt>
      <trkpt lat="48.9813" lon="-0.21157">
        <ele>118.3793945</ele>
        <time>2010-11-07T09:48:36Z</time>
      </trkpt>
      <trkpt lat="48.98153" lon="-0.21178">
        <ele>114.5341797</ele>
        <time>2010-11-07T09:48:41Z</time>
      </trkpt>
      <trkpt lat="48.98166" lon="-0.2119">
        <ele>112.1309814</ele>
        <time>2010-11-07T09:48:45Z</time>
      </trkpt>
      <trkpt lat="48.98172" lon="-0.2119">
        <ele>110.6888428</ele>
        <time>2010-11-07T09:48:48Z</time>
      </trkpt>
      <trkpt lat="48.98174" lon="-0.21187">
        <ele>110.208252</ele>
        <time>2010-11-07T09:48:52Z</time>
      </trkpt>
      <trkpt lat="48.98175" lon="-0.21183">
        <ele>110.208252</ele>
        <time>2010-11-07T09:50:25Z</time>
      </trkpt>
      <trkpt lat="48.98176" lon="-0.21183">
        <ele>109.7276611</ele>
        <time>2010-11-07T09:50:28Z</time>
      </trkpt>
      <trkpt lat="48.98169" lon="-0.21184">
        <ele>109.2469482</ele>
        <time>2010-11-07T09:52:52Z</time>
      </trkpt>
      <trkpt lat="48.98169" lon="-0.21183">
        <ele>110.208252</ele>
        <time>2010-11-07T09:52:53Z</time>
      </trkpt>
      <trkpt lat="48.98169" lon="-0.21183">
        <ele>110.208252</ele>
        <time>2010-11-07T09:52:54Z</time>
      </trkpt>
      <trkpt lat="48.9817" lon="-0.21183">
        <ele>110.208252</ele>
        <time>2010-11-07T09:53:02Z</time>
      </trkpt>
      <trkpt lat="48.98171" lon="-0.21183">
        <ele>110.208252</ele>
        <time>2010-11-07T09:53:03Z</time>
      </trkpt>
      <trkpt lat="48.98172" lon="-0.21181">
        <ele>109.7276611</ele>
        <time>2010-11-07T09:53:11Z</time>
      </trkpt>
      <trkpt lat="48.98176" lon="-0.21167">
        <ele>109.7276611</ele>
        <time>2010-11-07T09:53:16Z</time>
      </trkpt>
      <trkpt lat="48.9818" lon="-0.21153">
        <ele>109.7276611</ele>
        <time>2010-11-07T09:53:22Z</time>
      </trkpt>
      <trkpt lat="48.9818" lon="-0.2115">
        <ele>109.7276611</ele>
        <time>2010-11-07T09:53:26Z</time>
      </trkpt>
      <trkpt lat="48.98183" lon="-0.21148">
        <ele>109.7276611</ele>
        <time>2010-11-07T09:59:15Z</time>
      </trkpt>
      <trkpt lat="48.98184" lon="-0.21147">
        <ele>109.7276611</ele>
        <time>2010-11-07T09:59:16Z</time>
      </trkpt>
      <trkpt lat="48.98188" lon="-0.21132">
        <ele>109.7276611</ele>
        <time>2010-11-07T09:59:21Z</time>
      </trkpt>
      <trkpt lat="48.98196" lon="-0.21104">
        <ele>109.7276611</ele>
        <time>2010-11-07T09:59:29Z</time>
      </trkpt>
      <trkpt lat="48.98206" lon="-0.21077">
        <ele>109.2469482</ele>
        <time>2010-11-07T09:59:36Z</time>
      </trkpt>
      <trkpt lat="48.98212" lon="-0.2106">
        <ele>109.2469482</ele>
        <time>2010-11-07T09:59:40Z</time>
      </trkpt>
      <trkpt lat="48.98224" lon="-0.21023">
        <ele>109.2469482</ele>
        <time>2010-11-07T09:59:48Z</time>
      </trkpt>
      <trkpt lat="48.98238" lon="-0.20987">
        <ele>109.2469482</ele>
        <time>2010-11-07T09:59:56Z</time>
      </trkpt>
      <trkpt lat="48.98248" lon="-0.20961">
        <ele>109.2469482</ele>
        <time>2010-11-07T10:00:02Z</time>
      </trkpt>
      <trkpt lat="48.98262" lon="-0.20921">
        <ele>109.7276611</ele>
        <time>2010-11-07T10:00:11Z</time>
      </trkpt>
      <trkpt lat="48.98272" lon="-0.20892">
        <ele>109.7276611</ele>
        <time>2010-11-07T10:00:18Z</time>
      </trkpt>
      <trkpt lat="48.98289" lon="-0.20855">
        <ele>110.208252</ele>
        <time>2010-11-07T10:00:27Z</time>
      </trkpt>
      <trkpt lat="48.98301" lon="-0.20828">
        <ele>110.208252</ele>
        <time>2010-11-07T10:00:34Z</time>
      </trkpt>
      <trkpt lat="48.98316" lon="-0.208">
        <ele>110.6888428</ele>
        <time>2010-11-07T10:00:42Z</time>
      </trkpt>
      <trkpt lat="48.98329" lon="-0.20776">
        <ele>111.6502686</ele>
        <time>2010-11-07T10:00:49Z</time>
      </trkpt>
      <trkpt lat="48.98344" lon="-0.2075">
        <ele>112.6115723</ele>
        <time>2010-11-07T10:00:57Z</time>
      </trkpt>
      <trkpt lat="48.98353" lon="-0.20739">
        <ele>112.6115723</ele>
        <time>2010-11-07T10:01:01Z</time>
      </trkpt>
      <trkpt lat="48.98372" lon="-0.20739">
        <ele>111.6502686</ele>
        <time>2010-11-07T10:01:07Z</time>
      </trkpt>
      <trkpt lat="48.98389" lon="-0.20742">
        <ele>110.208252</ele>
        <time>2010-11-07T10:01:11Z</time>
      </trkpt>
      <trkpt lat="48.9841" lon="-0.2074">
        <ele>107.8050537</ele>
        <time>2010-11-07T10:01:15Z</time>
      </trkpt>
      <trkpt lat="48.98432" lon="-0.20736">
        <ele>105.4017334</ele>
        <time>2010-11-07T10:01:19Z</time>
      </trkpt>
      <trkpt lat="48.98448" lon="-0.20735">
        <ele>102.998291</ele>
        <time>2010-11-07T10:01:23Z</time>
      </trkpt>
      <trkpt lat="48.98462" lon="-0.2076">
        <ele>101.5563965</ele>
        <time>2010-11-07T10:01:27Z</time>
      </trkpt>
      <trkpt lat="48.98484" lon="-0.20794">
        <ele>98.1918945</ele>
        <time>2010-11-07T10:01:32Z</time>
      </trkpt>
      <trkpt lat="48.98489" lon="-0.20801">
        <ele>97.7111816</ele>
        <time>2010-11-07T10:01:33Z</time>
      </trkpt>
      <trkpt lat="48.98512" lon="-0.20818">
        <ele>96.2692871</ele>
        <time>2010-11-07T10:01:38Z</time>
      </trkpt>
      <trkpt lat="48.98518" lon="-0.20813">
        <ele>95.7884521</ele>
        <time>2010-11-07T10:01:40Z</time>
      </trkpt>
      <trkpt lat="48.98539" lon="-0.20772">
        <ele>96.2692871</ele>
        <time>2010-11-07T10:01:47Z</time>
      </trkpt>
      <trkpt lat="48.98545" lon="-0.20761">
        <ele>95.7884521</ele>
        <time>2010-11-07T10:01:49Z</time>
      </trkpt>
      <trkpt lat="48.9856" lon="-0.20719">
        <ele>96.2692871</ele>
        <time>2010-11-07T10:01:56Z</time>
      </trkpt>
      <trkpt lat="48.98574" lon="-0.20682">
        <ele>97.2304688</ele>
        <time>2010-11-07T10:02:03Z</time>
      </trkpt>
      <trkpt lat="48.98588" lon="-0.20653">
        <ele>96.7498779</ele>
        <time>2010-11-07T10:02:09Z</time>
      </trkpt>
      <trkpt lat="48.98595" lon="-0.20646">
        <ele>96.2692871</ele>
        <time>2010-11-07T10:02:11Z</time>
      </trkpt>
      <trkpt lat="48.98626" lon="-0.20629">
        <ele>94.3465576</ele>
        <time>2010-11-07T10:02:18Z</time>
      </trkpt>
      <trkpt lat="48.98631" lon="-0.20626">
        <ele>93.3851318</ele>
        <time>2010-11-07T10:02:19Z</time>
      </trkpt>
      <trkpt lat="48.98665" lon="-0.20581">
        <ele>92.4239502</ele>
        <time>2010-11-07T10:02:28Z</time>
      </trkpt>
      <trkpt lat="48.98674" lon="-0.20574">
        <ele>91.9432373</ele>
        <time>2010-11-07T10:02:30Z</time>
      </trkpt>
      <trkpt lat="48.98688" lon="-0.20552">
        <ele>90.9819336</ele>
        <time>2010-11-07T10:02:34Z</time>
      </trkpt>
      <trkpt lat="48.98709" lon="-0.20544">
        <ele>89.539917</ele>
        <time>2010-11-07T10:02:39Z</time>
      </trkpt>
      <trkpt lat="48.9873" lon="-0.20551">
        <ele>88.0980225</ele>
        <time>2010-11-07T10:02:44Z</time>
      </trkpt>
      <trkpt lat="48.98733" lon="-0.20552">
        <ele>88.0980225</ele>
        <time>2010-11-07T10:02:45Z</time>
      </trkpt>
      <trkpt lat="48.9874" lon="-0.20571">
        <ele>87.6171875</ele>
        <time>2010-11-07T10:02:50Z</time>
      </trkpt>
      <trkpt lat="48.98741" lon="-0.20575">
        <ele>87.6171875</ele>
        <time>2010-11-07T10:02:51Z</time>
      </trkpt>
      <trkpt lat="48.98742" lon="-0.20604">
        <ele>87.1365967</ele>
        <time>2010-11-07T10:02:57Z</time>
      </trkpt>
      <trkpt lat="48.98751" lon="-0.20623">
        <ele>85.6945801</ele>
        <time>2010-11-07T10:03:05Z</time>
      </trkpt>
      <trkpt lat="48.98758" lon="-0.20636">
        <ele>85.6945801</ele>
        <time>2010-11-07T10:03:11Z</time>
      </trkpt>
      <trkpt lat="48.98768" lon="-0.20654">
        <ele>84.7333984</ele>
        <time>2010-11-07T10:03:17Z</time>
      </trkpt>
      <trkpt lat="48.98782" lon="-0.20671">
        <ele>84.2526855</ele>
        <time>2010-11-07T10:03:23Z</time>
      </trkpt>
      <trkpt lat="48.9879" lon="-0.20681">
        <ele>84.7333984</ele>
        <time>2010-11-07T10:03:29Z</time>
      </trkpt>
      <trkpt lat="48.98793" lon="-0.20686">
        <ele>84.7333984</ele>
        <time>2010-11-07T10:03:34Z</time>
      </trkpt>
      <trkpt lat="48.98794" lon="-0.20687">
        <ele>84.7333984</ele>
        <time>2010-11-07T10:03:35Z</time>
      </trkpt>
      <trkpt lat="48.98799" lon="-0.20699">
        <ele>84.7333984</ele>
        <time>2010-11-07T10:04:08Z</time>
      </trkpt>
      <trkpt lat="48.98801" lon="-0.20702">
        <ele>84.2526855</ele>
        <time>2010-11-07T10:04:13Z</time>
      </trkpt>
      <trkpt lat="48.98804" lon="-0.20704">
        <ele>84.7333984</ele>
        <time>2010-11-07T10:04:30Z</time>
      </trkpt>
      <trkpt lat="48.98806" lon="-0.20705">
        <ele>84.2526855</ele>
        <time>2010-11-07T10:04:33Z</time>
      </trkpt>
      <trkpt lat="48.9881" lon="-0.20706">
        <ele>85.2139893</ele>
        <time>2010-11-07T10:04:40Z</time>
      </trkpt>
      <trkpt lat="48.98811" lon="-0.20707">
        <ele>84.7333984</ele>
        <time>2010-11-07T10:04:41Z</time>
      </trkpt>
      <trkpt lat="48.98814" lon="-0.20709">
        <ele>84.7333984</ele>
        <time>2010-11-07T10:04:42Z</time>
      </trkpt>
      <trkpt lat="48.98815" lon="-0.2071">
        <ele>85.6945801</ele>
        <time>2010-11-07T10:04:43Z</time>
      </trkpt>
      <trkpt lat="48.98818" lon="-0.20718">
        <ele>85.6945801</ele>
        <time>2010-11-07T10:04:47Z</time>
      </trkpt>
      <trkpt lat="48.9882" lon="-0.2072">
        <ele>85.6945801</ele>
        <time>2010-11-07T10:04:48Z</time>
      </trkpt>
      <trkpt lat="48.98827" lon="-0.20733">
        <ele>86.175293</ele>
        <time>2010-11-07T10:04:54Z</time>
      </trkpt>
      <trkpt lat="48.98839" lon="-0.20745">
        <ele>87.1365967</ele>
        <time>2010-11-07T10:05:00Z</time>
      </trkpt>
      <trkpt lat="48.9885" lon="-0.20757">
        <ele>88.0980225</ele>
        <time>2010-11-07T10:05:06Z</time>
      </trkpt>
      <trkpt lat="48.98859" lon="-0.20766">
        <ele>88.0980225</ele>
        <time>2010-11-07T10:05:12Z</time>
      </trkpt>
      <trkpt lat="48.98861" lon="-0.20783">
        <ele>88.0980225</ele>
        <time>2010-11-07T10:05:47Z</time>
      </trkpt>
      <trkpt lat="48.98867" lon="-0.20788">
        <ele>88.5787354</ele>
        <time>2010-11-07T10:05:52Z</time>
      </trkpt>
      <trkpt lat="48.98874" lon="-0.20794">
        <ele>89.0593262</ele>
        <time>2010-11-07T10:05:58Z</time>
      </trkpt>
      <trkpt lat="48.98882" lon="-0.20805">
        <ele>89.539917</ele>
        <time>2010-11-07T10:06:05Z</time>
      </trkpt>
      <trkpt lat="48.98889" lon="-0.20812">
        <ele>90.5013428</ele>
        <time>2010-11-07T10:06:11Z</time>
      </trkpt>
      <trkpt lat="48.98897" lon="-0.20818">
        <ele>90.9819336</ele>
        <time>2010-11-07T10:06:16Z</time>
      </trkpt>
      <trkpt lat="48.98909" lon="-0.20831">
        <ele>91.9432373</ele>
        <time>2010-11-07T10:06:22Z</time>
      </trkpt>
      <trkpt lat="48.98918" lon="-0.20837">
        <ele>92.4239502</ele>
        <time>2010-11-07T10:06:27Z</time>
      </trkpt>
      <trkpt lat="48.98928" lon="-0.20846">
        <ele>93.3851318</ele>
        <time>2010-11-07T10:06:33Z</time>
      </trkpt>
      <trkpt lat="48.98938" lon="-0.20856">
        <ele>94.3465576</ele>
        <time>2010-11-07T10:06:40Z</time>
      </trkpt>
      <trkpt lat="48.98949" lon="-0.20867">
        <ele>94.8271484</ele>
        <time>2010-11-07T10:06:47Z</time>
      </trkpt>
      <trkpt lat="48.98961" lon="-0.20879">
        <ele>95.7884521</ele>
        <time>2010-11-07T10:06:55Z</time>
      </trkpt>
      <trkpt lat="48.9897" lon="-0.20887">
        <ele>96.2692871</ele>
        <time>2010-11-07T10:06:59Z</time>
      </trkpt>
      <trkpt lat="48.98977" lon="-0.20894">
        <ele>96.7498779</ele>
        <time>2010-11-07T10:07:04Z</time>
      </trkpt>
      <trkpt lat="48.98985" lon="-0.20902">
        <ele>97.7111816</ele>
        <time>2010-11-07T10:07:11Z</time>
      </trkpt>
      <trkpt lat="48.98995" lon="-0.20913">
        <ele>98.1918945</ele>
        <time>2010-11-07T10:07:17Z</time>
      </trkpt>
      <trkpt lat="48.99006" lon="-0.20923">
        <ele>99.1530762</ele>
        <time>2010-11-07T10:07:23Z</time>
      </trkpt>
      <trkpt lat="48.99013" lon="-0.20929">
        <ele>99.6337891</ele>
        <time>2010-11-07T10:07:27Z</time>
      </trkpt>
      <trkpt lat="48.9902" lon="-0.20936">
        <ele>100.5950928</ele>
        <time>2010-11-07T10:07:32Z</time>
      </trkpt>
      <trkpt lat="48.99026" lon="-0.20943">
        <ele>101.0756836</ele>
        <time>2010-11-07T10:07:37Z</time>
      </trkpt>
      <trkpt lat="48.99036" lon="-0.20954">
        <ele>102.0371094</ele>
        <time>2010-11-07T10:07:44Z</time>
      </trkpt>
      <trkpt lat="48.99046" lon="-0.20965">
        <ele>103.4790039</ele>
        <time>2010-11-07T10:07:51Z</time>
      </trkpt>
      <trkpt lat="48.99051" lon="-0.2097">
        <ele>103.9597168</ele>
        <time>2010-11-07T10:07:55Z</time>
      </trkpt>
      <trkpt lat="48.99052" lon="-0.20971">
        <ele>103.9597168</ele>
        <time>2010-11-07T10:07:58Z</time>
      </trkpt>
      <trkpt lat="48.99055" lon="-0.20975">
        <ele>103.9597168</ele>
        <time>2010-11-07T10:07:59Z</time>
      </trkpt>
      <trkpt lat="48.99065" lon="-0.20986">
        <ele>104.9210205</ele>
        <time>2010-11-07T10:08:04Z</time>
      </trkpt>
      <trkpt lat="48.99078" lon="-0.20999">
        <ele>105.8824463</ele>
        <time>2010-11-07T10:08:12Z</time>
      </trkpt>
      <trkpt lat="48.99091" lon="-0.21012">
        <ele>106.8436279</ele>
        <time>2010-11-07T10:08:20Z</time>
      </trkpt>
      <trkpt lat="48.99104" lon="-0.21026">
        <ele>108.2856445</ele>
        <time>2010-11-07T10:08:28Z</time>
      </trkpt>
      <trkpt lat="48.99118" lon="-0.21044">
        <ele>109.2469482</ele>
        <time>2010-11-07T10:08:36Z</time>
      </trkpt>
      <trkpt lat="48.99126" lon="-0.21054">
        <ele>109.7276611</ele>
        <time>2010-11-07T10:08:42Z</time>
      </trkpt>
      <trkpt lat="48.99124" lon="-0.21069">
        <ele>109.7276611</ele>
        <time>2010-11-07T10:08:49Z</time>
      </trkpt>
      <trkpt lat="48.99123" lon="-0.21071">
        <ele>109.7276611</ele>
        <time>2010-11-07T10:08:50Z</time>
      </trkpt>
      <trkpt lat="48.99122" lon="-0.21075">
        <ele>109.7276611</ele>
        <time>2010-11-07T10:08:55Z</time>
      </trkpt>
      <trkpt lat="48.99121" lon="-0.21076">
        <ele>109.7276611</ele>
        <time>2010-11-07T10:09:40Z</time>
      </trkpt>
      <trkpt lat="48.99121" lon="-0.21078">
        <ele>109.7276611</ele>
        <time>2010-11-07T10:09:41Z</time>
      </trkpt>
      <trkpt lat="48.99114" lon="-0.21088">
        <ele>109.7276611</ele>
        <time>2010-11-07T10:09:46Z</time>
      </trkpt>
      <trkpt lat="48.9911" lon="-0.21097">
        <ele>109.7276611</ele>
        <time>2010-11-07T10:09:49Z</time>
      </trkpt>
      <trkpt lat="48.99107" lon="-0.21103">
        <ele>109.7276611</ele>
        <time>2010-11-07T10:09:51Z</time>
      </trkpt>
      <trkpt lat="48.99091" lon="-0.21134">
        <ele>109.7276611</ele>
        <time>2010-11-07T10:10:00Z</time>
      </trkpt>
      <trkpt lat="48.9908" lon="-0.21153">
        <ele>110.208252</ele>
        <time>2010-11-07T10:10:06Z</time>
      </trkpt>
      <trkpt lat="48.99074" lon="-0.21163">
        <ele>110.208252</ele>
        <time>2010-11-07T10:10:09Z</time>
      </trkpt>
      <trkpt lat="48.99057" lon="-0.21194">
        <ele>110.208252</ele>
        <time>2010-11-07T10:10:18Z</time>
      </trkpt>
      <trkpt lat="48.99034" lon="-0.21227">
        <ele>110.6888428</ele>
        <time>2010-11-07T10:10:28Z</time>
      </trkpt>
      <trkpt lat="48.99009" lon="-0.2126">
        <ele>112.1309814</ele>
        <time>2010-11-07T10:10:38Z</time>
      </trkpt>
      <trkpt lat="48.98991" lon="-0.2129">
        <ele>113.0922852</ele>
        <time>2010-11-07T10:10:46Z</time>
      </trkpt>
      <trkpt lat="48.9898" lon="-0.21311">
        <ele>113.572998</ele>
        <time>2010-11-07T10:10:51Z</time>
      </trkpt>
      <trkpt lat="48.98973" lon="-0.21329">
        <ele>114.0535889</ele>
        <time>2010-11-07T10:10:55Z</time>
      </trkpt>
      <trkpt lat="48.98958" lon="-0.21373">
        <ele>114.5341797</ele>
        <time>2010-11-07T10:11:04Z</time>
      </trkpt>
      <trkpt lat="48.98943" lon="-0.21421">
        <ele>115.9761963</ele>
        <time>2010-11-07T10:11:14Z</time>
      </trkpt>
      <trkpt lat="48.98933" lon="-0.21456">
        <ele>116.4567871</ele>
        <time>2010-11-07T10:11:21Z</time>
      </trkpt>
      <trkpt lat="48.98915" lon="-0.21511">
        <ele>116.4567871</ele>
        <time>2010-11-07T10:11:31Z</time>
      </trkpt>
      <trkpt lat="48.98903" lon="-0.21561">
        <ele>115.4956055</ele>
        <time>2010-11-07T10:11:39Z</time>
      </trkpt>
      <trkpt lat="48.98894" lon="-0.21618">
        <ele>114.0535889</ele>
        <time>2010-11-07T10:11:46Z</time>
      </trkpt>
      <trkpt lat="48.98887" lon="-0.2167">
        <ele>110.6888428</ele>
        <time>2010-11-07T10:11:51Z</time>
      </trkpt>
      <trkpt lat="48.98886" lon="-0.21682">
        <ele>110.208252</ele>
        <time>2010-11-07T10:11:52Z</time>
      </trkpt>
      <trkpt lat="48.98881" lon="-0.21721">
        <ele>110.6888428</ele>
        <time>2010-11-07T10:11:56Z</time>
      </trkpt>
      <trkpt lat="48.98875" lon="-0.21763">
        <ele>113.572998</ele>
        <time>2010-11-07T10:12:02Z</time>
      </trkpt>
      <trkpt lat="48.98869" lon="-0.21812">
        <ele>114.5341797</ele>
        <time>2010-11-07T10:12:10Z</time>
      </trkpt>
      <trkpt lat="48.98866" lon="-0.21837">
        <ele>115.9761963</ele>
        <time>2010-11-07T10:12:14Z</time>
      </trkpt>
      <trkpt lat="48.98865" lon="-0.2185">
        <ele>116.4567871</ele>
        <time>2010-11-07T10:12:16Z</time>
      </trkpt>
      <trkpt lat="48.98864" lon="-0.21863">
        <ele>116.9375</ele>
        <time>2010-11-07T10:12:18Z</time>
      </trkpt>
      <trkpt lat="48.98859" lon="-0.21888">
        <ele>118.3793945</ele>
        <time>2010-11-07T10:12:22Z</time>
      </trkpt>
      <trkpt lat="48.98851" lon="-0.21928">
        <ele>119.8214111</ele>
        <time>2010-11-07T10:12:29Z</time>
      </trkpt>
      <trkpt lat="48.98846" lon="-0.21934">
        <ele>119.3408203</ele>
        <time>2010-11-07T10:12:31Z</time>
      </trkpt>
      <trkpt lat="48.98826" lon="-0.2197">
        <ele>117.4182129</ele>
        <time>2010-11-07T10:12:37Z</time>
      </trkpt>
      <trkpt lat="48.98808" lon="-0.22022">
        <ele>114.5341797</ele>
        <time>2010-11-07T10:12:43Z</time>
      </trkpt>
      <trkpt lat="48.98777" lon="-0.22077">
        <ele>113.572998</ele>
        <time>2010-11-07T10:12:50Z</time>
      </trkpt>
      <trkpt lat="48.98766" lon="-0.22095">
        <ele>114.0535889</ele>
        <time>2010-11-07T10:12:53Z</time>
      </trkpt>
      <trkpt lat="48.98749" lon="-0.22102">
        <ele>114.5341797</ele>
        <time>2010-11-07T10:12:57Z</time>
      </trkpt>
      <trkpt lat="48.98745" lon="-0.22099">
        <ele>114.5341797</ele>
        <time>2010-11-07T10:12:58Z</time>
      </trkpt>
      <trkpt lat="48.9871" lon="-0.22078">
        <ele>115.0148926</ele>
        <time>2010-11-07T10:13:06Z</time>
      </trkpt>
      <trkpt lat="48.98696" lon="-0.22057">
        <ele>114.5341797</ele>
        <time>2010-11-07T10:13:10Z</time>
      </trkpt>
      <trkpt lat="48.98687" lon="-0.22047">
        <ele>114.5341797</ele>
        <time>2010-11-07T10:13:12Z</time>
      </trkpt>
      <trkpt lat="48.98648" lon="-0.2203">
        <ele>115.0148926</ele>
        <time>2010-11-07T10:13:20Z</time>
      </trkpt>
      <trkpt lat="48.98607" lon="-0.22021">
        <ele>112.6115723</ele>
        <time>2010-11-07T10:13:27Z</time>
      </trkpt>
      <trkpt lat="48.98571" lon="-0.22015">
        <ele>109.7276611</ele>
        <time>2010-11-07T10:13:32Z</time>
      </trkpt>
      <trkpt lat="48.98538" lon="-0.22012">
        <ele>106.8436279</ele>
        <time>2010-11-07T10:13:36Z</time>
      </trkpt>
      <trkpt lat="48.98504" lon="-0.22008">
        <ele>103.9597168</ele>
        <time>2010-11-07T10:13:40Z</time>
      </trkpt>
      <trkpt lat="48.98498" lon="-0.22007">
        <ele>102.998291</ele>
        <time>2010-11-07T10:13:41Z</time>
      </trkpt>
      <trkpt lat="48.98483" lon="-0.21992">
        <ele>102.0371094</ele>
        <time>2010-11-07T10:13:45Z</time>
      </trkpt>
      <trkpt lat="48.98473" lon="-0.21981">
        <ele>102.5177002</ele>
        <time>2010-11-07T10:13:48Z</time>
      </trkpt>
      <trkpt lat="48.9843" lon="-0.21966">
        <ele>103.9597168</ele>
        <time>2010-11-07T10:13:58Z</time>
      </trkpt>
      <trkpt lat="48.98395" lon="-0.21956">
        <ele>103.9597168</ele>
        <time>2010-11-07T10:14:07Z</time>
      </trkpt>
      <trkpt lat="48.98391" lon="-0.21956">
        <ele>103.4790039</ele>
        <time>2010-11-07T10:14:08Z</time>
      </trkpt>
      <trkpt lat="48.98384" lon="-0.21966">
        <ele>104.4404297</ele>
        <time>2010-11-07T10:14:13Z</time>
      </trkpt>
      <trkpt lat="48.98382" lon="-0.21975">
        <ele>105.4017334</ele>
        <time>2010-11-07T10:14:18Z</time>
      </trkpt>
      <trkpt lat="48.98382" lon="-0.2198">
        <ele>105.8824463</ele>
        <time>2010-11-07T10:14:21Z</time>
      </trkpt>
      <trkpt lat="48.98382" lon="-0.21984">
        <ele>107.3243408</ele>
        <time>2010-11-07T10:14:23Z</time>
      </trkpt>
      <trkpt lat="48.98381" lon="-0.21991">
        <ele>108.2856445</ele>
        <time>2010-11-07T10:14:29Z</time>
      </trkpt>
      <trkpt lat="48.98373" lon="-0.21991">
        <ele>108.2856445</ele>
        <time>2010-11-07T10:14:35Z</time>
      </trkpt>
      <trkpt lat="48.98361" lon="-0.2199">
        <ele>109.2469482</ele>
        <time>2010-11-07T10:14:43Z</time>
      </trkpt>
      <trkpt lat="48.9836" lon="-0.2199">
        <ele>109.2469482</ele>
        <time>2010-11-07T10:14:44Z</time>
      </trkpt>
      <trkpt lat="48.98351" lon="-0.2199">
        <ele>109.7276611</ele>
        <time>2010-11-07T10:14:49Z</time>
      </trkpt>
      <trkpt lat="48.98337" lon="-0.21985">
        <ele>110.208252</ele>
        <time>2010-11-07T10:14:56Z</time>
      </trkpt>
      <trkpt lat="48.98322" lon="-0.21977">
        <ele>110.208252</ele>
        <time>2010-11-07T10:15:02Z</time>
      </trkpt>
      <trkpt lat="48.98305" lon="-0.21968">
        <ele>110.6888428</ele>
        <time>2010-11-07T10:15:08Z</time>
      </trkpt>
      <trkpt lat="48.98286" lon="-0.21958">
        <ele>110.208252</ele>
        <time>2010-11-07T10:15:14Z</time>
      </trkpt>
      <trkpt lat="48.98275" lon="-0.21951">
        <ele>110.6888428</ele>
        <time>2010-11-07T10:15:18Z</time>
      </trkpt>
      <trkpt lat="48.98257" lon="-0.21947">
        <ele>111.1695557</ele>
        <time>2010-11-07T10:15:24Z</time>
      </trkpt>
      <trkpt lat="48.98234" lon="-0.21959">
        <ele>111.6502686</ele>
        <time>2010-11-07T10:15:32Z</time>
      </trkpt>
      <trkpt lat="48.98216" lon="-0.21969">
        <ele>112.1309814</ele>
        <time>2010-11-07T10:15:38Z</time>
      </trkpt>
      <trkpt lat="48.98192" lon="-0.21981">
        <ele>111.6502686</ele>
        <time>2010-11-07T10:15:46Z</time>
      </trkpt>
      <trkpt lat="48.98157" lon="-0.21995">
        <ele>112.6115723</ele>
        <time>2010-11-07T10:15:57Z</time>
      </trkpt>
      <trkpt lat="48.98135" lon="-0.22">
        <ele>111.6502686</ele>
        <time>2010-11-07T10:16:04Z</time>
      </trkpt>
      <trkpt lat="48.98117" lon="-0.22003">
        <ele>110.6888428</ele>
        <time>2010-11-07T10:16:09Z</time>
      </trkpt>
      <trkpt lat="48.98103" lon="-0.22008">
        <ele>108.7662354</ele>
        <time>2010-11-07T10:16:12Z</time>
      </trkpt>
      <trkpt lat="48.98083" lon="-0.22009">
        <ele>107.3243408</ele>
        <time>2010-11-07T10:16:15Z</time>
      </trkpt>
      <trkpt lat="48.98071" lon="-0.22007">
        <ele>106.8436279</ele>
        <time>2010-11-07T10:16:17Z</time>
      </trkpt>
      <trkpt lat="48.98046" lon="-0.22008">
        <ele>107.8050537</ele>
        <time>2010-11-07T10:16:22Z</time>
      </trkpt>
      <trkpt lat="48.98018" lon="-0.22013">
        <ele>108.7662354</ele>
        <time>2010-11-07T10:16:29Z</time>
      </trkpt>
      <trkpt lat="48.97998" lon="-0.22016">
        <ele>109.2469482</ele>
        <time>2010-11-07T10:16:35Z</time>
      </trkpt>
      <trkpt lat="48.97982" lon="-0.22019">
        <ele>110.208252</ele>
        <time>2010-11-07T10:16:41Z</time>
      </trkpt>
      <trkpt lat="48.97963" lon="-0.22025">
        <ele>111.1695557</ele>
        <time>2010-11-07T10:16:48Z</time>
      </trkpt>
      <trkpt lat="48.97947" lon="-0.22028">
        <ele>110.208252</ele>
        <time>2010-11-07T10:16:54Z</time>
      </trkpt>
      <trkpt lat="48.97927" lon="-0.22029">
        <ele>111.1695557</ele>
        <time>2010-11-07T10:17:00Z</time>
      </trkpt>
      <trkpt lat="48.97908" lon="-0.22033">
        <ele>112.1309814</ele>
        <time>2010-11-07T10:17:08Z</time>
      </trkpt>
      <trkpt lat="48.97896" lon="-0.22036">
        <ele>113.572998</ele>
        <time>2010-11-07T10:17:14Z</time>
      </trkpt>
      <trkpt lat="48.97884" lon="-0.22039">
        <ele>114.5341797</ele>
        <time>2010-11-07T10:17:20Z</time>
      </trkpt>
      <trkpt lat="48.97875" lon="-0.2204">
        <ele>115.4956055</ele>
        <time>2010-11-07T10:17:25Z</time>
      </trkpt>
      <trkpt lat="48.97869" lon="-0.22041">
        <ele>115.4956055</ele>
        <time>2010-11-07T10:17:29Z</time>
      </trkpt>
      <trkpt lat="48.97858" lon="-0.22044">
        <ele>115.4956055</ele>
        <time>2010-11-07T10:17:35Z</time>
      </trkpt>
      <trkpt lat="48.97845" lon="-0.22046">
        <ele>115.0148926</ele>
        <time>2010-11-07T10:17:40Z</time>
      </trkpt>
      <trkpt lat="48.97823" lon="-0.22052">
        <ele>115.0148926</ele>
        <time>2010-11-07T10:17:47Z</time>
      </trkpt>
      <trkpt lat="48.978" lon="-0.22052">
        <ele>114.5341797</ele>
        <time>2010-11-07T10:17:53Z</time>
      </trkpt>
      <trkpt lat="48.97786" lon="-0.22052">
        <ele>113.572998</ele>
        <time>2010-11-07T10:17:57Z</time>
      </trkpt>
      <trkpt lat="48.97757" lon="-0.22049">
        <ele>112.1309814</ele>
        <time>2010-11-07T10:18:03Z</time>
      </trkpt>
      <trkpt lat="48.97743" lon="-0.22052">
        <ele>111.6502686</ele>
        <time>2010-11-07T10:18:06Z</time>
      </trkpt>
      <trkpt lat="48.97708" lon="-0.22064">
        <ele>112.1309814</ele>
        <time>2010-11-07T10:18:14Z</time>
      </trkpt>
      <trkpt lat="48.97677" lon="-0.22081">
        <ele>112.1309814</ele>
        <time>2010-11-07T10:18:21Z</time>
      </trkpt>
      <trkpt lat="48.97652" lon="-0.221">
        <ele>111.6502686</ele>
        <time>2010-11-07T10:18:27Z</time>
      </trkpt>
      <trkpt lat="48.97635" lon="-0.22116">
        <ele>112.1309814</ele>
        <time>2010-11-07T10:18:32Z</time>
      </trkpt>
      <trkpt lat="48.97614" lon="-0.22135">
        <ele>112.1309814</ele>
        <time>2010-11-07T10:18:37Z</time>
      </trkpt>
      <trkpt lat="48.9761" lon="-0.22139">
        <ele>112.1309814</ele>
        <time>2010-11-07T10:18:38Z</time>
      </trkpt>
      <trkpt lat="48.97602" lon="-0.22149">
        <ele>112.1309814</ele>
        <time>2010-11-07T10:18:40Z</time>
      </trkpt>
      <trkpt lat="48.97593" lon="-0.22167">
        <ele>111.6502686</ele>
        <time>2010-11-07T10:18:43Z</time>
      </trkpt>
      <trkpt lat="48.97578" lon="-0.22211">
        <ele>112.6115723</ele>
        <time>2010-11-07T10:18:50Z</time>
      </trkpt>
      <trkpt lat="48.97567" lon="-0.22242">
        <ele>114.0535889</ele>
        <time>2010-11-07T10:18:56Z</time>
      </trkpt>
      <trkpt lat="48.97562" lon="-0.22266">
        <ele>115.0148926</ele>
        <time>2010-11-07T10:19:01Z</time>
      </trkpt>
      <trkpt lat="48.97556" lon="-0.22298">
        <ele>115.9761963</ele>
        <time>2010-11-07T10:19:08Z</time>
      </trkpt>
      <trkpt lat="48.97551" lon="-0.22332">
        <ele>117.8988037</ele>
        <time>2010-11-07T10:19:16Z</time>
      </trkpt>
      <trkpt lat="48.97545" lon="-0.22359">
        <ele>118.3793945</ele>
        <time>2010-11-07T10:19:23Z</time>
      </trkpt>
      <trkpt lat="48.9753" lon="-0.22376">
        <ele>119.3408203</ele>
        <time>2010-11-07T10:19:30Z</time>
      </trkpt>
      <trkpt lat="48.97513" lon="-0.22392">
        <ele>118.8601074</ele>
        <time>2010-11-07T10:19:37Z</time>
      </trkpt>
      <trkpt lat="48.975" lon="-0.22404">
        <ele>118.8601074</ele>
        <time>2010-11-07T10:19:43Z</time>
      </trkpt>
      <trkpt lat="48.97491" lon="-0.22411">
        <ele>119.8214111</ele>
        <time>2010-11-07T10:19:48Z</time>
      </trkpt>
      <trkpt lat="48.97483" lon="-0.22422">
        <ele>119.8214111</ele>
        <time>2010-11-07T10:19:54Z</time>
      </trkpt>
      <trkpt lat="48.97473" lon="-0.22434">
        <ele>120.7828369</ele>
        <time>2010-11-07T10:20:01Z</time>
      </trkpt>
      <trkpt lat="48.97471" lon="-0.22438">
        <ele>120.7828369</ele>
        <time>2010-11-07T10:20:04Z</time>
      </trkpt>
      <trkpt lat="48.9747" lon="-0.22439">
        <ele>121.2635498</ele>
        <time>2010-11-07T10:20:07Z</time>
      </trkpt>
      <trkpt lat="48.97469" lon="-0.22443">
        <ele>121.7441406</ele>
        <time>2010-11-07T10:20:09Z</time>
      </trkpt>
      <trkpt lat="48.97464" lon="-0.2245">
        <ele>123.1861572</ele>
        <time>2010-11-07T10:20:16Z</time>
      </trkpt>
      <trkpt lat="48.97463" lon="-0.22452">
        <ele>123.666748</ele>
        <time>2010-11-07T10:20:19Z</time>
      </trkpt>
      <trkpt lat="48.97457" lon="-0.2246">
        <ele>124.6280518</ele>
        <time>2010-11-07T10:20:23Z</time>
      </trkpt>
      <trkpt lat="48.9745" lon="-0.22468">
        <ele>126.0699463</ele>
        <time>2010-11-07T10:20:32Z</time>
      </trkpt>
      <trkpt lat="48.97445" lon="-0.22469">
        <ele>127.0313721</ele>
        <time>2010-11-07T10:20:38Z</time>
      </trkpt>
      <trkpt lat="48.97436" lon="-0.22471">
        <ele>127.9925537</ele>
        <time>2010-11-07T10:20:46Z</time>
      </trkpt>
      <trkpt lat="48.97424" lon="-0.22474">
        <ele>127.9925537</ele>
        <time>2010-11-07T10:20:54Z</time>
      </trkpt>
      <trkpt lat="48.9741" lon="-0.2248">
        <ele>128.9541016</ele>
        <time>2010-11-07T10:21:02Z</time>
      </trkpt>
      <trkpt lat="48.97399" lon="-0.22481">
        <ele>129.9152832</ele>
        <time>2010-11-07T10:21:09Z</time>
      </trkpt>
      <trkpt lat="48.97389" lon="-0.22481">
        <ele>131.8378906</ele>
        <time>2010-11-07T10:21:17Z</time>
      </trkpt>
      <trkpt lat="48.97382" lon="-0.22483">
        <ele>131.8378906</ele>
        <time>2010-11-07T10:21:23Z</time>
      </trkpt>
      <trkpt lat="48.97375" lon="-0.22484">
        <ele>132.3186035</ele>
        <time>2010-11-07T10:21:28Z</time>
      </trkpt>
      <trkpt lat="48.97364" lon="-0.22484">
        <ele>132.7993164</ele>
        <time>2010-11-07T10:21:35Z</time>
      </trkpt>
      <trkpt lat="48.97356" lon="-0.22487">
        <ele>133.760498</ele>
        <time>2010-11-07T10:21:42Z</time>
      </trkpt>
      <trkpt lat="48.97346" lon="-0.2249">
        <ele>134.7219238</ele>
        <time>2010-11-07T10:21:49Z</time>
      </trkpt>
      <trkpt lat="48.97335" lon="-0.22493">
        <ele>136.1639404</ele>
        <time>2010-11-07T10:21:57Z</time>
      </trkpt>
      <trkpt lat="48.97327" lon="-0.22492">
        <ele>137.1252441</ele>
        <time>2010-11-07T10:22:04Z</time>
      </trkpt>
      <trkpt lat="48.97319" lon="-0.22492">
        <ele>138.0865479</ele>
        <time>2010-11-07T10:22:11Z</time>
      </trkpt>
      <trkpt lat="48.97309" lon="-0.22492">
        <ele>139.5284424</ele>
        <time>2010-11-07T10:22:20Z</time>
      </trkpt>
      <trkpt lat="48.973" lon="-0.22493">
        <ele>140.0091553</ele>
        <time>2010-11-07T10:22:27Z</time>
      </trkpt>
      <trkpt lat="48.97292" lon="-0.22495">
        <ele>140.970459</ele>
        <time>2010-11-07T10:22:34Z</time>
      </trkpt>
      <trkpt lat="48.97285" lon="-0.22495">
        <ele>140.970459</ele>
        <time>2010-11-07T10:22:39Z</time>
      </trkpt>
      <trkpt lat="48.97279" lon="-0.22498">
        <ele>142.4124756</ele>
        <time>2010-11-07T10:22:46Z</time>
      </trkpt>
      <trkpt lat="48.97273" lon="-0.22498">
        <ele>143.8543701</ele>
        <time>2010-11-07T10:22:52Z</time>
      </trkpt>
      <trkpt lat="48.97272" lon="-0.22498">
        <ele>143.8543701</ele>
        <time>2010-11-07T10:22:53Z</time>
      </trkpt>
      <trkpt lat="48.9727" lon="-0.22499">
        <ele>143.8543701</ele>
        <time>2010-11-07T10:22:58Z</time>
      </trkpt>
      <trkpt lat="48.97268" lon="-0.22499">
        <ele>144.3352051</ele>
        <time>2010-11-07T10:23:00Z</time>
      </trkpt>
      <trkpt lat="48.97266" lon="-0.22499">
        <ele>143.8543701</ele>
        <time>2010-11-07T10:23:03Z</time>
      </trkpt>
      <trkpt lat="48.97264" lon="-0.225">
        <ele>144.8157959</ele>
        <time>2010-11-07T10:23:04Z</time>
      </trkpt>
      <trkpt lat="48.97263" lon="-0.225">
        <ele>144.8157959</ele>
        <time>2010-11-07T10:23:07Z</time>
      </trkpt>
      <trkpt lat="48.97262" lon="-0.22501">
        <ele>145.2963867</ele>
        <time>2010-11-07T10:23:08Z</time>
      </trkpt>
      <trkpt lat="48.97261" lon="-0.22501">
        <ele>145.2963867</ele>
        <time>2010-11-07T10:23:11Z</time>
      </trkpt>
      <trkpt lat="48.97261" lon="-0.22501">
        <ele>145.2963867</ele>
        <time>2010-11-07T10:23:12Z</time>
      </trkpt>
      <trkpt lat="48.97259" lon="-0.22501">
        <ele>146.2578125</ele>
        <time>2010-11-07T10:23:13Z</time>
      </trkpt>
      <trkpt lat="48.97256" lon="-0.22501">
        <ele>147.699707</ele>
        <time>2010-11-07T10:23:20Z</time>
      </trkpt>
      <trkpt lat="48.97256" lon="-0.22501">
        <ele>147.699707</ele>
        <time>2010-11-07T10:23:21Z</time>
      </trkpt>
      <trkpt lat="48.97255" lon="-0.22502">
        <ele>148.1804199</ele>
        <time>2010-11-07T10:23:22Z</time>
      </trkpt>
      <trkpt lat="48.97254" lon="-0.22502">
        <ele>148.6610107</ele>
        <time>2010-11-07T10:23:25Z</time>
      </trkpt>
      <trkpt lat="48.97254" lon="-0.22503">
        <ele>149.1416016</ele>
        <time>2010-11-07T10:23:26Z</time>
      </trkpt>
      <trkpt lat="48.97252" lon="-0.22506">
        <ele>150.1030273</ele>
        <time>2010-11-07T10:23:32Z</time>
      </trkpt>
      <trkpt lat="48.97252" lon="-0.22507">
        <ele>150.1030273</ele>
        <time>2010-11-07T10:23:33Z</time>
      </trkpt>
      <trkpt lat="48.97252" lon="-0.22507">
        <ele>149.6223145</ele>
        <time>2010-11-07T10:23:34Z</time>
      </trkpt>
      <trkpt lat="48.97253" lon="-0.22507">
        <ele>151.064209</ele>
        <time>2010-11-07T10:23:39Z</time>
      </trkpt>
      <trkpt lat="48.97251" lon="-0.22506">
        <ele>151.064209</ele>
        <time>2010-11-07T10:23:41Z</time>
      </trkpt>
      <trkpt lat="48.97248" lon="-0.22507">
        <ele>152.5063477</ele>
        <time>2010-11-07T10:23:45Z</time>
      </trkpt>
      <trkpt lat="48.97247" lon="-0.22506">
        <ele>152.9869385</ele>
        <time>2010-11-07T10:23:48Z</time>
      </trkpt>
      <trkpt lat="48.97247" lon="-0.22505">
        <ele>152.9869385</ele>
        <time>2010-11-07T10:23:49Z</time>
      </trkpt>
      <trkpt lat="48.97247" lon="-0.22504">
        <ele>153.4676514</ele>
        <time>2010-11-07T10:23:52Z</time>
      </trkpt>
      <trkpt lat="48.97246" lon="-0.22504">
        <ele>153.4676514</ele>
        <time>2010-11-07T10:23:53Z</time>
      </trkpt>
      <trkpt lat="48.97246" lon="-0.22503">
        <ele>153.4676514</ele>
        <time>2010-11-07T10:23:54Z</time>
      </trkpt>
      <trkpt lat="48.97231" lon="-0.22508">
        <ele>158.7547607</ele>
        <time>2010-11-07T10:24:30Z</time>
      </trkpt>
      <trkpt lat="48.97231" lon="-0.22508">
        <ele>158.7547607</ele>
        <time>2010-11-07T10:24:31Z</time>
      </trkpt>
      <trkpt lat="48.97231" lon="-0.22507">
        <ele>158.2741699</ele>
        <time>2010-11-07T10:24:32Z</time>
      </trkpt>
      <trkpt lat="48.9723" lon="-0.22507">
        <ele>159.2354736</ele>
        <time>2010-11-07T10:24:36Z</time>
      </trkpt>
      <trkpt lat="48.97229" lon="-0.22508">
        <ele>159.2354736</ele>
        <time>2010-11-07T10:24:37Z</time>
      </trkpt>
      <trkpt lat="48.97228" lon="-0.22508">
        <ele>159.7161865</ele>
        <time>2010-11-07T10:24:40Z</time>
      </trkpt>
      <trkpt lat="48.97227" lon="-0.22509">
        <ele>160.1968994</ele>
        <time>2010-11-07T10:24:41Z</time>
      </trkpt>
      <trkpt lat="48.97226" lon="-0.2251">
        <ele>160.6774902</ele>
        <time>2010-11-07T10:24:44Z</time>
      </trkpt>
      <trkpt lat="48.97224" lon="-0.2251">
        <ele>161.1582031</ele>
        <time>2010-11-07T10:24:45Z</time>
      </trkpt>
      <trkpt lat="48.97222" lon="-0.2251">
        <ele>162.6000977</ele>
        <time>2010-11-07T10:24:50Z</time>
      </trkpt>
      <trkpt lat="48.97221" lon="-0.2251">
        <ele>162.6000977</ele>
        <time>2010-11-07T10:24:51Z</time>
      </trkpt>
      <trkpt lat="48.97218" lon="-0.2251">
        <ele>163.5615234</ele>
        <time>2010-11-07T10:24:55Z</time>
      </trkpt>
      <trkpt lat="48.97214" lon="-0.2251">
        <ele>165.003418</ele>
        <time>2010-11-07T10:25:03Z</time>
      </trkpt>
      <trkpt lat="48.97213" lon="-0.2251">
        <ele>164.5227051</ele>
        <time>2010-11-07T10:25:04Z</time>
      </trkpt>
      <trkpt lat="48.9721" lon="-0.2251">
        <ele>165.4841309</ele>
        <time>2010-11-07T10:25:09Z</time>
      </trkpt>
      <trkpt lat="48.97209" lon="-0.2251">
        <ele>165.4841309</ele>
        <time>2010-11-07T10:25:10Z</time>
      </trkpt>
      <trkpt lat="48.97208" lon="-0.22509">
        <ele>165.9647217</ele>
        <time>2010-11-07T10:25:13Z</time>
      </trkpt>
      <trkpt lat="48.97203" lon="-0.22509">
        <ele>167.8873291</ele>
        <time>2010-11-07T10:25:20Z</time>
      </trkpt>
      <trkpt lat="48.972" lon="-0.22511">
        <ele>168.368042</ele>
        <time>2010-11-07T10:25:25Z</time>
      </trkpt>
      <trkpt lat="48.972" lon="-0.22511">
        <ele>168.368042</ele>
        <time>2010-11-07T10:25:28Z</time>
      </trkpt>
      <trkpt lat="48.97199" lon="-0.22512">
        <ele>168.8487549</ele>
        <time>2010-11-07T10:25:29Z</time>
      </trkpt>
      <trkpt lat="48.97198" lon="-0.2251">
        <ele>168.8487549</ele>
        <time>2010-11-07T10:25:33Z</time>
      </trkpt>
      <trkpt lat="48.97197" lon="-0.22508">
        <ele>168.8487549</ele>
        <time>2010-11-07T10:25:37Z</time>
      </trkpt>
      <trkpt lat="48.97197" lon="-0.22507">
        <ele>168.8487549</ele>
        <time>2010-11-07T10:25:40Z</time>
      </trkpt>
      <trkpt lat="48.97197" lon="-0.22505">
        <ele>168.8487549</ele>
        <time>2010-11-07T10:25:42Z</time>
      </trkpt>
      <trkpt lat="48.97197" lon="-0.22504">
        <ele>168.8487549</ele>
        <time>2010-11-07T10:25:49Z</time>
      </trkpt>
      <trkpt lat="48.97197" lon="-0.22494">
        <ele>167.4067383</ele>
        <time>2010-11-07T10:25:53Z</time>
      </trkpt>
      <trkpt lat="48.97197" lon="-0.22481">
        <ele>165.9647217</ele>
        <time>2010-11-07T10:25:57Z</time>
      </trkpt>
      <trkpt lat="48.97192" lon="-0.22461">
        <ele>166.4453125</ele>
        <time>2010-11-07T10:26:02Z</time>
      </trkpt>
      <trkpt lat="48.9719" lon="-0.22456">
        <ele>165.9647217</ele>
        <time>2010-11-07T10:26:04Z</time>
      </trkpt>
      <trkpt lat="48.97181" lon="-0.22448">
        <ele>166.9260254</ele>
        <time>2010-11-07T10:26:11Z</time>
      </trkpt>
      <trkpt lat="48.97175" lon="-0.22444">
        <ele>167.4067383</ele>
        <time>2010-11-07T10:26:17Z</time>
      </trkpt>
      <trkpt lat="48.97173" lon="-0.22442">
        <ele>166.9260254</ele>
        <time>2010-11-07T10:26:21Z</time>
      </trkpt>
      <trkpt lat="48.97173" lon="-0.22443">
        <ele>167.4067383</ele>
        <time>2010-11-07T10:30:48Z</time>
      </trkpt>
      <trkpt lat="48.97173" lon="-0.22446">
        <ele>167.8873291</ele>
        <time>2010-11-07T10:30:50Z</time>
      </trkpt>
      <trkpt lat="48.97171" lon="-0.22447">
        <ele>167.8873291</ele>
        <time>2010-11-07T10:30:53Z</time>
      </trkpt>
      <trkpt lat="48.97169" lon="-0.22448">
        <ele>167.8873291</ele>
        <time>2010-11-07T10:30:57Z</time>
      </trkpt>
      <trkpt lat="48.97168" lon="-0.22449">
        <ele>167.4067383</ele>
        <time>2010-11-07T10:30:58Z</time>
      </trkpt>
      <trkpt lat="48.97168" lon="-0.22449">
        <ele>167.8873291</ele>
        <time>2010-11-07T10:31:00Z</time>
      </trkpt>
      <trkpt lat="48.97167" lon="-0.22449">
        <ele>167.8873291</ele>
        <time>2010-11-07T10:31:04Z</time>
      </trkpt>
      <trkpt lat="48.97165" lon="-0.2245">
        <ele>168.368042</ele>
        <time>2010-11-07T10:31:05Z</time>
      </trkpt>
      <trkpt lat="48.97161" lon="-0.22451">
        <ele>168.368042</ele>
        <time>2010-11-07T10:31:08Z</time>
      </trkpt>
      <trkpt lat="48.97156" lon="-0.22458">
        <ele>169.3294678</ele>
        <time>2010-11-07T10:31:13Z</time>
      </trkpt>
      <trkpt lat="48.97152" lon="-0.2246">
        <ele>169.8100586</ele>
        <time>2010-11-07T10:31:16Z</time>
      </trkpt>
      <trkpt lat="48.97147" lon="-0.22467">
        <ele>170.2906494</ele>
        <time>2010-11-07T10:31:21Z</time>
      </trkpt>
      <trkpt lat="48.97143" lon="-0.22471">
        <ele>170.2906494</ele>
        <time>2010-11-07T10:31:25Z</time>
      </trkpt>
      <trkpt lat="48.97141" lon="-0.22472">
        <ele>170.2906494</ele>
        <time>2010-11-07T10:31:29Z</time>
      </trkpt>
      <trkpt lat="48.9714" lon="-0.22472">
        <ele>170.2906494</ele>
        <time>2010-11-07T10:31:32Z</time>
      </trkpt>
      <trkpt lat="48.97139" lon="-0.22473">
        <ele>170.7713623</ele>
        <time>2010-11-07T10:31:33Z</time>
      </trkpt>
      <trkpt lat="48.97139" lon="-0.22473">
        <ele>170.7713623</ele>
        <time>2010-11-07T10:31:37Z</time>
      </trkpt>
      <trkpt lat="48.97137" lon="-0.22475">
        <ele>170.2906494</ele>
        <time>2010-11-07T10:31:38Z</time>
      </trkpt>
      <trkpt lat="48.97133" lon="-0.22486">
        <ele>171.2520752</ele>
        <time>2010-11-07T10:31:44Z</time>
      </trkpt>
      <trkpt lat="48.97126" lon="-0.22497">
        <ele>171.2520752</ele>
        <time>2010-11-07T10:31:51Z</time>
      </trkpt>
      <trkpt lat="48.97126" lon="-0.22499">
        <ele>171.732666</ele>
        <time>2010-11-07T10:31:52Z</time>
      </trkpt>
      <trkpt lat="48.97118" lon="-0.2251">
        <ele>171.732666</ele>
        <time>2010-11-07T10:31:59Z</time>
      </trkpt>
      <trkpt lat="48.97108" lon="-0.22519">
        <ele>171.2520752</ele>
        <time>2010-11-07T10:32:05Z</time>
      </trkpt>
      <trkpt lat="48.97092" lon="-0.22523">
        <ele>170.7713623</ele>
        <time>2010-11-07T10:32:11Z</time>
      </trkpt>
      <trkpt lat="48.97081" lon="-0.22521">
        <ele>169.8100586</ele>
        <time>2010-11-07T10:32:15Z</time>
      </trkpt>
      <trkpt lat="48.97067" lon="-0.22521">
        <ele>168.8487549</ele>
        <time>2010-11-07T10:32:21Z</time>
      </trkpt>
      <trkpt lat="48.97059" lon="-0.22519">
        <ele>166.9260254</ele>
        <time>2010-11-07T10:32:25Z</time>
      </trkpt>
      <trkpt lat="48.97055" lon="-0.22517">
        <ele>165.4841309</ele>
        <time>2010-11-07T10:32:28Z</time>
      </trkpt>
      <trkpt lat="48.97055" lon="-0.22508">
        <ele>164.5227051</ele>
        <time>2010-11-07T10:32:31Z</time>
      </trkpt>
      <trkpt lat="48.97062" lon="-0.22502">
        <ele>162.6000977</ele>
        <time>2010-11-07T10:32:34Z</time>
      </trkpt>
      <trkpt lat="48.97074" lon="-0.22498">
        <ele>159.7161865</ele>
        <time>2010-11-07T10:32:39Z</time>
      </trkpt>
      <trkpt lat="48.97081" lon="-0.22496">
        <ele>158.2741699</ele>
        <time>2010-11-07T10:32:41Z</time>
      </trkpt>
      <trkpt lat="48.97097" lon="-0.2249">
        <ele>153.9483643</ele>
        <time>2010-11-07T10:32:46Z</time>
      </trkpt>
      <trkpt lat="48.9711" lon="-0.2248">
        <ele>150.5836182</ele>
        <time>2010-11-07T10:32:51Z</time>
      </trkpt>
      <trkpt lat="48.97116" lon="-0.22476">
        <ele>149.6223145</ele>
        <time>2010-11-07T10:32:53Z</time>
      </trkpt>
      <trkpt lat="48.97122" lon="-0.2247">
        <ele>148.1804199</ele>
        <time>2010-11-07T10:32:57Z</time>
      </trkpt>
      <trkpt lat="48.97116" lon="-0.22462">
        <ele>145.2963867</ele>
        <time>2010-11-07T10:33:02Z</time>
      </trkpt>
      <trkpt lat="48.97096" lon="-0.22453">
        <ele>141.4510498</ele>
        <time>2010-11-07T10:33:08Z</time>
      </trkpt>
      <trkpt lat="48.97083" lon="-0.22446">
        <ele>138.0865479</ele>
        <time>2010-11-07T10:33:12Z</time>
      </trkpt>
      <trkpt lat="48.9708" lon="-0.22445">
        <ele>137.605835</ele>
        <time>2010-11-07T10:33:13Z</time>
      </trkpt>
      <trkpt lat="48.97078" lon="-0.22445">
        <ele>137.1252441</ele>
        <time>2010-11-07T10:33:14Z</time>
      </trkpt>
      <trkpt lat="48.97069" lon="-0.22441">
        <ele>135.2025146</ele>
        <time>2010-11-07T10:33:19Z</time>
      </trkpt>
      <trkpt lat="48.97068" lon="-0.2244">
        <ele>134.7219238</ele>
        <time>2010-11-07T10:33:21Z</time>
      </trkpt>
      <trkpt lat="48.97065" lon="-0.22438">
        <ele>134.7219238</ele>
        <time>2010-11-07T10:33:28Z</time>
      </trkpt>
      <trkpt lat="48.97063" lon="-0.22439">
        <ele>135.2025146</ele>
        <time>2010-11-07T10:33:30Z</time>
      </trkpt>
      <trkpt lat="48.97054" lon="-0.22441">
        <ele>136.1639404</ele>
        <time>2010-11-07T10:33:37Z</time>
      </trkpt>
      <trkpt lat="48.97046" lon="-0.22442">
        <ele>137.605835</ele>
        <time>2010-11-07T10:33:43Z</time>
      </trkpt>
      <trkpt lat="48.97043" lon="-0.22446">
        <ele>138.0865479</ele>
        <time>2010-11-07T10:33:47Z</time>
      </trkpt>
      <trkpt lat="48.97043" lon="-0.22447">
        <ele>138.0865479</ele>
        <time>2010-11-07T10:33:50Z</time>
      </trkpt>
      <trkpt lat="48.97042" lon="-0.22448">
        <ele>138.0865479</ele>
        <time>2010-11-07T10:33:51Z</time>
      </trkpt>
      <trkpt lat="48.97038" lon="-0.22455">
        <ele>139.5284424</ele>
        <time>2010-11-07T10:33:54Z</time>
      </trkpt>
      <trkpt lat="48.97036" lon="-0.22458">
        <ele>140.0091553</ele>
        <time>2010-11-07T10:33:58Z</time>
      </trkpt>
      <trkpt lat="48.97034" lon="-0.22463">
        <ele>140.970459</ele>
        <time>2010-11-07T10:34:01Z</time>
      </trkpt>
      <trkpt lat="48.97029" lon="-0.22472">
        <ele>142.4124756</ele>
        <time>2010-11-07T10:34:07Z</time>
      </trkpt>
      <trkpt lat="48.97027" lon="-0.2248">
        <ele>142.8930664</ele>
        <time>2010-11-07T10:34:12Z</time>
      </trkpt>
      <trkpt lat="48.97026" lon="-0.22483">
        <ele>143.3736572</ele>
        <time>2010-11-07T10:34:14Z</time>
      </trkpt>
      <trkpt lat="48.97025" lon="-0.22486">
        <ele>144.3352051</ele>
        <time>2010-11-07T10:34:18Z</time>
      </trkpt>
      <trkpt lat="48.97025" lon="-0.22486">
        <ele>143.8543701</ele>
        <time>2010-11-07T10:34:19Z</time>
      </trkpt>
      <trkpt lat="48.97021" lon="-0.22488">
        <ele>144.8157959</ele>
        <time>2010-11-07T10:34:37Z</time>
      </trkpt>
      <trkpt lat="48.9702" lon="-0.22491">
        <ele>144.8157959</ele>
        <time>2010-11-07T10:34:41Z</time>
      </trkpt>
      <trkpt lat="48.97019" lon="-0.22493">
        <ele>145.2963867</ele>
        <time>2010-11-07T10:34:47Z</time>
      </trkpt>
      <trkpt lat="48.97017" lon="-0.22497">
        <ele>145.7770996</ele>
        <time>2010-11-07T10:34:50Z</time>
      </trkpt>
      <trkpt lat="48.97017" lon="-0.22497">
        <ele>145.7770996</ele>
        <time>2010-11-07T10:34:53Z</time>
      </trkpt>
      <trkpt lat="48.97017" lon="-0.22498">
        <ele>145.2963867</ele>
        <time>2010-11-07T10:34:54Z</time>
      </trkpt>
      <trkpt lat="48.97016" lon="-0.22499">
        <ele>146.2578125</ele>
        <time>2010-11-07T10:34:57Z</time>
      </trkpt>
      <trkpt lat="48.97016" lon="-0.225">
        <ele>146.7384033</ele>
        <time>2010-11-07T10:34:58Z</time>
      </trkpt>
      <trkpt lat="48.97015" lon="-0.22503">
        <ele>146.7384033</ele>
        <time>2010-11-07T10:35:08Z</time>
      </trkpt>
      <trkpt lat="48.97013" lon="-0.22509">
        <ele>148.1804199</ele>
        <time>2010-11-07T10:35:11Z</time>
      </trkpt>
      <trkpt lat="48.97012" lon="-0.22522">
        <ele>149.1416016</ele>
        <time>2010-11-07T10:35:18Z</time>
      </trkpt>
      <trkpt lat="48.97014" lon="-0.22541">
        <ele>151.064209</ele>
        <time>2010-11-07T10:35:27Z</time>
      </trkpt>
      <trkpt lat="48.97019" lon="-0.22561">
        <ele>152.0257568</ele>
        <time>2010-11-07T10:35:35Z</time>
      </trkpt>
      <trkpt lat="48.97021" lon="-0.22575">
        <ele>152.9869385</ele>
        <time>2010-11-07T10:35:41Z</time>
      </trkpt>
      <trkpt lat="48.9702" lon="-0.22584">
        <ele>153.4676514</ele>
        <time>2010-11-07T10:35:45Z</time>
      </trkpt>
      <trkpt lat="48.97024" lon="-0.22603">
        <ele>153.9483643</ele>
        <time>2010-11-07T10:35:52Z</time>
      </trkpt>
      <trkpt lat="48.97029" lon="-0.22629">
        <ele>154.9095459</ele>
        <time>2010-11-07T10:36:00Z</time>
      </trkpt>
      <trkpt lat="48.9703" lon="-0.22631">
        <ele>155.3902588</ele>
        <time>2010-11-07T10:36:01Z</time>
      </trkpt>
      <trkpt lat="48.97031" lon="-0.22646">
        <ele>155.3902588</ele>
        <time>2010-11-07T10:36:06Z</time>
      </trkpt>
      <trkpt lat="48.97033" lon="-0.22657">
        <ele>155.3902588</ele>
        <time>2010-11-07T10:36:09Z</time>
      </trkpt>
      <trkpt lat="48.97036" lon="-0.2268">
        <ele>156.3515625</ele>
        <time>2010-11-07T10:36:17Z</time>
      </trkpt>
      <trkpt lat="48.97039" lon="-0.227">
        <ele>156.8321533</ele>
        <time>2010-11-07T10:36:24Z</time>
      </trkpt>
      <trkpt lat="48.97041" lon="-0.22714">
        <ele>156.3515625</ele>
        <time>2010-11-07T10:36:30Z</time>
      </trkpt>
      <trkpt lat="48.97042" lon="-0.22716">
        <ele>156.3515625</ele>
        <time>2010-11-07T10:36:34Z</time>
      </trkpt>
      <trkpt lat="48.97044" lon="-0.22718">
        <ele>156.3515625</ele>
        <time>2010-11-07T10:36:39Z</time>
      </trkpt>
      <trkpt lat="48.97044" lon="-0.2272">
        <ele>156.3515625</ele>
        <time>2010-11-07T10:36:40Z</time>
      </trkpt>
      <trkpt lat="48.97046" lon="-0.22722">
        <ele>156.8321533</ele>
        <time>2010-11-07T10:36:43Z</time>
      </trkpt>
      <trkpt lat="48.97047" lon="-0.22723">
        <ele>156.8321533</ele>
        <time>2010-11-07T10:36:46Z</time>
      </trkpt>
      <trkpt lat="48.97047" lon="-0.22724">
        <ele>157.3128662</ele>
        <time>2010-11-07T10:36:47Z</time>
      </trkpt>
      <trkpt lat="48.97048" lon="-0.22725">
        <ele>156.8321533</ele>
        <time>2010-11-07T10:36:49Z</time>
      </trkpt>
      <trkpt lat="48.97047" lon="-0.22725">
        <ele>156.8321533</ele>
        <time>2010-11-07T10:36:58Z</time>
      </trkpt>
      <trkpt lat="48.97049" lon="-0.22726">
        <ele>156.8321533</ele>
        <time>2010-11-07T10:37:00Z</time>
      </trkpt>
      <trkpt lat="48.97048" lon="-0.22728">
        <ele>156.8321533</ele>
        <time>2010-11-07T10:37:03Z</time>
      </trkpt>
      <trkpt lat="48.97048" lon="-0.2273">
        <ele>157.3128662</ele>
        <time>2010-11-07T10:37:04Z</time>
      </trkpt>
      <trkpt lat="48.97052" lon="-0.2274">
        <ele>158.2741699</ele>
        <time>2010-11-07T10:37:11Z</time>
      </trkpt>
      <trkpt lat="48.97056" lon="-0.2275">
        <ele>158.2741699</ele>
        <time>2010-11-07T10:37:15Z</time>
      </trkpt>
      <trkpt lat="48.97058" lon="-0.22761">
        <ele>158.7547607</ele>
        <time>2010-11-07T10:37:20Z</time>
      </trkpt>
      <trkpt lat="48.97061" lon="-0.22773">
        <ele>159.2354736</ele>
        <time>2010-11-07T10:37:26Z</time>
      </trkpt>
      <trkpt lat="48.97066" lon="-0.22782">
        <ele>160.6774902</ele>
        <time>2010-11-07T10:37:31Z</time>
      </trkpt>
      <trkpt lat="48.97067" lon="-0.22793">
        <ele>160.1968994</ele>
        <time>2010-11-07T10:37:36Z</time>
      </trkpt>
      <trkpt lat="48.97068" lon="-0.22795">
        <ele>160.1968994</ele>
        <time>2010-11-07T10:37:39Z</time>
      </trkpt>
      <trkpt lat="48.97069" lon="-0.22801">
        <ele>159.7161865</ele>
        <time>2010-11-07T10:37:41Z</time>
      </trkpt>
      <trkpt lat="48.97078" lon="-0.2282">
        <ele>161.1582031</ele>
        <time>2010-11-07T10:37:51Z</time>
      </trkpt>
      <trkpt lat="48.97083" lon="-0.22831">
        <ele>162.1195068</ele>
        <time>2010-11-07T10:37:57Z</time>
      </trkpt>
      <trkpt lat="48.97088" lon="-0.22845">
        <ele>162.1195068</ele>
        <time>2010-11-07T10:38:03Z</time>
      </trkpt>
      <trkpt lat="48.9709" lon="-0.22853">
        <ele>162.1195068</ele>
        <time>2010-11-07T10:38:06Z</time>
      </trkpt>
      <trkpt lat="48.97094" lon="-0.22874">
        <ele>162.6000977</ele>
        <time>2010-11-07T10:38:13Z</time>
      </trkpt>
      <trkpt lat="48.971" lon="-0.22889">
        <ele>162.6000977</ele>
        <time>2010-11-07T10:38:19Z</time>
      </trkpt>
      <trkpt lat="48.97108" lon="-0.22903">
        <ele>163.5615234</ele>
        <time>2010-11-07T10:38:26Z</time>
      </trkpt>
      <trkpt lat="48.97115" lon="-0.22919">
        <ele>164.0421143</ele>
        <time>2010-11-07T10:38:32Z</time>
      </trkpt>
      <trkpt lat="48.97121" lon="-0.22935">
        <ele>165.003418</ele>
        <time>2010-11-07T10:38:39Z</time>
      </trkpt>
      <trkpt lat="48.97124" lon="-0.22946">
        <ele>165.003418</ele>
        <time>2010-11-07T10:38:43Z</time>
      </trkpt>
      <trkpt lat="48.97128" lon="-0.22959">
        <ele>165.003418</ele>
        <time>2010-11-07T10:38:48Z</time>
      </trkpt>
      <trkpt lat="48.97131" lon="-0.22974">
        <ele>165.4841309</ele>
        <time>2010-11-07T10:38:55Z</time>
      </trkpt>
      <trkpt lat="48.97132" lon="-0.22979">
        <ele>166.4453125</ele>
        <time>2010-11-07T10:38:58Z</time>
      </trkpt>
      <trkpt lat="48.97137" lon="-0.22986">
        <ele>167.4067383</ele>
        <time>2010-11-07T10:39:04Z</time>
      </trkpt>
      <trkpt lat="48.97137" lon="-0.23003">
        <ele>166.9260254</ele>
        <time>2010-11-07T10:39:10Z</time>
      </trkpt>
      <trkpt lat="48.97136" lon="-0.23009">
        <ele>166.4453125</ele>
        <time>2010-11-07T10:39:12Z</time>
      </trkpt>
      <trkpt lat="48.97136" lon="-0.23022">
        <ele>165.4841309</ele>
        <time>2010-11-07T10:39:16Z</time>
      </trkpt>
      <trkpt lat="48.9714" lon="-0.2304">
        <ele>165.4841309</ele>
        <time>2010-11-07T10:39:23Z</time>
      </trkpt>
      <trkpt lat="48.97143" lon="-0.23055">
        <ele>165.4841309</ele>
        <time>2010-11-07T10:39:27Z</time>
      </trkpt>
      <trkpt lat="48.97151" lon="-0.23078">
        <ele>165.9647217</ele>
        <time>2010-11-07T10:39:35Z</time>
      </trkpt>
      <trkpt lat="48.97155" lon="-0.231">
        <ele>165.9647217</ele>
        <time>2010-11-07T10:39:42Z</time>
      </trkpt>
      <trkpt lat="48.97158" lon="-0.2312">
        <ele>165.9647217</ele>
        <time>2010-11-07T10:39:48Z</time>
      </trkpt>
      <trkpt lat="48.97161" lon="-0.23136">
        <ele>165.9647217</ele>
        <time>2010-11-07T10:39:53Z</time>
      </trkpt>
      <trkpt lat="48.97163" lon="-0.23141">
        <ele>165.9647217</ele>
        <time>2010-11-07T10:39:55Z</time>
      </trkpt>
      <trkpt lat="48.97165" lon="-0.23153">
        <ele>165.9647217</ele>
        <time>2010-11-07T10:39:59Z</time>
      </trkpt>
      <trkpt lat="48.97168" lon="-0.23166">
        <ele>165.9647217</ele>
        <time>2010-11-07T10:40:05Z</time>
      </trkpt>
      <trkpt lat="48.97166" lon="-0.23183">
        <ele>165.4841309</ele>
        <time>2010-11-07T10:40:25Z</time>
      </trkpt>
      <trkpt lat="48.97161" lon="-0.23197">
        <ele>163.0808105</ele>
        <time>2010-11-07T10:40:29Z</time>
      </trkpt>
      <trkpt lat="48.97158" lon="-0.23199">
        <ele>162.6000977</ele>
        <time>2010-11-07T10:40:30Z</time>
      </trkpt>
      <trkpt lat="48.97133" lon="-0.23212">
        <ele>159.7161865</ele>
        <time>2010-11-07T10:40:34Z</time>
      </trkpt>
      <trkpt lat="48.97126" lon="-0.23215">
        <ele>158.7547607</ele>
        <time>2010-11-07T10:40:35Z</time>
      </trkpt>
      <trkpt lat="48.97104" lon="-0.23226">
        <ele>156.3515625</ele>
        <time>2010-11-07T10:40:39Z</time>
      </trkpt>
      <trkpt lat="48.97096" lon="-0.23231">
        <ele>155.8709717</ele>
        <time>2010-11-07T10:40:41Z</time>
      </trkpt>
      <trkpt lat="48.97095" lon="-0.23243">
        <ele>155.8709717</ele>
        <time>2010-11-07T10:40:45Z</time>
      </trkpt>
      <trkpt lat="48.97101" lon="-0.23271">
        <ele>155.8709717</ele>
        <time>2010-11-07T10:40:52Z</time>
      </trkpt>
      <trkpt lat="48.97108" lon="-0.23308">
        <ele>156.3515625</ele>
        <time>2010-11-07T10:41:00Z</time>
      </trkpt>
      <trkpt lat="48.97115" lon="-0.23348">
        <ele>156.8321533</ele>
        <time>2010-11-07T10:41:09Z</time>
      </trkpt>
      <trkpt lat="48.97118" lon="-0.23372">
        <ele>156.3515625</ele>
        <time>2010-11-07T10:41:14Z</time>
      </trkpt>
      <trkpt lat="48.97122" lon="-0.23415">
        <ele>156.3515625</ele>
        <time>2010-11-07T10:41:23Z</time>
      </trkpt>
      <trkpt lat="48.97125" lon="-0.23447">
        <ele>156.8321533</ele>
        <time>2010-11-07T10:41:30Z</time>
      </trkpt>
      <trkpt lat="48.97128" lon="-0.23477">
        <ele>157.3128662</ele>
        <time>2010-11-07T10:41:37Z</time>
      </trkpt>
      <trkpt lat="48.97129" lon="-0.23506">
        <ele>157.7935791</ele>
        <time>2010-11-07T10:41:44Z</time>
      </trkpt>
      <trkpt lat="48.97134" lon="-0.23553">
        <ele>157.7935791</ele>
        <time>2010-11-07T10:41:55Z</time>
      </trkpt>
      <trkpt lat="48.9714" lon="-0.23591">
        <ele>158.7547607</ele>
        <time>2010-11-07T10:42:04Z</time>
      </trkpt>
      <trkpt lat="48.97148" lon="-0.23642">
        <ele>159.7161865</ele>
        <time>2010-11-07T10:42:16Z</time>
      </trkpt>
      <trkpt lat="48.97152" lon="-0.23679">
        <ele>159.7161865</ele>
        <time>2010-11-07T10:42:26Z</time>
      </trkpt>
      <trkpt lat="48.97154" lon="-0.23701">
        <ele>159.7161865</ele>
        <time>2010-11-07T10:42:34Z</time>
      </trkpt>
      <trkpt lat="48.97152" lon="-0.23705">
        <ele>159.7161865</ele>
        <time>2010-11-07T10:42:38Z</time>
      </trkpt>
      <trkpt lat="48.9715" lon="-0.23741">
        <ele>159.7161865</ele>
        <time>2010-11-07T10:42:45Z</time>
      </trkpt>
      <trkpt lat="48.9715" lon="-0.23745">
        <ele>159.7161865</ele>
        <time>2010-11-07T10:42:46Z</time>
      </trkpt>
      <trkpt lat="48.97157" lon="-0.23757">
        <ele>160.1968994</ele>
        <time>2010-11-07T10:42:49Z</time>
      </trkpt>
      <trkpt lat="48.9716" lon="-0.23758">
        <ele>160.1968994</ele>
        <time>2010-11-07T10:42:50Z</time>
      </trkpt>
      <trkpt lat="48.9718" lon="-0.23778">
        <ele>160.6774902</ele>
        <time>2010-11-07T10:42:58Z</time>
      </trkpt>
      <trkpt lat="48.972" lon="-0.23808">
        <ele>161.1582031</ele>
        <time>2010-11-07T10:43:06Z</time>
      </trkpt>
      <trkpt lat="48.97208" lon="-0.23831">
        <ele>161.638916</ele>
        <time>2010-11-07T10:43:11Z</time>
      </trkpt>
      <trkpt lat="48.97208" lon="-0.23865">
        <ele>161.638916</ele>
        <time>2010-11-07T10:43:17Z</time>
      </trkpt>
      <trkpt lat="48.97213" lon="-0.23904">
        <ele>161.638916</ele>
        <time>2010-11-07T10:43:24Z</time>
      </trkpt>
      <trkpt lat="48.97222" lon="-0.23942">
        <ele>161.638916</ele>
        <time>2010-11-07T10:43:32Z</time>
      </trkpt>
      <trkpt lat="48.97229" lon="-0.23966">
        <ele>162.1195068</ele>
        <time>2010-11-07T10:43:39Z</time>
      </trkpt>
      <trkpt lat="48.97231" lon="-0.23991">
        <ele>162.6000977</ele>
        <time>2010-11-07T10:43:44Z</time>
      </trkpt>
      <trkpt lat="48.97228" lon="-0.24028">
        <ele>163.0808105</ele>
        <time>2010-11-07T10:43:51Z</time>
      </trkpt>
      <trkpt lat="48.97217" lon="-0.2408">
        <ele>163.0808105</ele>
        <time>2010-11-07T10:44:01Z</time>
      </trkpt>
      <trkpt lat="48.97208" lon="-0.24118">
        <ele>163.5615234</ele>
        <time>2010-11-07T10:44:09Z</time>
      </trkpt>
      <trkpt lat="48.97195" lon="-0.2412">
        <ele>164.0421143</ele>
        <time>2010-11-07T10:44:14Z</time>
      </trkpt>
      <trkpt lat="48.97171" lon="-0.241">
        <ele>164.0421143</ele>
        <time>2010-11-07T10:44:22Z</time>
      </trkpt>
      <trkpt lat="48.97155" lon="-0.24087">
        <ele>164.0421143</ele>
        <time>2010-11-07T10:44:27Z</time>
      </trkpt>
      <trkpt lat="48.97144" lon="-0.24078">
        <ele>163.5615234</ele>
        <time>2010-11-07T10:44:30Z</time>
      </trkpt>
      <trkpt lat="48.97101" lon="-0.24055">
        <ele>163.0808105</ele>
        <time>2010-11-07T10:44:40Z</time>
      </trkpt>
      <trkpt lat="48.97068" lon="-0.24039">
        <ele>163.0808105</ele>
        <time>2010-11-07T10:44:47Z</time>
      </trkpt>
      <trkpt lat="48.97059" lon="-0.24035">
        <ele>163.0808105</ele>
        <time>2010-11-07T10:44:49Z</time>
      </trkpt>
      <trkpt lat="48.9701" lon="-0.24032">
        <ele>163.5615234</ele>
        <time>2010-11-07T10:44:59Z</time>
      </trkpt>
      <trkpt lat="48.9699" lon="-0.24027">
        <ele>163.0808105</ele>
        <time>2010-11-07T10:45:03Z</time>
      </trkpt>
      <trkpt lat="48.96974" lon="-0.24034">
        <ele>163.5615234</ele>
        <time>2010-11-07T10:45:07Z</time>
      </trkpt>
      <trkpt lat="48.96973" lon="-0.2404">
        <ele>163.0808105</ele>
        <time>2010-11-07T10:45:08Z</time>
      </trkpt>
      <trkpt lat="48.9697" lon="-0.24072">
        <ele>164.0421143</ele>
        <time>2010-11-07T10:45:15Z</time>
      </trkpt>
      <trkpt lat="48.96968" lon="-0.24095">
        <ele>165.003418</ele>
        <time>2010-11-07T10:45:22Z</time>
      </trkpt>
      <trkpt lat="48.96966" lon="-0.24111">
        <ele>165.4841309</ele>
        <time>2010-11-07T10:45:26Z</time>
      </trkpt>
      <trkpt lat="48.96966" lon="-0.24115">
        <ele>165.4841309</ele>
        <time>2010-11-07T10:45:27Z</time>
      </trkpt>
    </trkseg>
  </trk>
</gpx>